[[{"header":{"parameterUnit":"m.s-1","parameterCategory":1,"la1":30.6,"la2":29.2853,"lo1":-89.7004,"lo2":-87.6739,"dy":0.0162,"dx":0.0183,"nx":112,"ny":82,"refTime":"2025-07-31T00:00:00:Z","depth":0,"parameterNumber":2,"parameterNumberName":"U-component_of_WINDS"},"data":[0.0,0.0,0.0,0.0,0.0,0.0,0.0,0.0,0.0,0.0,0.0,0.0,0.0,0.0,0.0,0.0,0.0,0.0,0.0,0.0,0.0,0.0,0.0,0.0,0.0,0.0,0.0,0.0,0.0,0.0,0.0,0.0,0.0,0.0,0.0,0.0,0.0,0.0,0.0,0.0,0.0,0.0,0.0,0.0,0.0,0.0,0.0,0.0,0.0,0.0,0.0,0.0,0.0,0.0,0.0,0.0,0.0,0.0,0.0,0.0,0.0,0.0,0.0,0.0,0.0,0.0,0.0,0.0,0.0,0.0,0.0,0.0,0.0,0.0,0.0,0.0,0.0,0.0,0.0,0.0,0.0,0.0,0.0,0.0,0.0,0.0,0.0,0.0,0.0,0.0,-4.1168,-4.25,-4.438,-4.54,-4.5052,-4.4707,-4.3138,-3.9932,0.0,0.0,0.0,0.0,0.0,0.0,0.0,0.0,0.0,0.0,0.0,0.0,0.0,0.0,0.0,0.0,0.0,0.0,0.0,0.0,0.0,0.0,0.0,0.0,0.0,0.0,0.0,0.0,0.0,0.0,0.0,0.0,0.0,0.0,0.0,0.0,0.0,0.0,0.0,0.0,0.0,0.0,0.0,0.0,0.0,0.0,0.0,0.0,0.0,0.0,0.0,0.0,0.0,0.0,0.0,0.0,0.0,0.0,0.0,0.0,0.0,0.0,0.0,0.0,0.0,0.0,0.0,0.0,0.0,0.0,0.0,0.0,0.0,0.0,0.0,0.0,0.0,0.0,0.0,0.0,0.0,0.0,0.0,0.0,0.0,0.0,0.0,0.0,0.0,0.0,0.0,0.0,0.0,0.0,0.0,0.0,0.0,0.0,0.0,0.0,0.0,0.0,0.0,0.0,-4.1705,-4.4726,-4.5132,-4.5052,-4.4707,-4.4318,-4.2971,-4.0363,0.0,0.0,0.0,0.0,0.0,0.0,0.0,0.0,0.0,0.0,0.0,0.0,0.0,0.0,0.0,0.0,0.0,0.0,0.0,0.0,0.0,0.0,0.0,0.0,0.0,0.0,0.0,0.0,0.0,0.0,0.0,0.0,0.0,0.0,0.0,0.0,0.0,0.0,0.0,0.0,0.0,0.0,0.0,0.0,0.0,0.0,0.0,0.0,0.0,0.0,0.0,0.0,0.0,0.0,0.0,0.0,0.0,0.0,0.0,0.0,0.0,0.0,0.0,0.0,0.0,0.0,0.0,0.0,0.0,0.0,0.0,0.0,0.0,0.0,0.0,0.0,0.0,0.0,0.0,0.0,0.0,0.0,0.0,0.0,0.0,0.0,0.0,0.0,0.0,0.0,0.0,0.0,0.0,0.0,0.0,0.0,0.0,0.0,0.0,0.0,0.0,0.0,0.0,-4.0203,-4.242,-4.5295,-4.5303,-4.4944,-4.4624,-4.3967,-4.2527,-4.0088,-3.8005,0.0,0.0,0.0,0.0,0.0,0.0,0.0,0.0,0.0,0.0,0.0,0.0,0.0,0.0,0.0,0.0,0.0,0.0,0.0,0.0,0.0,0.0,0.0,0.0,0.0,0.0,0.0,0.0,0.0,0.0,0.0,0.0,0.0,0.0,0.0,0.0,0.0,0.0,0.0,0.0,0.0,0.0,0.0,0.0,0.0,0.0,0.0,0.0,0.0,0.0,0.0,0.0,0.0,0.0,0.0,0.0,0.0,0.0,0.0,0.0,0.0,0.0,0.0,0.0,0.0,0.0,0.0,0.0,0.0,0.0,0.0,0.0,0.0,0.0,0.0,0.0,0.0,0.0,0.0,0.0,0.0,0.0,0.0,0.0,0.0,0.0,0.0,0.0,0.0,0.0,0.0,0.0,0.0,0.0,0.0,0.0,0.0,0.0,0.0,0.0,0.0,0.0,-4.194,-4.3115,-4.524,-4.5093,-4.4687,-4.4289,-4.3375,-4.1832,-3.9522,-3.7411,0.0,0.0,0.0,0.0,0.0,0.0,0.0,0.0,0.0,0.0,0.0,0.0,0.0,0.0,0.0,0.0,0.0,0.0,0.0,0.0,0.0,0.0,0.0,0.0,0.0,0.0,0.0,0.0,0.0,0.0,0.0,0.0,0.0,0.0,0.0,0.0,0.0,0.0,0.0,0.0,0.0,0.0,0.0,0.0,0.0,0.0,0.0,0.0,0.0,0.0,0.0,0.0,0.0,0.0,0.0,0.0,0.0,0.0,0.0,0.0,0.0,0.0,0.0,0.0,0.0,0.0,0.0,0.0,0.0,0.0,0.0,0.0,0.0,0.0,0.0,0.0,0.0,0.0,0.0,0.0,0.0,0.0,0.0,0.0,0.0,0.0,0.0,0.0,0.0,0.0,0.0,0.0,0.0,0.0,0.0,0.0,0.0,0.0,0.0,0.0,0.0,0.0,-4.1968,-4.3703,-4.4994,-4.4507,-4.3876,-4.3344,-4.2264,-4.0814,-3.8868,-3.6719,0.0,0.0,0.0,0.0,0.0,0.0,0.0,0.0,0.0,0.0,0.0,0.0,0.0,0.0,0.0,0.0,0.0,0.0,0.0,0.0,0.0,0.0,0.0,0.0,0.0,0.0,0.0,0.0,0.0,0.0,0.0,0.0,0.0,0.0,0.0,0.0,0.0,0.0,0.0,0.0,0.0,0.0,0.0,0.0,0.0,0.0,0.0,0.0,0.0,0.0,0.0,0.0,0.0,0.0,0.0,0.0,0.0,0.0,0.0,0.0,0.0,0.0,0.0,0.0,0.0,0.0,0.0,0.0,0.0,0.0,0.0,0.0,0.0,0.0,0.0,0.0,0.0,0.0,0.0,0.0,0.0,0.0,0.0,0.0,0.0,0.0,0.0,0.0,0.0,0.0,0.0,0.0,0.0,0.0,0.0,0.0,0.0,0.0,0.0,0.0,0.0,0.0,-4.1358,-4.3095,0.0,-4.4026,-4.34,-4.3219,-4.1904,-4.0227,-3.8163,0.0,0.0,0.0,0.0,0.0,0.0,0.0,0.0,0.0,0.0,0.0,0.0,0.0,0.0,0.0,0.0,0.0,0.0,0.0,0.0,0.0,0.0,0.0,0.0,0.0,0.0,0.0,0.0,0.0,0.0,0.0,0.0,0.0,0.0,0.0,0.0,0.0,0.0,0.0,0.0,0.0,0.0,0.0,0.0,0.0,0.0,0.0,0.0,0.0,0.0,0.0,0.0,0.0,0.0,0.0,0.0,0.0,0.0,0.0,0.0,0.0,0.0,0.0,0.0,0.0,0.0,0.0,0.0,0.0,0.0,0.0,0.0,0.0,0.0,0.0,0.0,0.0,0.0,0.0,0.0,0.0,0.0,0.0,0.0,0.0,0.0,0.0,0.0,0.0,0.0,0.0,0.0,0.0,0.0,0.0,0.0,0.0,0.0,0.0,0.0,0.0,0.0,-3.8906,-4.0999,-4.272,0.0,-4.333,-4.2686,-4.249,-4.1302,-3.9603,-3.7473,0.0,0.0,0.0,0.0,0.0,0.0,0.0,0.0,0.0,0.0,0.0,0.0,0.0,0.0,0.0,0.0,0.0,0.0,0.0,0.0,0.0,0.0,0.0,0.0,0.0,0.0,0.0,0.0,0.0,0.0,0.0,0.0,0.0,0.0,0.0,0.0,0.0,0.0,0.0,0.0,0.0,0.0,0.0,0.0,0.0,0.0,0.0,0.0,0.0,0.0,0.0,0.0,0.0,0.0,0.0,0.0,0.0,0.0,0.0,0.0,0.0,0.0,0.0,0.0,0.0,0.0,0.0,0.0,0.0,0.0,0.0,0.0,0.0,0.0,0.0,0.0,0.0,0.0,0.0,0.0,0.0,0.0,0.0,0.0,0.0,0.0,0.0,0.0,0.0,0.0,0.0,0.0,0.0,0.0,0.0,0.0,0.0,0.0,0.0,0.0,0.0,0.0,-3.8285,-4.0943,-4.2829,-4.3135,-4.2333,-4.1543,-4.0929,-4.0206,-3.8942,0.0,0.0,0.0,0.0,0.0,0.0,0.0,0.0,0.0,0.0,0.0,0.0,0.0,0.0,0.0,0.0,0.0,0.0,0.0,0.0,0.0,0.0,0.0,0.0,0.0,0.0,0.0,0.0,0.0,0.0,0.0,0.0,0.0,0.0,0.0,0.0,0.0,0.0,0.0,0.0,0.0,0.0,0.0,0.0,0.0,0.0,0.0,0.0,0.0,0.0,0.0,0.0,0.0,0.0,0.0,0.0,0.0,0.0,0.0,0.0,0.0,0.0,0.0,0.0,0.0,0.0,0.0,0.0,0.0,0.0,0.0,0.0,0.0,0.0,0.0,0.0,0.0,0.0,0.0,0.0,0.0,0.0,0.0,0.0,0.0,0.0,0.0,0.0,0.0,0.0,0.0,0.0,0.0,0.0,0.0,0.0,0.0,0.0,0.0,0.0,0.0,0.0,0.0,-3.7399,-4.0199,-4.2085,-4.2195,-4.157,-4.1094,-4.092,-3.9898,-3.8292,-3.6101,0.0,0.0,0.0,0.0,0.0,0.0,0.0,0.0,0.0,0.0,0.0,0.0,0.0,0.0,0.0,0.0,0.0,0.0,0.0,0.0,0.0,0.0,0.0,0.0,0.0,0.0,0.0,0.0,0.0,0.0,0.0,0.0,0.0,0.0,0.0,0.0,0.0,0.0,0.0,0.0,0.0,0.0,0.0,0.0,0.0,0.0,0.0,0.0,0.0,0.0,0.0,0.0,0.0,0.0,0.0,0.0,0.0,0.0,0.0,0.0,0.0,0.0,0.0,0.0,0.0,0.0,0.0,0.0,0.0,0.0,0.0,0.0,0.0,0.0,0.0,0.0,0.0,0.0,0.0,0.0,0.0,0.0,0.0,0.0,0.0,0.0,0.0,0.0,0.0,0.0,0.0,0.0,0.0,0.0,0.0,0.0,0.0,0.0,0.0,0.0,0.0,0.0,-3.6759,-3.9592,-4.134,-4.1,-4.0259,-3.9586,-3.9299,-3.8565,-3.729,-3.5318,0.0,0.0,0.0,0.0,0.0,0.0,0.0,0.0,0.0,0.0,0.0,0.0,0.0,0.0,0.0,0.0,0.0,0.0,0.0,0.0,0.0,0.0,0.0,0.0,0.0,0.0,0.0,0.0,0.0,0.0,0.0,0.0,0.0,0.0,0.0,0.0,0.0,0.0,0.0,0.0,0.0,0.0,0.0,0.0,0.0,0.0,0.0,0.0,0.0,0.0,0.0,0.0,0.0,0.0,0.0,0.0,0.0,0.0,0.0,0.0,0.0,0.0,0.0,0.0,0.0,0.0,0.0,0.0,0.0,0.0,0.0,0.0,0.0,0.0,0.0,0.0,0.0,0.0,0.0,0.0,0.0,0.0,0.0,0.0,0.0,0.0,0.0,0.0,0.0,0.0,0.0,0.0,0.0,0.0,0.0,0.0,0.0,0.0,0.0,0.0,0.0,0.0,-3.6222,-3.8915,-4.0408,-3.9615,-3.8529,-3.7576,-3.6776,-3.6629,-3.6009,-3.458,0.0,0.0,0.0,0.0,0.0,0.0,0.0,0.0,0.0,0.0,0.0,0.0,0.0,0.0,0.0,0.0,0.0,0.0,0.0,0.0,0.0,0.0,0.0,0.0,0.0,0.0,0.0,0.0,0.0,0.0,0.0,0.0,0.0,0.0,0.0,0.0,0.0,0.0,0.0,0.0,0.0,0.0,0.0,0.0,0.0,0.0,0.0,0.0,0.0,0.0,0.0,0.0,0.0,0.0,0.0,0.0,0.0,0.0,0.0,0.0,-3.4472,0.0,0.0,0.0,0.0,0.0,0.0,0.0,0.0,0.0,0.0,0.0,0.0,0.0,0.0,0.0,0.0,0.0,0.0,0.0,0.0,0.0,0.0,0.0,0.0,0.0,0.0,0.0,0.0,0.0,0.0,0.0,0.0,0.0,0.0,0.0,0.0,0.0,0.0,0.0,0.0,0.0,-3.5607,-3.7852,-3.8858,-3.7568,-3.7203,-3.677,-3.6093,-3.5465,-3.4759,-3.3856,-3.3275,0.0,0.0,0.0,0.0,0.0,0.0,0.0,0.0,0.0,0.0,0.0,0.0,0.0,0.0,0.0,0.0,0.0,0.0,0.0,0.0,0.0,0.0,0.0,0.0,0.0,0.0,0.0,0.0,0.0,0.0,0.0,0.0,0.0,0.0,0.0,0.0,0.0,0.0,0.0,0.0,0.0,0.0,0.0,0.0,0.0,0.0,0.0,0.0,0.0,0.0,0.0,0.0,0.0,0.0,0.0,0.0,0.0,0.0,0.0,0.0,-3.5588,0.0,0.0,0.0,0.0,0.0,0.0,0.0,0.0,0.0,0.0,0.0,0.0,0.0,0.0,0.0,0.0,0.0,0.0,0.0,0.0,0.0,0.0,0.0,0.0,0.0,0.0,0.0,0.0,0.0,0.0,0.0,0.0,0.0,0.0,0.0,0.0,0.0,0.0,0.0,0.0,-3.4959,-3.6734,-3.7455,-3.6368,-3.5647,-3.5014,-3.4296,-3.3886,-3.356,-3.3131,-3.2719,0.0,0.0,0.0,0.0,0.0,0.0,0.0,0.0,0.0,0.0,0.0,0.0,0.0,0.0,0.0,0.0,0.0,0.0,0.0,0.0,0.0,0.0,0.0,0.0,0.0,0.0,0.0,0.0,0.0,0.0,0.0,0.0,0.0,0.0,0.0,0.0,0.0,0.0,0.0,0.0,0.0,0.0,0.0,0.0,0.0,0.0,0.0,0.0,0.0,0.0,0.0,0.0,0.0,-3.7922,-3.8278,-3.8246,-3.7401,-3.6927,-3.6779,-3.6903,-3.7181,-3.7384,0.0,0.0,0.0,0.0,0.0,0.0,0.0,0.0,0.0,0.0,0.0,0.0,0.0,0.0,0.0,0.0,0.0,0.0,0.0,0.0,0.0,0.0,0.0,0.0,0.0,-3.6131,-3.5953,0.0,0.0,0.0,0.0,0.0,0.0,0.0,0.0,0.0,0.0,0.0,0.0,-3.465,-3.5808,-3.6248,-3.5305,-3.4191,-3.315,-3.2408,-3.2404,-3.2412,-3.2412,-3.2377,-3.2341,0.0,0.0,0.0,0.0,0.0,0.0,0.0,0.0,0.0,0.0,0.0,0.0,0.0,0.0,0.0,0.0,0.0,0.0,0.0,0.0,0.0,0.0,0.0,0.0,0.0,0.0,0.0,0.0,0.0,0.0,0.0,0.0,-2.4985,-2.5975,0.0,0.0,0.0,0.0,0.0,0.0,0.0,0.0,0.0,0.0,0.0,0.0,0.0,-3.6603,-3.7449,-3.8294,-3.87,-3.8717,-3.9445,-3.9783,-3.9783,-3.8795,-3.7871,-3.6961,-3.7439,0.0,-3.5921,-3.6268,0.0,0.0,0.0,0.0,0.0,0.0,0.0,0.0,0.0,0.0,0.0,0.0,0.0,0.0,0.0,0.0,0.0,0.0,0.0,0.0,0.0,0.0,-3.6566,-3.6489,-3.6029,-3.5601,0.0,-3.5248,-3.5052,-3.4266,-3.3693,0.0,0.0,0.0,0.0,0.0,0.0,0.0,-3.5248,-3.5621,-3.5231,-3.3903,-3.311,-3.2362,-3.1676,-3.1644,-3.1614,-3.1614,-3.161,-3.1618,-3.1641,-3.0911,0.0,0.0,0.0,0.0,0.0,0.0,0.0,0.0,0.0,0.0,0.0,0.0,0.0,0.0,0.0,0.0,0.0,0.0,0.0,0.0,0.0,0.0,0.0,0.0,0.0,0.0,0.0,0.0,0.0,-2.4987,-2.7032,-2.7835,-2.9215,-2.916,0.0,0.0,0.0,0.0,0.0,0.0,0.0,0.0,0.0,-3.6939,-3.7238,-3.777,-3.8514,-3.9242,-3.9597,-3.9597,-3.9935,-4.0121,-4.0096,-3.9633,-3.8699,-3.743,-3.6783,-3.6153,-3.5537,-3.5935,-3.5701,-3.5038,0.0,0.0,0.0,0.0,-3.4809,-3.4506,-3.5763,-3.5851,0.0,-3.5048,0.0,0.0,0.0,0.0,0.0,0.0,0.0,0.0,0.0,0.0,-3.6006,-3.6006,-3.5733,-3.5504,-3.5504,-3.5063,-3.4621,0.0,-3.3819,-3.2837,-3.1544,0.0,0.0,0.0,0.0,-3.3604,-3.4288,-3.4395,-3.4015,-3.3004,-3.2333,-3.184,-3.1497,-3.1482,-3.1482,-3.1482,-3.1482,-3.1482,-3.1482,-3.1604,-3.1264,0.0,0.0,0.0,0.0,0.0,0.0,0.0,0.0,0.0,0.0,0.0,0.0,0.0,0.0,0.0,0.0,0.0,0.0,0.0,0.0,0.0,0.0,0.0,0.0,0.0,0.0,0.0,0.0,-2.754,-2.8945,-3.0093,-3.1335,-3.0907,0.0,0.0,0.0,0.0,0.0,0.0,-3.756,-3.8276,-3.81,-3.7411,-3.7896,-3.8438,-3.8975,-3.9343,-3.9506,-3.9523,-3.9912,-4.0087,-4.0056,-3.9291,-3.8305,-3.7172,-3.6016,-3.5504,-3.5524,-3.5568,-3.5584,-3.5477,-3.4422,-3.4008,-3.413,-3.5171,-3.5246,-3.4928,-3.5934,-3.5943,-3.5429,-3.4906,0.0,-3.4753,-3.3995,0.0,0.0,0.0,0.0,-3.3613,-3.4802,-3.5294,-3.5504,-3.5504,-3.5504,-3.5439,-3.5133,-3.4543,-3.41,0.0,-3.363,-3.2592,-3.1518,0.0,0.0,0.0,0.0,-3.3035,-3.366,-3.3469,-3.3035,-3.2542,-3.1885,-3.1482,-3.1482,-3.1482,-3.1482,-3.1482,-3.1482,-3.1482,-3.1482,-3.196,-3.1872,-3.1014,0.0,0.0,0.0,0.0,0.0,0.0,0.0,0.0,0.0,0.0,0.0,0.0,0.0,0.0,0.0,0.0,0.0,0.0,0.0,0.0,0.0,0.0,0.0,0.0,0.0,0.0,0.0,0.0,0.0,-3.3235,-3.3641,0.0,0.0,0.0,0.0,-2.693,-3.0645,-3.4476,-3.774,-3.9259,-3.9625,-3.8886,-3.8833,-3.8879,-3.8912,-3.8246,-3.7937,-3.7937,-3.9397,-4.0074,-3.9984,-3.7055,-3.5707,-3.5585,-3.5537,-3.5504,-3.5504,-3.5524,-3.5509,-3.5509,-3.5415,-3.54,-3.5415,-3.5494,-3.5444,-3.5459,-3.5554,-3.5504,-3.5504,-3.5459,-3.4463,-3.3149,-3.2791,-3.2164,0.0,0.0,-3.3268,-3.3984,-3.4081,-3.4758,-3.5504,-3.5504,-3.5504,-3.5213,-3.4245,-3.4027,-3.4013,0.0,-3.3268,-3.2429,-3.1709,0.0,-3.1861,-3.2835,-3.2493,-3.2736,-3.4274,-3.3363,-3.2511,-3.2481,-3.1915,-3.1482,-3.1482,-3.1482,-3.1482,-3.1482,-3.1482,-3.1482,-3.1482,-3.1511,-3.1827,-3.2405,-3.1187,0.0,0.0,0.0,0.0,0.0,0.0,0.0,0.0,0.0,0.0,0.0,0.0,0.0,0.0,0.0,0.0,0.0,0.0,0.0,0.0,0.0,0.0,0.0,0.0,0.0,0.0,0.0,0.0,-3.2969,-3.4393,0.0,-3.3824,-3.3917,-3.3605,-3.253,-3.5701,-3.8162,-3.9262,-3.9825,-3.9982,-3.9698,-3.9182,-3.8908,-3.8908,-3.8149,-3.7822,-3.7822,-3.8008,-3.8318,-3.8575,-3.6429,-3.5506,-3.5477,-3.5479,-3.5504,-3.5504,-3.5504,-3.5504,-3.5504,-3.5504,-3.5504,-3.5504,-3.5504,-3.5504,-3.5504,-3.5504,-3.5067,-3.4505,-3.4301,-3.3575,-3.2528,-3.1209,-3.1029,-3.1414,-3.1616,-3.196,-3.2464,-3.3671,-3.3822,-3.3754,-3.4394,-3.4041,-3.3547,-3.3171,-3.2593,-3.2177,-3.2177,-3.196,-3.1495,-3.0931,-3.0579,-3.0637,-3.1246,-3.1612,-3.2065,-3.2838,-3.27,-3.2348,-3.1915,-3.1631,-3.1482,-3.1482,-3.1482,-3.1482,-3.1482,-3.1482,-3.1482,-3.1482,-3.1943,-3.2035,-3.1842,-3.1825,-3.133,0.0,0.0,0.0,0.0,0.0,0.0,0.0,0.0,0.0,0.0,0.0,0.0,0.0,0.0,0.0,0.0,0.0,0.0,0.0,0.0,0.0,0.0,0.0,0.0,0.0,0.0,-3.1845,-3.2948,-3.463,-3.5616,-3.531,-3.5476,-3.5586,-3.5596,-3.837,-4.0078,-4.0088,-4.0103,-4.0002,-3.9714,-3.9193,-3.8619,-3.8101,-3.7674,-3.7279,-3.7011,-3.6656,-3.6661,-3.7002,-3.5997,-3.548,-3.5504,-3.5504,-3.5504,-3.5504,-3.5504,-3.5504,-3.5504,-3.5504,-3.5504,-3.5504,-3.5504,-3.5504,-3.5439,-3.5133,-3.4327,-3.3463,-3.31,-3.266,-3.1947,-3.0312,-3.0271,-3.0696,-3.0696,-3.097,-3.1462,-3.2749,-3.282,-3.2749,-3.338,-3.3031,-3.2536,-3.2177,-3.1683,-3.1106,-3.0758,-3.0696,-3.0579,-3.0229,-2.9973,-3.0024,-3.0716,-3.1058,-3.1523,-3.2179,-3.2196,-3.2018,-3.1526,-3.1482,-3.1482,-3.1482,-3.1482,-3.1482,-3.1482,-3.1264,-3.1205,-3.1482,-3.1693,-3.1768,-3.181,-3.2287,-3.2078,-3.118,0.0,0.0,0.0,0.0,0.0,0.0,0.0,0.0,0.0,0.0,0.0,0.0,0.0,0.0,0.0,0.0,0.0,0.0,0.0,0.0,0.0,0.0,0.0,-3.1182,-3.1258,-3.1868,-3.3405,-3.4401,-3.4914,-3.4726,-3.5251,-3.5547,-3.5456,-3.827,-3.9984,-3.996,-4.0017,-3.968,-3.8929,-3.8837,-3.8101,-3.6661,-3.6615,-3.6228,-3.5504,-3.5504,-3.5504,-3.5504,-3.5504,-3.5504,-3.5504,-3.5504,-3.5504,-3.5504,-3.5504,-3.5504,-3.5504,-3.5504,-3.5504,-3.5424,-3.5424,-3.5424,-3.5279,-3.4245,-3.331,-3.2481,-3.1837,-3.1621,-3.1447,-3.0141,-2.9796,-2.9792,-2.9792,-3.0419,-3.118,-3.118,-3.1815,-3.2522,-3.2522,-3.2522,-3.2249,-3.1315,-3.118,-3.0895,-3.0011,-2.9792,-2.9792,-2.9792,-2.9779,-3.0213,-3.1373,-3.1034,0.0,-3.2272,-3.1885,-3.1482,-3.1482,-3.1482,-3.1482,-3.1482,-3.1482,-3.1482,-3.1467,-3.0715,-3.0669,-3.1439,-3.0673,-3.0979,-3.2407,-3.2422,-3.2482,-3.2482,0.0,0.0,0.0,0.0,0.0,0.0,0.0,0.0,0.0,0.0,0.0,0.0,0.0,0.0,0.0,0.0,0.0,0.0,0.0,0.0,0.0,0.0,-3.0205,-3.1098,-3.1237,-3.1724,-3.3014,-3.3876,-3.4616,-3.5273,-3.5512,-3.4759,-3.2767,-3.5228,-3.6853,-3.6979,-3.7911,-3.8602,-3.8942,-3.7842,-3.7306,-3.7456,-3.6352,-3.5733,-3.5504,-3.5504,-3.5504,-3.5504,-3.5504,-3.5504,-3.5504,-3.5504,-3.5504,-3.5504,-3.5504,-3.5504,-3.5504,-3.5504,-3.5052,-3.4394,-3.4394,-3.3973,-3.3255,-3.2321,-3.1815,-3.1462,-3.0618,-3.0317,-3.0241,-2.9948,-2.9756,-2.9792,-2.9792,-3.0011,-3.0343,-3.1044,-3.0908,-3.0709,-3.1389,-3.1057,-3.0495,-3.0203,-3.0216,-3.0139,-2.9869,-2.9792,-2.9792,-2.9792,-2.9934,-3.0228,-3.0552,-3.0812,0.0,-3.142,-3.1486,-3.1482,-3.1482,-3.1482,-3.1482,-3.1482,-3.1482,-3.1219,-3.0644,-3.0433,-3.0315,-3.0277,-3.0037,-3.0331,-3.1143,-3.1143,-3.1482,0.0,0.0,0.0,0.0,0.0,0.0,0.0,0.0,0.0,0.0,0.0,0.0,0.0,0.0,0.0,0.0,0.0,0.0,0.0,0.0,0.0,0.0,-2.8452,-2.9469,-3.0319,-3.0581,-3.1111,-3.219,-3.2502,-3.3393,-3.539,-3.5071,-3.3845,-3.1674,-3.2977,-3.4455,-3.574,-3.6806,-3.7564,-3.802,-3.742,-3.6996,-3.6853,-3.6276,-3.5782,-3.5504,-3.5504,-3.5504,-3.5504,-3.5504,-3.5504,0.0,-3.5504,-3.531,-3.4931,-3.444,-3.4353,0.0,0.0,0.0,0.0,0.0,-3.282,-3.1974,-3.1542,-3.1022,-3.0558,-3.0011,-2.9792,-2.9792,-2.9792,-2.9792,-2.9792,-2.9792,-2.9792,-2.9934,-3.0482,-3.0216,-2.9934,-3.0482,-3.0216,-2.9792,-2.9792,-2.9792,-2.9792,-2.9792,-2.9792,0.0,-2.9499,-2.9866,-3.0124,-3.0046,-3.0301,-3.0587,-3.0783,-3.056,-3.045,-3.045,-3.0777,-3.1029,-3.1029,-3.153,0.0,0.0,0.0,-3.0238,-2.9673,-2.9948,0.0,0.0,0.0,0.0,0.0,0.0,0.0,0.0,-3.4038,-3.3995,0.0,0.0,0.0,0.0,0.0,0.0,0.0,0.0,0.0,0.0,0.0,0.0,0.0,0.0,0.0,0.0,-2.8031,-2.8669,-2.9124,-2.9355,-2.9868,-3.0974,-3.0762,-3.1675,-3.4611,-3.4105,-3.3027,-3.1607,-3.1627,-3.2874,-3.5438,0.0,0.0,0.0,0.0,-3.6789,-3.5396,-3.6044,-3.6043,-3.5385,-3.5474,-3.5489,-3.5524,-3.5524,-3.54,-3.528,-3.531,-3.4891,-3.4077,-3.2999,-3.2668,-3.2944,-3.3471,-3.3671,-3.3602,-3.2607,-3.1756,-3.1057,-3.1413,0.0,0.0,-2.9792,-2.9792,-2.9792,-2.9792,-2.9792,-2.9792,-2.9792,-2.9792,-2.9792,-2.9792,-2.9792,-2.9792,-2.9792,-2.9792,-2.9792,-2.9792,-2.9792,-2.9792,-2.9792,-2.9741,-2.9539,-2.8904,-2.9525,-3.002,-2.9728,-2.9665,-2.982,-3.0144,-2.9504,-2.9002,-2.9002,0.0,0.0,-3.0257,-3.1559,-3.1942,-3.1002,-3.0735,-3.0227,-2.9403,-3.0065,-3.0765,-3.1403,-3.2258,-3.3081,-3.3829,-3.4712,-3.5294,-3.5489,-3.4876,-3.4857,0.0,0.0,0.0,0.0,0.0,0.0,0.0,0.0,0.0,0.0,0.0,0.0,0.0,0.0,0.0,-2.665,-2.667,-2.7024,-2.7778,-2.6764,-2.682,-2.9027,-3.0003,-3.0544,-3.0568,-3.2437,-3.3003,-3.1627,-3.2525,-3.3438,-3.3982,-3.5163,-3.5843,-3.5893,-3.5393,-3.506,-3.4833,-3.4912,-3.4841,-3.4681,0.0,0.0,-3.5465,-3.5465,-3.4934,-3.3903,-3.4314,-3.4117,-3.3617,-3.3187,-3.2387,-3.1594,-3.1702,-3.1742,-3.1609,-3.0709,-3.0216,-3.0075,-3.0177,-3.0036,-2.9792,-2.9792,-2.9792,-2.9792,-2.9792,-2.9792,0.0,-2.9792,-2.9792,-2.9792,-2.9792,-2.9792,-2.9792,-2.9792,-2.9792,-2.9792,-2.9792,-2.9792,-2.9792,-2.9792,-2.9415,-2.8925,-2.8312,-2.8963,-2.9368,-2.8825,-2.8962,-2.9174,-2.9247,-2.9129,-2.9002,-2.9002,-2.9129,-2.9563,-3.0236,-3.1028,-3.104,-3.0081,-2.957,-2.9218,-2.9007,-2.9576,-3.0033,-3.0162,-3.0314,-3.1262,-3.2861,-3.3059,-3.3973,-3.5504,-3.537,-3.4934,0.0,0.0,0.0,0.0,0.0,0.0,0.0,0.0,0.0,0.0,0.0,-2.4397,-2.3829,0.0,-2.5341,-2.449,-2.4713,-2.5125,-2.5523,-2.5193,-2.5803,-2.8497,-2.8637,-2.8521,-2.848,-2.9751,-3.0302,-2.9594,-3.2029,-3.3687,-3.394,-3.4345,-3.479,-3.5136,-3.439,-3.4001,-3.4089,-3.4046,-3.3978,-3.3978,-3.4337,-3.4613,-3.4863,-3.4602,-3.3324,-3.1349,-3.2639,-3.229,-3.0793,-3.1082,-3.0626,-2.9683,-3.0263,-3.0482,-3.0419,-2.9998,-2.9792,-2.9792,-2.9792,-2.9792,-2.9792,-2.9792,-2.9792,-2.9792,-2.9792,-2.9792,-2.9792,-2.9792,-2.9792,-2.9792,-2.9792,-2.9792,-2.9792,-2.9792,-2.9792,-2.9792,-2.9792,-2.9792,-2.9792,-2.9792,-2.9327,-2.875,-2.8197,-2.8223,-2.8298,-2.8092,-2.8243,-2.8333,-2.8379,-2.7998,-2.7736,-2.7736,-2.8093,-2.8514,-2.8953,-2.9834,-3.0331,-3.0515,-2.9766,-2.934,-2.9366,-2.9616,-3.005,-3.0467,-3.0948,-3.186,-3.33,-3.379,-3.4558,-3.5504,-3.5504,-3.5213,0.0,0.0,0.0,0.0,0.0,0.0,0.0,0.0,-2.3125,-2.5154,-2.5398,-2.4155,-2.0759,-2.1965,-2.32,-2.2573,-2.3045,-2.3445,-2.3203,-2.3826,-2.5132,-2.752,-2.7081,-2.6847,-2.7536,-2.7728,-2.7995,-2.8353,-3.1706,-3.3887,-3.4315,-3.4121,-3.4137,-3.4382,-3.3847,-3.3401,-3.308,-3.323,-3.3305,-3.3305,-3.344,-3.3529,-3.3589,-3.3531,-3.1762,-2.8935,-3.0764,-3.0266,-2.8238,-2.8953,-2.8802,-2.836,-2.9264,-2.9691,-2.9792,-2.9792,-2.9792,-2.9792,-2.9792,-2.9792,-2.9792,-2.9792,-2.9792,-2.9792,-2.9792,-2.9792,-2.9792,-2.9792,-2.9792,-2.9792,-2.9792,-2.9792,-2.9792,-2.9792,-2.9792,-2.9792,-2.9792,-2.9792,-2.9792,-2.9792,-2.9239,-2.8648,-2.8151,-2.7578,-2.7215,-2.7446,-2.7486,-2.7486,-2.7486,-2.6896,-2.6533,-2.6533,-2.7049,-2.7623,-2.801,-2.8992,-3.0003,-3.1097,-3.0289,-2.9792,-2.9792,-3.0011,-3.043,-3.1203,-3.2148,-3.3078,-3.3995,-3.4779,-3.5294,-3.5504,-3.5504,-3.5504,-0.4426,-0.6877,-0.9966,-1.4696,-1.6245,-1.7232,0.0,0.0,-2.2624,-2.5104,-2.4626,-2.3234,-2.1623,-2.2014,-2.2559,-2.2655,-2.2768,-2.2484,-2.1506,-2.21,-2.3054,-2.4163,-2.5645,-2.6856,-2.7545,-2.8244,-2.9348,-3.1009,-3.2982,-3.425,-3.4526,-3.5098,-3.4847,-3.3735,-3.361,-3.2989,-3.1745,-3.2287,-3.2617,-3.2632,-3.3215,-3.2773,-3.1464,-3.2885,-3.1535,-2.8266,-2.903,-2.9029,-2.8462,-2.8526,-2.866,-2.885,-2.8976,-2.934,-2.9792,-2.9792,-2.9792,-2.9792,-2.9792,-2.9792,-2.9792,-2.9792,-2.9792,-2.9792,-2.9792,-2.9792,-2.9792,-2.9792,-2.9792,-2.9792,-2.9792,-2.9792,-2.9792,-2.9792,-2.9792,-2.9792,-2.9792,-2.9792,-2.9792,-2.9792,-2.8925,-2.8172,-2.8084,-2.7231,-2.6609,-2.6645,-2.662,-2.662,-2.662,-2.6577,-2.6533,-2.6533,-2.6559,-2.737,-2.9127,-2.9812,-3.0447,-3.1183,-3.0329,-2.9792,-2.9792,-3.062,-3.1114,-3.1203,-3.214,-3.3031,-3.4008,-3.4134,-3.461,-3.5504,-3.5504,-3.5504,-0.3817,-0.6885,0.0,0.0,-1.4989,-1.7137,-1.9723,-2.1069,-2.2331,-2.4114,-2.3202,-2.1493,-1.9604,-1.9215,-1.948,0.0,-2.0373,-2.0476,-2.0886,-2.1547,-2.2676,-2.4572,-2.5832,-2.6995,-2.8184,-2.8592,-2.9529,-3.1255,-3.3119,-3.4242,-3.4375,-3.4768,-3.4592,-3.3633,-3.3235,-3.2516,-3.1539,-3.1809,-3.1943,-3.1943,-3.2213,-3.1737,-3.069,-3.1839,-3.0797,-2.8115,-2.771,-2.7481,-2.7387,-2.7652,-2.8066,-2.8486,-2.88,-2.9289,-2.9792,-2.9792,-2.9792,-2.9792,-2.9792,-2.9792,-2.9792,-2.9792,-2.9792,-2.9792,-2.9792,-2.9792,-2.9792,-2.9792,-2.9792,-2.9792,-2.9792,-2.9792,-2.9792,-2.9792,-2.9792,-2.9792,-2.9792,-2.9792,-2.9679,-2.9238,-2.855,-2.8009,-2.7682,-2.6979,-2.6533,-2.6533,-2.6533,-2.6533,-2.6533,-2.6533,-2.6594,-2.6907,-2.6976,-2.7557,-2.903,-2.9314,-2.9731,-3.0366,-3.005,-2.9792,-2.9792,-3.0696,-3.1436,-3.2024,-3.2933,-3.3891,-3.4839,-3.4839,-3.5067,-3.5504,-3.5504,-3.5504,-0.2646,0.0,0.0,-1.1428,-1.3808,-1.6178,-1.8643,-1.9745,-2.0669,-2.1943,-2.1002,-1.9395,-1.7711,-1.739,-1.7756,-1.8821,-1.9245,-1.9889,-2.1108,-2.1774,-2.3004,-2.5289,-2.6639,-2.779,-2.8834,-2.9099,-2.9847,-3.1435,-3.3067,-3.4152,-3.458,-3.4747,-3.4479,-3.3633,-3.3145,-3.2422,-3.1539,-3.1482,-3.1482,-3.1482,-3.1482,-3.1087,-3.0283,-3.0387,-2.9596,-2.8065,-2.6985,-2.6533,-2.6559,-2.6892,-2.7469,-2.8147,-2.8549,-2.9151,-2.9792,-2.9792,-2.9792,-2.9792,-2.9792,-2.9792,-2.9792,-2.9792,-2.9792,-2.9792,-2.9792,-2.9792,-2.9792,-2.9792,-2.9792,-2.9792,-2.9792,-2.9792,-2.9792,-2.9792,-2.9792,-2.9792,-2.9792,-2.9666,-2.9465,-2.9088,-2.8487,-2.7984,-2.7582,-2.7055,-2.6697,-2.6546,-2.6533,-2.6533,-2.6533,-2.6533,-2.6706,-2.7211,-2.7416,-2.7918,-2.8842,-2.9051,-2.9315,-2.9754,-2.9792,-2.9792,-2.9792,-3.0983,-3.1888,-3.2593,-3.3808,-3.4758,-3.5504,-3.5213,-3.5067,-3.5067,-3.4839,-3.4706,0.0,0.0,-0.6939,-1.0778,-1.2228,-1.3195,-1.4956,-1.5979,-1.6949,-1.8294,-1.778,-1.7062,-1.6972,-1.7858,-1.8862,-1.9569,-2.0699,-2.1727,-2.2357,-2.2974,-2.3882,-2.5248,-2.7883,-2.9509,0.0,-2.9881,-3.0869,-3.2347,-3.3074,-3.4066,-3.5504,-3.556,-3.4958,-3.3633,-3.3582,-3.2917,-3.1524,-3.1482,-3.1482,-3.1482,-3.1482,-3.1087,-3.0269,-2.857,-2.7904,-2.8021,-2.6979,-2.6533,-2.6533,-2.6546,-2.713,-2.8109,-2.8122,-2.8812,-2.9792,-2.9792,-2.9792,-2.9792,-2.9792,-2.9792,-2.9792,-2.9792,-2.9792,-2.9792,-2.9792,-2.9792,-2.9792,-2.9792,-2.9792,-2.9792,-2.9792,-2.9792,-2.9792,-2.9792,-2.9792,-2.9792,-2.9792,-2.9352,-2.9114,-2.9666,-2.8863,-2.8097,-2.8084,-2.762,-2.708,-2.6609,-2.6533,-2.6533,-2.6533,-2.6533,-2.6703,-2.7232,-2.7783,-2.83,-2.8827,-2.9474,-2.9767,-2.9792,-2.9792,-2.9792,-2.9792,-3.1549,-3.2593,-3.2593,-3.4476,-3.5439,-3.5504,-3.4543,-3.4027,-3.4027,-3.3101,-3.2678,0.055,0.0,-0.5936,-1.0056,-1.1542,-1.2632,-1.5143,-1.5665,-1.5607,-1.5661,-1.5976,-1.6117,-1.5527,-1.7073,-1.9086,-2.1028,-2.1956,-2.3266,-2.5671,-2.5722,-2.6335,-2.8592,-2.9901,0.0,0.0,0.0,0.0,-3.2295,-3.3035,-3.3829,-3.4827,-3.5351,-3.5207,-3.4284,-3.3836,-3.313,-3.2216,-3.1739,-3.1482,-3.1482,-3.097,-3.043,-2.9896,-2.8379,-2.7498,-2.7033,-2.6688,-2.6533,-2.6559,-2.6854,-2.7444,-2.8147,-2.8511,-2.9114,-2.9792,-2.9792,-2.9792,-2.9792,-2.9792,-2.9792,-2.9792,-2.9792,-2.9792,-2.9792,-2.9792,-2.9792,-2.9792,-2.9792,-2.9792,-2.9792,-2.9792,-2.9792,-2.9792,-2.9792,-2.9792,-2.9792,-2.9792,-2.9618,-2.929,-2.8799,-2.8571,-2.8303,-2.7679,-2.7105,-2.6804,-2.6979,-2.676,-2.6615,-2.6984,-2.7034,-2.7398,-2.8288,-2.8547,-2.8849,-2.9449,-2.9664,-2.9792,-2.9792,-2.9792,-2.9792,-2.9792,-3.1623,-3.2321,-3.1669,-3.3547,-3.4192,-3.3547,-3.3241,-3.3101,-3.3031,-3.2756,-3.2599,-0.0711,-0.3747,-0.6931,-1.0651,-1.1454,-1.1921,-1.3921,-1.4154,-1.3781,-1.3359,-1.406,-1.4803,-1.529,-1.7419,-1.9999,-2.2849,-2.4275,-2.5742,-2.7793,-2.8063,-2.8914,-3.1235,-3.1586,-3.2115,0.0,0.0,0.0,-3.3059,-3.3525,-3.4117,-3.4861,-3.511,-3.4958,-3.4284,-3.3582,-3.2879,-3.2216,-3.1754,-3.1482,-3.1482,-3.097,-3.0491,-2.9959,-2.8702,-2.7736,-2.6905,-2.6589,-2.6533,-2.6559,-2.6841,-2.7431,-2.8134,-2.8499,-2.9114,-2.9792,-2.9792,-2.9792,-2.9792,-2.9792,-2.9792,-2.9792,-2.9792,-2.9792,-2.9792,-2.9792,-2.9792,-2.9792,-2.9792,-2.9792,-2.9792,-2.9792,-2.9792,-2.9792,-2.9792,-2.9792,-2.9792,-2.9792,-2.9593,-2.9063,-2.7802,-2.795,-2.8168,-2.7679,-2.7281,-2.7168,-2.7519,-2.7268,-2.7168,-2.7507,-2.762,-2.7888,-2.8825,-2.8911,-2.9125,-2.9729,-2.9792,-2.9792,-2.9792,-2.9792,-2.9792,-2.9792,-3.129,-3.1857,-3.118,-3.2749,-3.3171,-3.2593,-3.2249,-3.2105,-3.2105,-3.1763,-3.1601,-0.3743,-0.6653,-0.9544,-1.2186,-1.1801,-1.0921,-1.1379,-1.1446,-1.136,-1.1347,-1.2009,-1.3374,0.0,0.0,-2.1757,-2.5008,-2.7537,-2.903,-2.8915,-3.0085,-3.1492,0.0,0.0,0.0,0.0,0.0,0.0,-3.4489,0.0,-3.4766,-3.5526,-3.4894,-3.4284,-3.3633,-3.2949,-3.2272,-3.1582,-3.1524,-3.1467,-3.1409,-3.1409,-3.097,-3.0133,-2.9317,-2.8427,-2.7604,-2.685,-2.6546,-2.6571,-2.6596,-2.718,-2.8147,-2.8185,-2.885,-2.9792,-2.9792,-2.9792,-2.9792,-2.9792,-2.9792,-2.9792,-2.9792,-2.9792,-2.9792,-2.9792,-2.9792,-2.9792,-2.9792,-2.9792,-2.9792,-2.9792,-2.9792,-2.9792,-2.9792,-2.9792,-2.9792,-2.9792,-2.9226,-2.8325,-2.6971,-2.7188,-2.7765,-2.8011,-2.8134,-2.8147,-2.8147,-2.8172,-2.8182,-2.8147,-2.8154,-2.8381,-2.8928,-2.8923,-2.9164,-2.9741,-2.9792,-2.9792,-2.9792,-2.9792,-2.9792,-2.9792,-3.0688,-3.12,-3.1119,-3.2078,-3.2508,-3.2464,-3.1536,-3.1106,-3.1106,-3.0216,-2.9792,-0.7753,-0.93,-1.031,-1.1831,-1.1531,-1.0915,-1.1376,-1.0422,-0.9453,-0.9488,-1.1311,-1.3691,0.0,0.0,0.0,-2.7999,-2.9406,0.0,-3.2788,-3.3545,0.0,-3.4816,0.0,-3.5869,-3.5486,-3.568,0.0,0.0,-3.4068,-3.4084,-3.4797,-3.4235,-3.3786,-3.3582,-3.2949,-3.2492,-3.2327,-3.1796,-3.1219,-3.0584,-3.0584,-2.9827,-2.8363,-2.8117,-2.7604,-2.6782,-2.6589,-2.676,-2.7105,-2.7519,-2.8097,-2.8762,-2.9189,-2.9541,-2.9792,-2.9792,-2.9792,-2.9792,-2.9792,-2.9792,-2.9792,-2.9792,-2.9792,-2.9792,-2.9792,-2.9792,-2.9792,-2.9792,-2.9792,-2.9792,-2.9792,-2.9792,-2.9792,-2.9792,-2.9792,-2.9792,-2.9792,-2.9618,-2.9441,-2.8996,-2.8737,-2.8474,-2.8172,-2.8448,-2.8725,-2.8725,-2.9089,-2.9189,-2.8774,-2.8687,-2.8913,-2.9479,-2.958,-2.9603,-2.9779,-2.9792,-2.9792,-2.9792,-2.9792,-2.9792,-2.9792,-3.0722,-3.0859,-3.0139,-3.107,-3.1202,-3.0495,-3.0279,-3.0139,-3.0139,-2.9934,-2.9792,-0.9292,-1.0132,-1.0462,-1.1199,-1.063,-0.9955,-1.0266,-0.9176,-0.8339,-0.9099,-1.1361,0.0,0.0,0.0,0.0,0.0,0.0,0.0,-3.4841,-3.5595,-3.6304,0.0,-3.7426,0.0,-3.6521,-3.6334,-3.5814,0.0,-3.4213,-3.4004,-3.4153,-3.3547,-3.3145,-3.3145,-3.2477,-3.212,-3.212,-3.1697,-3.1087,-3.0329,-3.0329,-2.938,-2.767,-2.767,-2.7297,-2.6533,0.0,-2.6697,-2.6967,-2.7519,-2.8072,-2.8624,-2.9189,-2.9566,-2.9792,-2.9792,-2.9792,-2.9792,-2.9792,-2.9792,-2.9792,-2.9792,-2.9792,-2.9792,-2.9792,-2.9792,-2.9702,-2.9045,-2.8949,-2.8943,-2.8474,-2.8657,-2.9022,-2.904,-2.9456,-2.9792,-2.9792,-2.9795,-2.972,-2.9402,-2.9063,-2.8825,-2.8511,-2.8938,-2.9302,-2.9302,-2.9578,-2.9679,-2.9352,-2.9302,-2.9428,-2.9754,-2.9792,-2.9792,-2.9792,-2.9792,-2.9792,-2.9792,-2.9792,-2.9792,-2.9792,-3.0279,-3.0355,-2.9792,-3.0325,-3.0312,-2.9792,-2.9792,-2.9792,-2.9792,-2.9792,-2.9792,-0.9313,-0.969,-1.0047,-1.0271,-0.9392,-0.8525,-0.8718,-0.8007,-0.7751,-0.9474,0.0,-1.4846,-1.867,-2.3317,-2.7741,-3.1167,0.0,-3.5164,-3.5669,-3.6841,-3.812,-3.9437,-3.8732,-3.7874,-3.7251,-3.6531,-3.5651,-3.4559,-3.4252,-3.3889,-3.3308,-3.2694,-3.2353,-3.2353,-3.1807,-3.1482,-3.1482,-3.1409,-3.0896,-3.0133,-3.0011,-2.9129,-2.7537,-2.7537,-2.7162,-2.6533,0.0,0.0,-2.6716,-2.7193,-2.7758,-2.8373,-2.8863,-2.9352,-2.9792,-2.9792,-2.9792,-2.9792,-2.9792,-2.9792,-2.9792,-2.9792,-2.9792,-2.9792,-2.9792,-2.9792,-2.9509,-2.8227,-2.8096,-2.8101,-2.7161,-2.7673,-2.8319,-2.8291,-2.9106,-2.9792,-2.9792,-2.9792,-2.9628,-2.9,-2.8938,-2.9038,-2.9038,-2.9453,-2.9792,-2.9792,-2.9792,-2.9792,-2.9792,-2.9792,-2.9792,-2.9792,-2.9792,-2.9792,-2.9792,-2.9792,-2.9792,-2.9792,-2.9792,-2.9792,-2.9792,-2.9792,-2.9792,-2.9792,-2.9792,-2.9792,-2.9792,-2.9792,-2.9792,-2.9792,-2.9792,-2.9677,-0.9045,-0.8662,-0.8572,-0.8944,-0.8071,-0.7394,-0.8481,-0.767,0.0,0.0,-1.2432,-1.5788,-1.9176,-2.3823,-2.8091,-3.0939,0.0,0.0,0.0,0.0,-3.9851,0.0,0.0,0.0,0.0,0.0,0.0,0.0,0.0,-3.181,-3.1713,-3.1177,-3.0839,-3.0839,-3.1282,-3.1482,-3.1482,-3.0837,-3.0072,-2.9192,-2.8492,-2.767,-2.6714,-2.6714,-2.6658,-2.6533,-2.6533,0.0,-2.7821,-2.7921,-2.8574,-2.9503,-2.9603,-2.9704,-2.9792,-2.9792,-2.9792,-2.9792,-2.9792,-2.9792,-2.9792,-2.9792,-2.9792,-2.9792,-2.9792,-2.9792,-2.9792,-2.9509,-2.9456,-2.9502,-2.9246,-2.9383,-2.9481,-2.9534,-2.9624,-2.9792,-2.9792,-2.9792,-2.9767,-2.9654,-2.9641,-2.9641,-2.9641,-2.9729,-2.9792,-2.9792,-2.9792,-2.9792,-2.9792,-2.9792,-2.9792,-2.9792,-2.9792,-2.9792,-2.9792,-2.9792,-2.9792,-2.9792,-2.9792,-2.9792,-2.9792,-2.9792,-2.9792,-2.9792,-2.9792,-2.9792,-2.9792,-2.9792,-2.9792,-2.9792,-2.9792,-2.9282,-0.4828,-0.6116,-0.7743,-0.7742,-0.7564,-0.7486,-0.7902,0.0,0.0,0.0,-1.4101,-1.734,-1.9824,0.0,0.0,0.0,0.0,0.0,0.0,0.0,0.0,0.0,0.0,0.0,0.0,0.0,0.0,0.0,0.0,-3.0426,-3.0778,-3.0177,-3.0074,-3.0397,-3.0773,-3.1165,-3.1482,-3.0703,-2.9889,-2.9002,-2.8117,-2.7297,-2.6533,-2.6533,-2.6533,-2.6533,-2.6533,0.0,-2.7708,-2.7984,-2.8599,-2.9365,-2.9679,-2.9792,-2.9792,-2.9792,-2.9792,-2.9702,-2.9106,-2.8937,-2.8937,-2.8937,-2.9287,-2.9792,-2.9792,-2.9792,-2.9611,-2.8863,-2.8809,-2.8749,-2.8255,-2.847,-2.8937,-2.8937,-2.9365,-2.9764,-2.9795,-2.9774,-2.9764,-2.9808,-2.9761,-2.9792,-2.9792,-2.9792,-2.9792,-2.9792,-2.9792,-2.9792,-2.9792,-2.9792,-2.9792,-2.9792,-2.9792,-2.9792,-2.9792,-2.9792,-2.9792,-2.9792,-2.9792,-2.9792,-2.9792,-2.9792,-2.9792,-2.9792,-2.9792,-2.9792,-2.9792,-2.9792,-2.9792,-2.9792,-2.9792,-2.9213,0.0048,-0.2913,-0.6173,-0.6047,-0.6591,-0.7133,-0.72,-0.8013,0.0,0.0,-1.533,-1.824,-2.0442,0.0,0.0,0.0,0.0,0.0,0.0,0.0,0.0,0.0,0.0,0.0,0.0,0.0,0.0,0.0,0.0,0.0,-2.9597,-2.8961,-2.8978,-2.9837,-3.0103,-3.0577,-3.13,-3.0451,-2.969,-2.9002,-2.792,-2.7095,-2.6533,-2.6533,-2.6533,-2.6533,-2.6533,0.0,0.0,-2.7921,-2.8499,-2.9164,-2.9616,-2.9792,-2.9792,-2.9792,-2.9792,-2.9624,-2.8518,-2.8096,-2.8096,-2.8096,-2.8907,-2.9814,-2.9817,-2.9792,-2.9599,-2.8409,-2.8275,-2.8267,-2.7464,-2.7867,-2.8426,-2.8426,-2.8937,-2.9477,-2.9782,-2.9534,-2.9452,-2.9702,-2.9808,-2.9792,-2.9792,-2.9792,-2.9792,-2.9792,-2.9792,-2.9792,-2.9792,-2.9792,-2.9792,-2.9792,-2.9792,-2.9792,-2.9792,-2.9792,-2.9792,-2.9792,-2.9792,-2.9792,-2.9792,-2.9792,-2.9792,-2.9792,-2.9792,-2.9792,-2.9792,-2.9792,-2.9792,-2.9792,-2.9792,-2.9064,0.3442,0.0441,-0.2376,-0.3072,-0.3855,-0.4863,-0.6313,0.0,0.0,-1.2748,-1.4937,-1.7357,-2.1031,-2.5584,0.0,0.0,0.0,0.0,0.0,0.0,0.0,0.0,0.0,0.0,0.0,0.0,0.0,0.0,0.0,0.0,-2.7446,-2.6776,-2.7018,-2.8441,-2.9146,-2.9855,-3.0597,-2.959,-2.9066,-2.9002,-2.7351,-2.6589,-2.6533,-2.6533,-2.6533,-2.6533,-2.6533,0.0,0.0,-2.8084,-2.8737,-2.9716,-2.9779,-2.9792,-2.9792,-2.9792,-2.9792,-2.9624,-2.8518,-2.8096,-2.8096,-2.8096,-2.8839,-2.9824,-2.9814,-2.9792,-2.9792,-2.9611,-2.9611,-2.9624,-2.9534,-2.9546,-2.9624,-2.9624,-2.8937,-2.8534,-2.961,-2.879,-2.8164,-2.9518,-2.9808,-2.9792,-2.9792,-2.9792,-2.9792,-2.9792,-2.9792,-2.9792,-2.9792,-2.9792,-2.9792,-2.9792,-2.9792,-2.9792,-2.9792,-2.9792,-2.9792,-2.9792,-2.9792,-2.9792,-2.9792,-2.9792,-2.9792,-2.9792,-2.9792,-2.9792,-2.9792,-2.9792,-2.9792,-2.9792,-2.9792,-2.867,0.3031,0.0615,-0.1942,-0.3453,-0.5354,-0.7212,-0.8461,0.0,-1.1674,-1.3313,-1.5832,-1.8896,-2.3013,-2.653,-2.9087,0.0,0.0,0.0,0.0,0.0,0.0,0.0,0.0,0.0,0.0,0.0,0.0,0.0,0.0,0.0,-2.4063,-2.4457,-2.5633,-2.7605,-2.8412,-2.9088,-2.9797,-2.9256,-2.8748,-2.8182,-2.704,-2.6533,-2.6533,-2.6533,-2.6533,-2.6533,-2.6533,0.0,0.0,-2.8109,-2.8775,-2.9792,-2.9792,-2.9792,-2.9792,-2.9792,-2.9792,-2.9534,-2.7787,-2.7128,-2.7128,-2.7128,-2.7476,-2.8068,-2.9427,-2.9792,-2.9792,-2.9792,-2.9792,-2.9792,-2.9792,-2.9792,-2.9792,-2.9792,-2.8937,-2.7936,-2.729,-2.7359,-2.7797,-2.8326,-2.9181,-2.9792,-2.9792,-2.9792,-2.9792,-2.9792,-2.9792,-2.9792,-2.9792,-2.9792,-2.9792,-2.9792,-2.9792,-2.9792,-2.9792,-2.9792,-2.9792,-2.9792,-2.9792,-2.9792,-2.9792,-2.9792,-2.9792,-2.9792,-2.9792,-2.9792,-2.9792,-2.9792,-2.9456,-2.8767,-2.9456,-2.8652,0.1602,-0.0105,-0.1962,-0.3893,-0.6603,-0.8957,0.0,-1.1639,-1.3478,-1.4827,-1.7213,-2.0416,-2.4713,-2.754,-2.9583,0.0,0.0,0.0,0.0,0.0,0.0,0.0,0.0,0.0,0.0,0.0,0.0,0.0,0.0,0.0,0.0,-2.2088,-2.3804,-2.6448,-2.7523,-2.8383,-2.8986,-2.8988,-2.8556,-2.767,-2.6905,-2.6533,-2.6533,-2.6533,-2.6533,-2.6533,0.0,0.0,0.0,-2.8034,-2.8674,-2.9553,-2.9729,-2.9792,-2.9792,-2.9792,-2.9792,-2.9546,-2.7626,-2.6801,-2.6483,-2.6483,-2.6307,-2.6389,-2.8621,-2.9534,-2.9792,-2.9792,-2.9792,-2.9702,-2.9365,-2.9287,-2.9209,-2.887,-2.7947,-2.6826,-2.5633,-2.5891,-2.6472,-2.7136,-2.8662,-2.9792,-2.9792,-2.9792,-2.9702,-2.9365,-2.9287,-2.9197,-2.887,-2.8791,-2.8791,-2.8791,-2.8791,-2.9131,-2.9714,-2.9456,-2.9287,-2.9287,-2.904,-2.8961,-2.9287,-2.9287,-2.9456,-2.9792,-2.9792,-2.9792,-2.9792,-2.9456,-2.9028,-2.8597,-2.9106,-2.8621,-0.0557,-0.126,-0.1992,-0.392,-0.6605,-0.8954,0.0,-1.176,-1.4602,-1.7563,-1.9181,-2.1415,-2.569,-2.8524,-3.0338,-3.0818,0.0,0.0,0.0,0.0,0.0,0.0,0.0,0.0,0.0,0.0,0.0,0.0,0.0,0.0,0.0,-1.9657,-2.1248,-2.4786,-2.6499,-2.765,-2.8268,-2.8778,-2.8556,-2.767,-2.6905,-2.6533,-2.6533,-2.6533,-2.6533,0.0,0.0,0.0,0.0,-2.7883,-2.8436,-2.9001,-2.9566,-2.9792,-2.9792,-2.9792,-2.9792,-2.9624,-2.8505,-2.736,-2.6483,-2.6483,-2.5714,-2.5199,-2.7429,-2.8937,-2.9792,-2.9792,-2.9792,-2.9534,-2.8426,-2.8096,-2.7844,-2.6801,-2.563,-2.4904,-2.5359,-2.4179,-2.3835,-2.6091,-2.8291,-2.9792,-2.9792,-2.9792,-2.9456,-2.8267,-2.8096,-2.7763,-2.6637,-2.6565,-2.6565,-2.6565,-2.6565,-2.7383,-2.9624,-2.8767,-2.8096,-2.8096,-2.7128,-2.7046,-2.8084,-2.8096,-2.8688,-2.9792,-2.9792,-2.9792,-2.9792,-2.8688,-2.8688,-2.9792,-2.8597,-2.8688,-0.6618,-0.6853,-0.6665,-0.7774,-0.9402,-1.0964,-1.1617,-1.3769,-1.615,-1.8183,-1.985,-2.2233,-2.6527,-2.8901,-3.0825,-3.2704,-3.2811,0.0,0.0,0.0,0.0,0.0,0.0,0.0,0.0,0.0,0.0,0.0,0.0,0.0,0.0,-2.0999,-2.2852,-2.535,-2.6129,-2.7026,-2.8056,-2.8112,-2.767,-2.6905,-2.6589,-2.6533,-2.6533,-2.6533,0.0,0.0,0.0,0.0,0.0,-2.7871,-2.8436,-2.8988,-2.9566,-2.9792,-2.9792,-2.9792,-2.9792,-2.9534,-2.7626,-2.6801,-2.6389,-2.5546,-2.5126,-2.5126,-2.6543,-2.7775,-2.8597,-2.8597,-2.8597,-2.8359,-2.729,-2.7046,-2.6964,-2.6554,-2.563,-2.4904,-2.5275,-2.502,-2.5176,-2.6911,-2.8626,-2.951,-2.8799,-2.8675,-2.8287,-2.7128,-2.7658,-2.7959,-2.765,-2.8302,-2.8497,-2.7707,-2.7624,-2.7545,-2.7557,-2.7209,-2.7047,-2.7036,-2.671,-2.6633,-2.6967,-2.7696,-2.8255,-2.8597,-2.9365,-2.9792,-2.9792,-2.9443,-2.9456,-2.9792,-2.8614,-2.8693,0.0,-1.0297,-0.9555,-0.9802,-1.1193,-1.2791,-1.3889,-1.622,-1.8526,-1.9704,-2.0878,-2.2873,-2.6707,-2.8631,-3.0536,-3.3184,-2.8275,0.0,0.0,0.0,0.0,0.0,0.0,0.0,0.0,0.0,0.0,0.0,0.0,0.0,0.0,-2.1136,-2.3236,-2.5833,-2.6251,-2.6747,-2.752,-2.7628,-2.7284,-2.6533,-2.6533,-2.6533,-2.6533,-2.6533,0.0,0.0,0.0,0.0,0.0,-2.757,-2.8122,-2.8674,-2.9239,-2.9603,-2.9792,-2.9792,-2.9792,-2.9546,-2.7706,-2.6814,-2.6337,-2.5146,-2.4765,-2.4965,-2.5673,-2.6625,-2.7522,-2.7522,-2.7522,-2.7279,-2.613,-2.5891,-2.5724,-2.5316,-2.4723,-2.4231,-2.4475,-2.4553,-2.4809,-2.5714,-2.708,-2.7888,-2.7193,-2.7313,-2.7255,-2.6608,-2.7105,-2.7476,-2.7476,-2.7766,-2.7615,-2.691,-2.6464,-2.5946,-2.5231,-2.5608,-2.5854,-2.5853,-2.5449,-2.5444,-2.5808,-2.6873,-2.7731,-2.8087,-2.9221,-2.9792,-2.9792,-2.9792,-2.9621,-2.9169,-2.8846,-2.9113,0.0,-1.2129,-1.1048,-1.0648,-1.2359,-1.4534,-1.6111,-1.8897,0.0,-2.1874,-2.2262,-2.3393,-2.6328,-2.7941,-2.9711,-3.2532,-2.106,0.0,0.0,0.0,0.0,0.0,0.0,0.0,0.0,0.0,0.0,0.0,0.0,0.0,0.0,-2.0466,-2.2853,-2.6145,-2.6582,-2.6814,-2.6763,-2.7328,-2.7229,-2.6533,-2.6533,-2.6533,-2.6533,-2.6533,0.0,0.0,0.0,0.0,0.0,-2.7055,-2.7607,-2.816,-2.8712,-2.9289,-2.9792,-2.9792,-2.9792,-2.9624,-2.8518,-2.7358,-2.6287,-2.5112,-2.4698,-2.4718,-2.4721,-2.5546,-2.6472,-2.6389,-2.6389,-2.6141,-2.4957,-2.4713,-2.4372,-2.3387,-2.3135,-2.3135,-2.3135,-2.314,-2.3073,-2.3138,-2.4386,-2.5392,-2.5354,-2.6019,-2.6501,-2.6423,-2.6472,-2.6554,-2.6532,-2.5619,-2.4946,-2.484,-2.3867,-2.3222,-2.3144,-2.4053,-2.4672,-2.4672,-2.3674,-2.3612,-2.4682,-2.5883,-2.6941,-2.7951,-2.918,-2.9792,-2.9792,-2.9792,-2.9236,-2.8222,-2.9303,-2.9792,-1.5811,0.0,-1.4331,-1.4101,-1.5586,-1.7365,0.0,-1.9987,-2.1917,-2.2523,0.0,0.0,-2.6322,-2.7821,-2.964,-3.2408,0.0,0.0,0.0,0.0,0.0,0.0,0.0,0.0,0.0,0.0,0.0,0.0,0.0,0.0,0.0,-2.2408,-2.4163,-2.5682,-2.5848,-2.6438,-2.7446,-2.7031,-2.6714,-2.6533,-2.6533,-2.6533,-2.6533,-2.6533,0.0,0.0,0.0,0.0,-2.6571,-2.7055,-2.7607,-2.816,-2.8712,-2.9289,-2.9792,-2.9792,-2.9792,-2.9624,-2.8518,-2.7358,-2.6136,-2.4118,-2.3503,-2.3485,-2.3493,-2.4882,-2.6307,-2.5462,-2.521,-2.4957,-2.38,-2.3464,-2.3474,-2.3135,-2.3135,-2.3135,-2.3135,-2.3076,-2.3113,-2.3103,-2.4377,-2.5314,-2.4966,-2.5775,-2.6185,-2.5292,-2.6651,-2.7463,-2.6621,-2.699,-2.6665,-2.5013,-2.4556,-2.4049,-2.3135,-2.3367,-2.3521,-2.3521,-2.3212,-2.3251,-2.3495,-2.5413,-2.6585,-2.6846,-2.8803,-2.9792,-2.9792,-2.9792,-2.9674,-2.9423,-2.9674,-2.9792,-1.7954,-1.7347,-1.652,-1.5914,-1.7786,-2.0184,-2.1534,0.0,0.0,0.0,0.0,0.0,0.0,0.0,0.0,0.0,0.0,0.0,0.0,0.0,0.0,0.0,0.0,0.0,0.0,0.0,0.0,0.0,0.0,0.0,0.0,-2.3305,-2.4643,-2.5598,-2.536,-2.5876,-2.7162,-2.6714,-2.6533,-2.6533,-2.6533,-2.6533,-2.6533,-2.6533,-2.6533,0.0,0.0,0.0,-2.6546,-2.6779,-2.7381,-2.8134,-2.8436,-2.9063,-2.9792,-2.9792,-2.9792,-2.9624,-2.8287,-2.656,-2.4724,-2.3511,-2.3135,-2.3135,-2.3135,-2.3973,-2.4808,-2.4221,-2.4049,-2.3877,-2.3222,-2.3135,-2.3135,-2.3135,-2.3135,-2.3135,-2.3135,-2.3135,-2.3086,-2.3073,-2.3806,-2.4444,-2.4735,-2.5346,-2.5859,-2.6289,-2.736,-2.7867,-2.7347,-2.7302,-2.6928,-2.5722,-2.5103,-2.4798,-2.4638,-2.4657,-2.4171,-2.3144,-2.3584,-2.3876,-2.3902,-2.6075,-2.751,-2.7971,-2.9209,-2.9792,-2.9792,-2.9792,-2.9792,-2.9792,-2.9792,-2.9792,-1.9556,-1.9396,-1.8755,-1.7655,-1.994,-2.3036,-2.5365,0.0,0.0,0.0,0.0,0.0,0.0,0.0,0.0,0.0,0.0,0.0,0.0,0.0,0.0,0.0,0.0,0.0,0.0,0.0,0.0,0.0,0.0,0.0,0.0,-2.4113,-2.497,-2.5785,-2.5237,-2.5423,-2.6521,-2.6445,-2.6445,-2.6533,-2.6533,-2.6533,-2.6533,-2.6533,-2.6533,0.0,0.0,0.0,-2.6533,-2.6533,-2.7105,-2.8109,-2.8109,-2.88,-2.9792,-2.9792,-2.9792,-2.9599,-2.7941,-2.5677,-2.3299,-2.3135,-2.3135,-2.3135,-2.3135,-2.3135,-2.3135,-2.3135,-2.3135,-2.3135,-2.3135,-2.3135,-2.3135,-2.3135,-2.3135,-2.3135,-2.3135,-2.3135,-2.3135,-2.3135,-2.3222,-2.3637,-2.4628,-2.5115,-2.5942,-2.7844,-2.8271,-2.8271,-2.7873,-2.7183,-2.6624,-2.6262,-2.5565,-2.5419,-2.6389,-2.6507,-2.57,-2.3734,-2.4535,-2.5096,-2.533,-2.7137,-2.8607,-2.9779,-2.9792,-2.9792,-2.9792,-2.9792,-2.9792,-2.9792,-2.9792,-2.9792,-1.9775,-2.1594,-2.3201,-2.2271,-2.3936,-2.6035,-2.7033,0.0,0.0,0.0,0.0,0.0,0.0,0.0,0.0,0.0,0.0,0.0,0.0,0.0,0.0,0.0,0.0,0.0,0.0,0.0,0.0,0.0,0.0,0.0,0.0,-2.6311,-2.6544,-2.6686,-2.5906,-2.5799,-2.6521,-2.5975,-2.5975,-2.6533,-2.6533,-2.6533,-2.6533,-2.6533,-2.6533,0.0,0.0,-2.6533,-2.6533,-2.6533,-2.7105,-2.8109,-2.8109,-2.88,-2.9792,-2.9792,-2.9792,-2.9509,-2.7437,-2.5694,-2.4382,-2.3387,-2.3135,-2.3135,-2.3135,-2.3135,-2.3135,-2.3135,-2.3135,-2.3135,-2.3135,-2.3135,-2.3135,-2.3135,-2.3135,-2.3135,-2.3135,-2.3135,-2.3135,-2.3135,-2.3877,-2.4617,-2.4787,-2.6356,-2.7671,-2.8016,-2.8949,-2.8819,-2.6995,-2.7425,-2.7162,-2.5239,-2.5776,-2.6318,-2.6461,-2.6517,-2.6351,-2.5975,-2.6179,-2.6678,-2.7542,-2.7949,-2.8627,-2.9792,-2.9792,-2.9792,-2.9792,-2.9792,-2.9792,-2.9792,-2.9792,-2.9792,-1.98,-2.129,-2.2604,-2.1559,-2.4467,-2.8128,-3.023,0.0,0.0,0.0,0.0,0.0,0.0,0.0,0.0,0.0,0.0,0.0,0.0,0.0,0.0,0.0,0.0,0.0,0.0,0.0,0.0,0.0,0.0,0.0,0.0,0.0,-2.6673,-2.6232,-2.5519,-2.5586,-2.6521,-2.5887,-2.5887,-2.6533,-2.6533,-2.6533,-2.6533,-2.6533,-2.6533,-2.6533,0.0,-2.6533,-2.6533,-2.6533,-2.71,-2.8091,-2.8124,-2.8838,-2.9792,-2.9792,-2.9328,-2.8318,-2.6495,-2.5035,-2.3819,-2.3308,-2.3135,-2.3135,-2.3135,-2.3135,-2.3135,-2.3135,-2.3135,-2.3135,-2.3135,-2.3135,-2.3135,-2.3135,-2.3135,-2.3135,-2.3135,-2.3135,-2.3319,-2.4217,-2.4584,-2.5199,-2.6356,-2.7429,-2.8335,-2.8937,-2.9456,-2.9229,-2.7542,-2.7829,-2.7696,-2.6653,-2.7025,-2.7646,-2.8199,-2.8303,-2.8039,-2.7371,-2.736,-2.7865,-2.8938,-2.902,-2.9287,-2.9792,-2.9792,-2.9792,-2.9792,-2.9792,-2.9792,-2.9792,-2.9792,-2.9792,-1.9698,-2.1007,-2.2147,-2.165,0.0,-3.0437,-3.3272,0.0,0.0,0.0,0.0,0.0,0.0,0.0,0.0,0.0,0.0,0.0,0.0,0.0,0.0,0.0,0.0,0.0,0.0,0.0,0.0,0.0,0.0,0.0,0.0,0.0,-2.6999,-2.6108,-2.5542,-2.5611,-2.6521,-2.6013,-2.6013,-2.6533,-2.6533,-2.6533,-2.6533,-2.6533,-2.6533,-2.6533,-2.6533,-2.6533,-2.6546,-2.6628,-2.7284,-2.81,-2.8225,-2.8912,-2.9792,-2.9792,-2.873,-2.7209,-2.6073,-2.4524,-2.3123,-2.3114,-2.3135,-2.3135,-2.3135,-2.3135,-2.3135,-2.3135,-2.3135,-2.3135,-2.3135,-2.3135,-2.3135,-2.3135,-2.3135,-2.3135,-2.3474,-2.3464,-2.3917,-2.5423,-2.56,-2.6108,-2.7844,-2.8347,-2.8767,-2.9702,-2.9792,-2.9419,-2.8227,-2.8291,-2.8387,-2.8119,-2.8347,-2.8846,-2.9714,-2.9792,-2.9443,-2.8518,-2.8518,-2.8858,-2.9792,-2.9792,-2.9792,-2.9792,-2.9792,-2.9792,-2.9792,-2.9792,-2.9792,-2.9792,-2.9792,-2.9792,-1.9414,-2.218,-2.4968,-2.6359,-2.9982,0.0,-3.511,-3.4614,0.0,-3.0851,0.0,0.0,0.0,0.0,0.0,0.0,0.0,0.0,0.0,0.0,0.0,0.0,0.0,0.0,0.0,0.0,0.0,0.0,0.0,0.0,0.0,0.0,0.0,-2.7604,-2.6815,-2.6445,-2.6533,-2.6483,-2.6483,-2.6533,-2.6533,-2.6533,-2.6533,-2.6533,-2.6533,-2.6533,-2.6533,-2.6533,-2.6502,-2.7047,-2.7573,-2.8134,-2.8687,-2.9264,-2.9792,-2.9792,-2.845,-2.6543,-2.6461,-2.4935,-2.3096,-2.3135,-2.3135,-2.3135,-2.3135,-2.3135,-2.3135,-2.3135,-2.3135,-2.3135,-2.3135,-2.3135,-2.3135,-2.3135,-2.3135,-2.3387,-2.4457,-2.4713,-2.5041,-2.6152,-2.7209,-2.7924,-2.8084,-2.8937,-2.9702,-2.9792,-2.9792,-2.9397,-2.8281,-2.8987,-2.9241,-2.8203,-2.9065,-2.9702,-2.9792,-2.9792,-2.9792,-2.9702,-2.9702,-2.9702,-2.9792,-2.9792,-2.9792,-2.9792,-2.9792,-2.9792,-2.9792,-2.9792,-2.9792,-2.9792,-2.9792,-2.9792,-1.9656,-2.1917,-2.5452,-3.1021,-3.3644,0.0,0.0,-3.4001,-3.3034,0.0,0.0,0.0,0.0,0.0,0.0,0.0,0.0,0.0,0.0,0.0,0.0,0.0,0.0,0.0,0.0,0.0,0.0,0.0,0.0,0.0,0.0,0.0,0.0,-2.6464,-2.643,-2.6533,-2.6533,-2.6533,-2.6533,-2.6533,-2.6533,-2.6533,-2.6533,-2.6533,-2.6533,-2.6533,-2.6533,-2.6533,-2.6515,-2.7097,-2.7638,-2.8176,-2.9088,-2.9603,-2.9792,-2.9792,-2.8802,-2.747,-2.7532,-2.5992,-2.418,-2.4196,-2.372,-2.3135,-2.3135,-2.3135,-2.3135,-2.3135,-2.3135,-2.3135,-2.3135,-2.3135,-2.3135,-2.3135,-2.3135,-2.3387,-2.4542,-2.4755,-2.5371,-2.7139,-2.7822,-2.8347,-2.9028,-2.9534,-2.9792,-2.9792,-2.9792,-2.9651,-2.9245,-2.9524,-2.9651,-2.9232,-2.9537,-2.9792,-2.9792,-2.9792,-2.9792,-2.9792,-2.9792,-2.9792,-2.9792,-2.9792,-2.9792,-2.9792,-2.9792,-2.9792,-2.9792,-2.9792,-2.9792,-2.9792,-2.9792,-2.9792,-2.0516,-2.2249,-2.5514,0.0,0.0,0.0,-3.4481,-3.3985,0.0,0.0,0.0,0.0,0.0,0.0,0.0,0.0,0.0,0.0,0.0,0.0,0.0,0.0,0.0,0.0,0.0,0.0,0.0,0.0,0.0,0.0,0.0,0.0,0.0,0.0,-2.5732,-2.6058,-2.6202,-2.6214,-2.6319,-2.6533,-2.6533,-2.6533,-2.6533,-2.6533,-2.6533,-2.6533,-2.6533,-2.6533,-2.6527,-2.7251,-2.7977,-2.8712,-2.9476,-2.9792,-2.9792,-2.9792,-2.9061,-2.8114,-2.8131,-2.6628,-2.4838,-2.4794,-2.3994,-2.3135,-2.3135,-2.3135,-2.3135,-2.3135,-2.3378,-2.3602,-2.3667,-2.3607,-2.375,-2.4129,-2.417,-2.4467,-2.5619,-2.582,-2.6428,-2.8303,-2.8669,-2.8858,-2.9702,-2.9792,-2.9792,-2.9792,-2.9792,-2.9792,-2.9792,-2.9792,-2.9792,-2.9792,-2.9792,-2.9792,-2.9792,-2.9792,-2.9792,-2.9792,-2.9792,-2.9792,-2.9792,-2.9792,-2.9792,-2.9792,-2.9792,-2.9792,-2.9792,-2.9792,-2.9792,-2.9792,-2.9792,-2.9792,-2.2144,-2.3674,0.0,0.0,0.0,0.0,0.0,0.0,0.0,0.0,0.0,0.0,0.0,0.0,0.0,0.0,0.0,0.0,0.0,0.0,0.0,0.0,0.0,0.0,0.0,0.0,0.0,0.0,0.0,0.0,0.0,0.0,0.0,0.0,-2.4781,-2.5091,-2.5598,-2.5582,-2.5908,-2.6521,-2.6521,-2.6521,-2.6533,-2.6533,-2.6533,-2.6533,-2.6533,-2.6533,-2.6565,-2.7678,-2.8749,-2.9792,-2.9792,-2.9792,-2.9792,-2.9792,-2.9113,-2.8134,-2.812,-2.664,-2.48,-2.48,-2.4072,-2.3135,-2.3135,-2.3135,-2.3135,-2.3135,-2.3954,-2.4805,-2.4796,-2.4809,-2.5112,-2.6217,-2.6456,-2.6801,-2.7844,-2.8111,-2.8423,-2.9559,-2.9792,-2.9792,-2.9792,-2.9792,-2.9792,-2.9792,-2.9792,-2.9792,-2.9792,-2.9792,-2.9792,-2.9792,-2.9792,-2.9792,-2.9792,-2.9792,-2.9792,-2.9792,-2.9792,-2.9792,-2.9792,-2.9792,-2.9792,-2.9792,-2.9792,-2.9792,-2.9792,-2.9792,-2.9792,-2.9792,-2.9792,-2.9792,-2.5469,0.0,0.0,0.0,0.0,0.0,0.0,0.0,0.0,0.0,0.0,0.0,0.0,0.0,0.0,0.0,0.0,0.0,0.0,0.0,0.0,0.0,0.0,0.0,0.0,0.0,0.0,0.0,0.0,0.0,0.0,0.0,0.0,0.0,-2.4621,-2.4886,-2.5023,-2.5061,-2.5297,-2.585,-2.585,-2.6063,-2.6533,-2.6533,-2.6533,-2.6533,-2.6533,-2.6533,-2.6553,-2.7661,-2.8762,-2.9792,-2.9792,-2.9792,-2.9792,-2.9792,-2.9571,-2.9155,-2.8397,-2.7152,-2.5815,-2.5062,-2.4044,-2.3135,-2.3135,-2.3135,-2.3135,-2.3135,-2.3957,-2.5009,-2.583,-2.6591,-2.7059,-2.6617,-2.6538,-2.6829,-2.7888,-2.8076,-2.8409,-2.9574,-2.9792,-2.9792,-2.9792,-2.9792,-2.9792,-2.9792,-2.9792,-2.9792,-2.9792,-2.9792,-2.9792,-2.9792,-2.9792,-2.9792,-2.9792,-2.9792,-2.9792,-2.9792,-2.9792,-2.9792,-2.9792,-2.9792,-2.9792,-2.9792,-2.9792,-2.9792,-2.9792,-2.9792,-2.9792,-2.9792,-2.9792,-2.9792,-2.6588,0.0,0.0,0.0,0.0,0.0,0.0,0.0,0.0,0.0,0.0,0.0,0.0,0.0,0.0,0.0,0.0,0.0,0.0,0.0,0.0,0.0,0.0,0.0,0.0,0.0,0.0,0.0,0.0,0.0,0.0,0.0,0.0,0.0,-2.3986,-2.4241,-2.4469,-2.4482,-2.487,-2.5598,-2.5598,-2.59,-2.6533,-2.6533,-2.6533,-2.6533,-2.6533,-2.6703,-2.7168,-2.7833,-2.8775,-2.9792,-2.9792,-2.9792,-2.9714,-2.9258,-2.9113,-2.8931,-2.7879,-2.6696,-2.5735,-2.504,-2.3988,-2.3135,-2.3135,-2.3135,-2.3222,-2.3627,-2.4615,-2.5749,-2.6823,-2.7947,-2.8609,-2.7959,-2.7841,-2.8009,-2.8652,-2.8753,-2.8991,-2.9664,-2.9792,-2.9792,-2.9792,-2.9792,-2.9792,-2.9792,-2.9792,-2.9792,-2.9792,-2.9792,-2.9792,-2.9792,-2.9792,-2.9792,-2.9792,-2.9792,-2.9792,-2.9792,-2.9792,-2.9792,-2.9792,-2.9792,-2.9792,-2.9792,-2.9792,-2.9792,-2.9792,-2.9792,-2.9792,-2.9792,-2.9792,-3.0035,-2.6497,0.0,0.0,0.0,0.0,0.0,0.0,0.0,0.0,0.0,0.0,0.0,0.0,0.0,0.0,0.0,0.0,0.0,0.0,0.0,0.0,0.0,0.0,0.0,0.0,0.0,0.0,0.0,0.0,0.0,0.0,0.0,0.0,-2.3078,-2.3078,-2.3389,-2.3916,-2.3916,-2.4456,0.0,-2.5523,-2.585,-2.6533,-2.6533,-2.6533,-2.6533,-2.6533,-2.708,-2.8109,-2.8109,-2.8775,-2.9792,-2.9792,-2.9792,-2.9636,-2.8491,-2.8101,-2.7928,-2.6741,-2.5689,-2.4974,-2.481,-2.4092,-2.3261,-2.3261,-2.3154,-2.3299,-2.4447,-2.5602,-2.6729,-2.7822,-2.8937,-2.9792,-2.9792,-2.9792,-2.9792,-2.9792,-2.9792,-2.9792,-2.9792,-2.9792,-2.9792,-2.9792,-2.9792,-2.9792,-2.9792,-2.9792,-2.9792,-2.9792,-2.9792,-2.9792,-2.9792,-2.9792,-2.9792,-2.9792,-2.9792,-2.9792,-2.9792,-2.9792,-2.9792,-2.9792,-2.9792,-2.9792,-2.9792,-2.9792,-2.9792,-2.9792,-2.9792,-2.9792,-2.9792,-2.9792,-3.0329,0.0,-3.1663,0.0,0.0,0.0,0.0,0.0,0.0,0.0,0.0,0.0,0.0,0.0,0.0,0.0,0.0,0.0,0.0,0.0,0.0,0.0,0.0,0.0,0.0,0.0,0.0,0.0,0.0,0.0,0.0,0.0,0.0,0.0,-2.3078,-2.3078,-2.3128,-2.3314,-2.3265,-2.3879,0.0,-2.4983,-2.5498,-2.6533,-2.6533,-2.6533,-2.6533,-2.6533,-2.708,-2.8109,-2.8109,-2.8775,-2.9792,-2.9792,-2.9792,-2.9624,-2.8542,-2.8131,-2.7787,-2.5876,-2.5581,-2.5979,-2.5128,-2.4584,-2.4445,-2.4445,-2.3847,-2.3377,-2.4459,-2.5644,-2.6782,-2.7808,-2.8937,-2.9792,-2.9792,-2.9792,-2.9792,-2.9792,-2.9792,-2.9792,-2.9792,-2.9792,-2.9792,-2.9792,-2.9792,-2.9792,-2.9792,-2.9792,-2.9792,-2.9792,-2.9792,-2.9792,-2.9792,-2.9792,-2.9792,-2.9792,-2.9792,-2.9792,-2.9792,-2.9792,-2.9792,-2.9792,-2.9792,-2.9792,-2.9792,-2.9792,-2.9792,-2.9792,-2.9792,-2.9792,-2.9792,-2.9792,-3.0585,0.0,0.0,0.0,0.0,0.0,0.0,0.0,0.0,0.0,0.0,0.0,0.0,0.0,0.0,0.0,0.0,0.0,0.0,0.0,0.0,0.0,0.0,0.0,0.0,0.0,0.0,0.0,0.0,0.0,0.0,0.0,-2.3346,-2.3078,-2.3078,-2.3078,-2.3078,-2.3078,-2.3078,-2.3703,-2.482,-2.482,-2.5398,-2.6533,-2.6533,-2.6533,-2.6533,-2.6533,-2.708,-2.8109,-2.8109,-2.8775,-2.9792,-2.9792,-2.9792,-2.9624,-2.7947,-2.736,-2.7113,-2.5357,-2.52,-2.5648,-2.5616,-2.5211,-2.4775,-2.4771,-2.4018,-2.3464,-2.5157,-2.6008,-2.6886,-2.8493,-2.9365,-2.9792,-2.9792,-2.9792,-2.9792,-2.9792,-2.9792,-2.9792,-2.9792,-2.9792,-2.9792,-2.9792,-2.9792,-2.9792,-2.9792,-2.9792,-2.9792,-2.9792,-2.9792,-2.9792,-2.9792,-2.9792,-2.9792,-2.9792,-2.9792,-2.9792,-2.9792,-2.9792,-2.9792,-2.9792,-2.9792,-2.9792,-2.9792,-2.9792,-2.9792,-2.9792,-2.9792,-2.9792,-2.9792,-3.0279,-3.1302,0.0,0.0,0.0,0.0,0.0,0.0,0.0,0.0,0.0,0.0,0.0,0.0,0.0,0.0,0.0,0.0,0.0,0.0,0.0,0.0,0.0,0.0,0.0,0.0,0.0,0.0,0.0,0.0,0.0,0.0,-2.287,-2.304,-2.3078,-2.3078,-2.3078,-2.3078,-2.3078,-2.319,-2.3754,-2.482,-2.5126,-2.576,-2.6714,-2.6714,-2.6658,-2.6533,-2.6533,-2.703,-2.7971,-2.8059,-2.8699,-2.9628,-2.9741,-2.9792,-2.9546,-2.7545,-2.6772,-2.6585,-2.5497,-2.5221,-2.5508,-2.6434,-2.6169,-2.536,-2.5168,-2.4268,-2.3784,-2.5942,-2.6498,-2.7,-2.9197,-2.9792,-2.9792,-2.9792,-2.9792,-2.9792,-2.9792,-2.9792,-2.9792,-2.9792,-2.9792,-2.9792,-2.9792,-2.9792,-2.9792,-2.9792,-2.9792,-2.9792,-2.9792,-2.9792,-2.9792,-2.9792,-2.9792,-2.9792,-2.9792,-2.9792,-2.9792,-2.9792,-2.9792,-2.9792,-2.9792,-2.9792,-2.9792,-2.9792,-2.9792,-2.9792,-2.9792,-2.9792,-2.9792,-2.9792,-3.0862,-3.2233,0.0,0.0,0.0,0.0,0.0,0.0,0.0,0.0,0.0,0.0,0.0,0.0,0.0,0.0,0.0,0.0,0.0,0.0,0.0,0.0,0.0,0.0,0.0,0.0,0.0,0.0,0.0,0.0,0.0,0.0,-2.2055,-2.2735,-2.3078,-2.3078,-2.3078,-2.3078,-2.3078,-2.3592,-2.4217,-2.4833,-2.6531,-2.7393,-2.7537,-2.7537,-2.7162,-2.6533,-2.6533,-2.6816,-2.7431,-2.7908,-2.8423,-2.9051,-2.9566,-2.9792,-2.9624,-2.8359,-2.7879,-2.7765,-2.6646,-2.6886,-2.7647,-2.7858,-2.7741,-2.749,-2.6516,-2.549,-2.4809,-2.614,-2.6483,-2.7025,-2.9238,-2.9792,-2.9792,-2.9792,-2.9792,-2.9792,-2.9792,-2.9792,-2.9792,-2.9792,-2.9792,-2.9792,-2.9792,-2.9792,-2.9792,-2.9792,-2.9792,-2.9792,-2.9792,-2.9792,-2.9792,-2.9792,-2.9792,-2.9792,-2.9792,-2.9792,-2.9792,-2.9792,-2.9792,-2.9792,-2.9792,-2.9792,-2.9792,-2.9792,-2.9792,-2.9792,-2.9792,-2.9792,-2.9792,-2.9804,-3.1392,-3.2905,0.0,0.0,0.0,0.0,0.0,0.0,0.0,0.0,0.0,0.0,0.0,0.0,0.0,0.0,0.0,0.0,0.0,0.0,0.0,0.0,0.0,0.0,0.0,0.0,0.0,0.0,0.0,0.0,0.0,-2.1401,-2.1886,-2.2226,-2.2628,-2.3078,-2.3078,-2.3078,-2.3078,-2.3679,-2.4391,-2.5259,-2.6922,-2.7459,-2.704,-2.7484,-2.7484,-2.7162,-2.6714,-2.6942,-2.7758,-2.8009,-2.8599,-2.9454,-2.9679,-2.9792,-2.9624,-2.8518,-2.8143,-2.8042,-2.7603,-2.7707,-2.8187,-2.8876,-2.8623,-2.8005,-2.7556,-2.6663,-2.5983,-2.7105,-2.7358,-2.7794,-2.9419,-2.9792,-2.9792,-2.9792,-2.9792,-2.9792,-2.9792,-2.9792,-2.9792,-2.9792,-2.9792,-2.9792,-2.9792,-2.9792,-2.9792,-2.9792,-2.9792,-2.9792,-2.9792,-2.9792,-2.9792,-2.9792,-2.9792,-2.9792,-2.9792,-2.9792,-2.9792,-2.9792,-2.9792,-2.9792,-2.9792,-2.9792,-2.9792,-2.9792,-2.9792,-2.9792,-2.9792,-2.9792,-2.9792,-2.9804,-3.1407,-3.282,0.0,0.0,0.0,0.0,0.0,0.0,0.0,0.0,0.0,0.0,0.0,0.0,0.0,0.0,0.0,0.0,0.0,0.0,0.0,0.0,0.0,0.0,0.0,0.0,0.0,0.0,0.0,0.0,0.0,-2.0324,-2.1156,-2.1631,-2.2357,-2.3328,-2.3329,-2.3379,-2.3503,-2.4129,-2.501,-2.6133,-2.7393,-2.7749,-2.7162,-2.7736,-2.8,-2.7881,-2.7054,-2.7163,-2.794,-2.816,-2.8837,-2.9631,-2.9704,-2.9792,-2.9714,-2.8858,-2.8498,-2.857,-2.8554,-2.8539,-2.8674,-2.9555,-2.9245,-2.848,-2.8171,-2.7522,-2.7046,-2.7844,-2.8096,-2.8347,-2.9534,-2.9792,-2.9792,-2.9792,-2.9792,-2.9792,-2.9792,-2.9792,-2.9792,-2.9792,-2.9792,-2.9792,-2.9792,-2.9792,-2.9792,-2.9792,-2.9792,-2.9792,-2.9792,-2.9792,-2.9792,-2.9792,-2.9792,-2.9792,-2.9792,-2.9792,-2.9792,-2.9792,-2.9792,-2.9792,-2.9792,-2.9792,-2.9792,-2.9792,-2.9792,-2.9792,-2.9792,-2.9792,-2.9792,-2.9804,-3.1356,-3.2493,0.0,0.0,0.0,0.0,0.0,0.0,0.0,0.0,0.0,0.0,0.0,0.0,0.0,0.0,0.0,0.0,0.0,0.0,0.0,0.0,0.0,0.0,0.0,0.0,0.0,0.0,0.0,0.0,0.0,-1.8395,-1.9287,-2.0997,-2.251,-2.3891,-2.3924,-2.4211,-2.4732,-2.5259,-2.6187,-2.7617,-2.8465,-2.8925,-2.8876,-2.8939,-2.879,-2.8433,-2.7627,-2.7303,-2.7455,-2.847,-2.8886,-2.9043,-2.9606,-2.9792,-2.9792,-2.9702,-2.9714,-2.9714,-2.9702,-2.9714,-2.9739,-2.9804,-2.9779,-2.9509,-2.8426,-2.8084,-2.8004,-2.8084,-2.8096,-2.8347,-2.9534,-2.9792,-2.9792,-2.9792,-2.9792,-2.9792,-2.9792,-2.9792,-2.9792,-2.9792,-2.9792,-2.9792,-2.9792,-2.9792,-2.9792,-2.9792,-2.9792,-2.9792,-2.9792,-2.9792,-2.9792,-2.9792,-2.9792,-2.9792,-2.9792,-2.9792,-2.9792,-2.9792,-2.9792,-2.9792,-2.9792,-2.9792,-2.9792,-2.9792,-2.9792,-2.9792,-2.9792,-2.9792,-2.9792,-2.9804,-3.1446,-3.223,0.0,0.0,0.0,0.0,0.0,0.0,0.0,0.0,0.0,0.0,0.0,0.0,0.0,0.0,0.0,0.0,0.0,0.0,0.0,0.0,0.0,0.0,0.0,0.0,0.0,0.0,0.0,0.0,0.0,0.0,-1.9104,-2.0366,-2.1952,-2.3961,-2.3989,-2.4394,-2.5289,-2.5475,-2.602,-2.6905,-2.7749,-2.7893,-2.7417,-2.792,-2.7598,-2.6682,-2.7469,-2.7986,-2.8328,-2.8761,-2.9152,-2.9492,-2.9743,-2.9792,-2.9792,-2.9792,-2.9792,-2.9792,-2.9792,-2.9792,-2.9792,-2.9792,-2.9792,-2.9702,-2.9275,-2.9197,-2.9197,-2.9197,-2.9197,-2.9275,-2.9702,-2.9792,-2.9792,-2.9792,-2.9792,-2.9792,-2.9792,-2.9792,-2.9792,-2.9792,-2.9792,-2.9792,-2.9792,-2.9792,-2.9792,-2.9792,-2.9792,-2.9792,-2.9792,-2.9792,-2.9792,-2.9792,-2.9792,-2.9792,-2.9792,-2.9792,-2.9792,-2.9792,-2.9792,-2.9792,-2.9792,-2.9792,-2.9792,-2.9792,-2.9792,-2.9792,-2.9792,-2.9792,-3.0072,-3.0714,-3.1629,-3.2195,-2.5336,0.0,0.0,0.0,0.0,0.0,0.0,0.0,0.0,0.0,0.0,0.0,0.0,0.0,0.0,0.0,0.0,0.0,0.0,0.0,0.0,0.0,0.0,0.0,0.0,0.0,0.0,0.0,0.0,0.0,-1.903,-2.0362,-2.2162,-2.4472,-2.4706,-2.5154,-2.5871,-2.5871,-2.6221,-2.6905,-2.7433,-2.7233,-2.6471,-2.7169,-2.6664,-2.5495,-2.6748,-2.7668,-2.8412,-2.9001,-2.9195,-2.9303,-2.9674,-2.9534,-2.9287,-2.9624,-2.9792,-2.9792,-2.9792,-2.9792,-2.9792,-2.9792,-2.9792,-2.9792,-2.9792,-2.9792,-2.9792,-2.9792,-2.9792,-2.9792,-2.9792,-2.9792,-2.9792,-2.9792,-2.9792,-2.9792,-2.9792,-2.9792,-2.9792,-2.9792,-2.9792,-2.9792,-2.9792,-2.9792,-2.9792,-2.9792,-2.9792,-2.9792,-2.9792,-2.9792,-2.9792,-2.9792,-2.9792,-2.9792,-2.9792,-2.9792,-2.9792,-2.9792,-2.9792,-2.9792,-2.9792,-2.9792,-2.9792,-2.9792,-2.9792,-2.9792,-2.9792,-2.9792,-3.0292,-3.1213,-3.1554,-3.1875,0.0,0.0,0.0,0.0,0.0,0.0,0.0,0.0,0.0,0.0,0.0,0.0,0.0,0.0,0.0,0.0,0.0,0.0,0.0,0.0,0.0,0.0,0.0,0.0,0.0,0.0,0.0,0.0,0.0,-1.6794,-1.8922,-2.1008,-2.3207,-2.5549,-2.6189,-2.6533,-2.6533,-2.6533,-2.6905,-2.767,-2.7604,-2.7165,-2.6314,-2.6677,-2.6118,-2.4969,-2.5444,-2.6247,-2.7361,-2.9087,-2.909,-2.8292,-2.9357,-2.9106,-2.8255,-2.9365,-2.9792,-2.9792,-2.9792,-2.9792,-2.9792,-2.9792,-2.9792,-2.9792,-2.9792,-2.9792,-2.9792,-2.9792,-2.9792,-2.9792,-2.9792,-2.9792,-2.9792,-2.9792,-2.9792,-2.9792,-2.9792,-2.9792,-2.9792,-2.9792,-2.9792,-2.9792,-2.9792,-2.9792,-2.9792,-2.9767,-2.9779,-2.9779,-2.9767,-2.9779,-2.9792,-2.9792,-2.9792,-2.9792,-2.9792,-2.9792,-2.9792,-2.9792,-2.9792,-2.9792,-2.9792,-2.9792,-2.9792,-2.9792,-2.9792,-2.9792,-2.9792,-2.9869,-3.0279,-3.1193,-3.1193,-3.118,-2.4255,0.0,0.0,0.0,0.0,0.0,0.0,0.0,0.0,0.0,0.0,0.0,0.0,0.0,0.0,0.0,0.0,0.0,0.0,0.0,0.0,0.0,0.0,0.0,0.0,0.0,0.0,0.0,-1.6035,-1.8059,-2.0048,-2.2998,-2.4888,-2.5544,-2.6163,-2.6533,-2.6533,-2.6533,-2.6589,-2.6837,-2.6114,-2.5739,-2.5793,-2.5206,-2.4694,-2.4341,-2.5203,-2.5535,-2.5616,-2.7707,-2.8844,-2.9357,-2.9674,-2.9624,-2.9365,-2.9702,-2.9792,-2.9792,-2.9792,-2.9792,-2.9792,-2.9792,-2.9792,-2.9792,-2.9792,-2.9792,-2.9792,-2.9792,-2.9792,-2.9792,-2.9792,-2.9792,-2.9792,-2.9792,-2.9792,-2.9792,-2.9792,-2.9792,-2.9792,-2.9792,-2.9792,-2.9792,-2.9792,-2.9106,-2.8591,-2.8558,-2.8585,-2.8579,-2.8558,-2.9269,-2.9792,-2.9792,-2.9792,-2.9792,-2.9792,-2.9792,-2.9792,-2.9792,-2.9792,-2.9792,-2.9792,-2.9792,-2.9792,-2.9792,-2.9792,-2.9792,-2.9792,-3.0467,-3.0924,-3.1189,-3.1189,-3.1585,0.0,0.0,0.0,0.0,0.0,0.0,0.0,-2.4552,0.0,0.0,0.0,0.0,0.0,0.0,0.0,0.0,0.0,0.0,0.0,0.0,0.0,0.0,0.0,0.0,0.0,0.0,0.0,-1.4977,-1.7294,-1.9677,-2.207,-2.4587,-2.5992,-2.6009,-2.6319,-2.6533,-2.6533,-2.6533,-2.6533,-2.6465,-2.5658,-2.5189,-2.5027,-2.443,-2.4135,-2.4132,-2.496,-2.5632,-2.6299,-2.7545,-2.8211,-2.8539,-2.9427,-2.9534,-2.9118,-2.9624,-2.9792,-2.9792,-2.9792,-2.9792,-2.9792,-2.9792,-2.9792,-2.9792,-2.9792,-2.9792,-2.9792,-2.9792,-2.9792,-2.9792,-2.9792,-2.9792,-2.9792,-2.9792,-2.9792,-2.9792,-2.9792,-2.9792,-2.9792,-2.9792,-2.9792,-2.9792,-2.9792,-2.9275,-2.8767,-2.8846,-2.8846,-2.8773,-2.8799,-2.9397,-2.9792,-2.9792,-2.9792,-2.9792,-2.9792,-2.9792,-2.9792,-2.9792,-2.9792,-2.9792,-2.9792,-2.9792,-2.9792,-2.9792,-2.9792,-2.9998,-3.0419,-3.0556,-3.0836,-3.1237,-3.1237,-3.1729,0.0,0.0,0.0,0.0,0.0,0.0,-2.6533,-2.4909,0.0,0.0,0.0,0.0,0.0,0.0,0.0,0.0,0.0,0.0,0.0,0.0,0.0,0.0,0.0,0.0,0.0,-1.4417,-1.527,-1.5715,-1.8677,-2.1702,-2.4543,-2.5824,-2.6533,-2.6533,-2.6533,-2.6533,-2.6533,-2.6584,-2.6622,-2.6553,-2.5973,-2.5268,-2.4532,-2.4282,-2.4257,-2.4264,-2.4787,-2.5988,-2.7765,-2.7964,-2.7612,-2.7035,-2.9059,-2.9197,-2.8426,-2.9443,-2.9792,-2.9792,-2.9792,-2.9792,-2.9792,-2.9792,-2.9792,-2.9792,-2.9792,-2.9792,-2.9792,-2.9792,-2.9792,-2.9792,-2.9792,-2.9792,-2.9792,-2.9792,-2.9792,-2.9792,-2.9792,-2.9792,-2.9792,-2.9792,-2.9792,-2.9792,-2.9792,-2.9714,-2.9605,-2.9604,-2.9638,-2.9599,-2.9639,-2.9677,-2.9792,-2.9792,-2.9792,-2.9792,-2.9792,-2.9792,-2.9792,-2.9792,-2.9792,-2.9792,-2.9792,-2.9792,-2.9792,-2.9792,-2.9792,-3.0216,-3.1044,-3.0216,-3.0279,-3.118,-3.118,-3.1669,0.0,0.0,0.0,0.0,0.0,0.0,-2.6533,-2.4909,0.0,0.0,0.0,0.0,0.0,0.0,0.0,0.0,0.0,0.0,0.0,0.0,0.0,0.0,0.0,0.0,0.0,-1.6184,-1.739,-1.865,-2.1643,-2.4186,-2.6,-2.6371,-2.6533,-2.6533,-2.6533,-2.6533,-2.6533,-2.6904,-2.7118,-2.713,-2.6664,-2.6526,-2.6694,-2.5823,-2.5139,-2.4723,-2.5753,-2.5915,-2.5602,-2.7352,-2.8518,-2.9204,-2.9649,-2.9624,-2.9534,-2.9702,-2.9792,-2.9792,-2.9792,-2.9792,-2.9792,-2.9792,-2.9792,-2.9792,-2.9792,-2.9792,-2.9792,-2.9792,-2.9792,-2.9792,-2.9792,-2.9792,-2.9792,-2.9792,-2.9792,-2.9792,-2.9792,-2.9792,-2.9792,-2.9792,-2.9792,-2.9792,-2.9792,-2.9028,-2.8445,-2.8409,-2.8464,-2.8397,-2.8431,-2.9245,-2.9792,-2.9792,-2.9792,-2.9792,-2.9792,-2.9792,-2.9792,-2.9792,-2.9792,-2.9792,-2.9792,-2.9792,-2.9792,-2.9792,-2.9792,-2.9856,-3.0075,-2.9856,-3.0279,-3.118,-3.118,-3.1669,0.0,0.0,0.0,-2.6239,0.0,0.0,0.0,0.0,0.0,0.0,0.0,0.0,0.0,0.0,0.0,0.0,0.0,0.0,0.0,0.0,0.0,0.0,0.0,0.0,0.0,-1.8096,-1.9725,-2.2129,-2.3718,-2.5333,-2.698,-2.7039,-2.7256,-2.7619,-2.7619,-2.7511,-2.7281,-2.7586,-2.7725,-2.7695,-2.7164,-2.7091,-2.7233,-2.653,-2.5979,-2.5711,-2.6827,-2.6955,-2.6563,-2.7672,-2.8736,-2.9792,-2.9792,-2.9792,-2.9792,-2.9792,-2.9792,-2.9792,-2.9792,-2.9792,-2.9792,-2.9792,-2.9792,-2.9792,-2.9792,-2.9792,-2.9792,-2.9792,-2.9792,-2.9792,-2.9792,-2.9792,-2.9792,-2.9792,-2.9792,-2.9792,-2.9792,-2.9792,-2.9792,-2.9792,-2.9792,-2.9792,-2.9792,-2.9365,-2.8954,-2.8938,-2.8983,-2.8954,-2.8926,-2.9422,-2.9792,-2.9792,-2.9792,-2.9792,-2.9792,-2.9792,-2.9792,-2.9792,-2.9792,-2.9792,-2.9792,-2.9792,-2.9792,-2.9792,-2.9792,-2.9998,-3.0482,-3.0482,-3.0758,-3.118,-3.118,-3.196,0.0,0.0,0.0,0.0,0.0,-2.6934,0.0,0.0,0.0,0.0,0.0,0.0,0.0,0.0,0.0,0.0,0.0,0.0,0.0,0.0,0.0,0.0,0.0,0.0,0.0,-1.9519,-2.1326,-2.3985,-2.4737,-2.5766,-2.7607,-2.779,-2.8049,-2.8705,-2.868,-2.8518,-2.8099,-2.8192,-2.823,-2.826,-2.794,-2.7746,-2.7801,-2.7347,-2.699,-2.6841,-2.7964,-2.83,-2.8065,-2.814,-2.8614,-2.9456,-2.9456,-2.9624,-2.9792,-2.9792,-2.9792,-2.9792,-2.9792,-2.9792,-2.9792,-2.9792,-2.9792,-2.9792,-2.9792,-2.9792,-2.9792,-2.9792,-2.9792,-2.9792,-2.9534,-2.9456,-2.9456,-2.9456,-2.9456,-2.9534,-2.9792,-2.9792,-2.9792,-2.9792,-2.9792,-2.9792,-2.9792,-2.9792,-2.9792,-2.9792,-2.9792,-2.9792,-2.9792,-2.9792,-2.9792,-2.9792,-2.9792,-2.9792,-2.9792,-2.9792,-2.9792,-2.9792,-2.9792,-2.9792,-2.9792,-2.9998,-3.0075,-3.0075,-3.0216,-3.0696,-3.1462,-3.1462,-3.1502,-3.1482,-3.1663,-3.2533,0.0,0.0,0.0,0.0,-2.5923,0.0,0.0,0.0,0.0,0.0,0.0,0.0,0.0,0.0,0.0,0.0,0.0,0.0,0.0,0.0,0.0,0.0,0.0,0.0,0.0,0.0,-2.0402,-2.1347,-2.3626,-2.5916,-2.7912,-2.8411,-2.8632,-2.8724,-2.8682,-2.852,-2.8114,-2.8587,-2.8812,-2.8837,-2.9276,-2.9551,-2.9524,-2.9431,-2.8909,-2.7999,-2.9123,-2.9049,-2.8142,-2.8124,-2.8187,-2.8267,-2.8267,-2.8937,-2.9792,-2.9792,-2.9792,-2.9792,-2.9792,-2.9792,-2.9792,-2.9792,-2.9792,-2.9792,-2.9792,-2.9792,-2.9792,-2.9792,-2.9792,-2.9534,-2.8518,-2.8267,-2.8267,-2.8267,-2.8267,-2.8597,-2.9611,-2.9792,-2.9792,-2.9792,-2.9792,-2.9792,-2.9792,-2.9792,-2.9792,-2.9792,-2.9792,-2.9792,-2.9792,-2.9792,-2.9792,-2.9792,-2.9792,-2.9792,-2.9792,-2.9792,-2.9792,-2.9792,-2.9792,-2.9792,-2.9792,-3.062,-3.1044,-3.1044,-3.1888,-3.2321,-3.2464,-3.2464,-3.2458,-3.2467,-3.3325,-3.3832,0.0,0.0,0.0,0.0,0.0,0.0,-2.4778,0.0,-2.3542,0.0,0.0,0.0,0.0,0.0,0.0,0.0,0.0,0.0,0.0,0.0,0.0,0.0,0.0,0.0,0.0,0.0,0.0,0.0,0.0,-2.5859,-2.8905,-2.8611,-2.863,-2.9327,-2.9315,-2.9277,-2.9074,-2.9288,-2.9428,-2.9428,-2.9679,-2.9792,-2.9792,-2.9792,-2.9155,-2.813,-2.9282,-2.8778,-2.7182,-2.7163,-2.7209,-2.7209,-2.7209,-2.7855,-2.8858,-2.9546,-2.9792,-2.9792,-2.9792,-2.9792,-2.9792,-2.9792,-2.9792,-2.9792,-2.9792,-2.9365,-2.8767,-2.8767,-2.8371,-2.7799,-2.729,-2.7209,-2.7371,-2.7924,-2.8096,-2.8426,-2.9534,-2.9792,-2.9792,-2.9792,-2.9792,-2.9792,-2.9792,-2.9792,-2.9792,-2.9792,-2.9792,-2.9792,-2.9792,-2.9792,-2.9792,-2.9792,-2.9792,-2.9792,-2.9792,-2.9792,-2.9792,-2.9792,-2.9792,-2.9792,-2.9792,-3.0663,-3.1202,-3.1221,-3.2099,-3.2861,-3.3382,-3.3382,-3.3703,-3.4272,-3.4103,-3.4283,-2.7205,0.0,0.0,0.0,0.0,0.0,0.0,0.0,0.0,0.0,0.0,0.0,0.0,0.0,0.0,0.0,0.0,0.0,0.0,0.0,0.0,0.0,0.0,0.0,0.0,0.0,0.0,0.0,0.0,0.0,-2.9012,-2.8539,-2.8597,-2.9792,-2.9792,-2.9792,-2.9792,-2.9792,-2.9792,-2.9792,-2.9792,-2.9792,-2.9792,-2.9792,-2.9372,-2.8611,-2.9409,-2.8929,-2.7357,-2.7059,-2.6964,-2.6964,-2.6964,-2.7441,-2.8255,-2.9365,-2.9792,-2.9792,-2.9792,-2.9792,-2.9792,-2.9792,-2.9792,-2.9714,-2.9443,-2.8767,-2.8016,-2.7763,-2.7128,-2.64,-2.6141,-2.6058,-2.6295,-2.736,-2.7683,-2.8028,-2.9456,-2.9792,-2.9792,-2.9792,-2.9792,-2.9792,-2.9792,-2.9792,-2.9792,-2.9792,-2.9792,-2.9792,-2.9792,-2.9792,-2.9792,-2.9792,-2.9792,-2.9792,-2.9792,-2.9792,-2.9854,-3.0005,-2.988,-2.9867,-3.0018,-3.1034,-3.1567,-3.1608,-3.2765,-3.3742,-3.4433,-3.4433,-3.4859,-3.5738,-3.4861,-3.4839,0.0,0.0,0.0,-2.5312,0.0,0.0,0.0,0.0,-2.2157,0.0,0.0,0.0,0.0,0.0,0.0,0.0,0.0,0.0,0.0,0.0,0.0,0.0,0.0,0.0,0.0,0.0,0.0,0.0,0.0,0.0,-2.7566,-2.7916,-2.8597,-2.9792,-2.9792,-2.9792,-2.9792,-2.9792,-2.9792,-2.9792,-2.9792,-2.9792,-2.9792,-2.9792,-2.9779,-2.9767,-2.9779,-2.9792,-2.9611,-2.8518,-2.8016,-2.8016,-2.8016,-2.8084,-2.8255,-2.9365,-2.9792,-2.9792,-2.9792,-2.9792,-2.9792,-2.9792,-2.9792,-2.9611,-2.8518,-2.8096,-2.7844,-2.6883,-2.6565,-2.6224,-2.5126,-2.4872,-2.5126,-2.6307,-2.6554,-2.7139,-2.93,-2.9792,-2.9792,-2.9792,-2.9792,-2.9792,-2.9792,-2.9792,-2.9792,-2.9792,-2.9792,-2.9792,-2.9792,-2.9792,-2.9792,-2.9792,-2.9792,-2.9792,-2.9792,-2.9792,-3.0018,-3.0557,-3.0093,-3.003,-3.057,-3.187,-3.2544,-3.2554,-3.4433,-3.5439,-3.5439,-3.5439,-3.5813,-3.6447,-3.5783,-3.5439,0.0,0.0,-2.6446,-2.6086,0.0,0.0,0.0,0.0,0.0,0.0,0.0,0.0,0.0,0.0,0.0,0.0,0.0,0.0,0.0,0.0,0.0,0.0,0.0,0.0,0.0,0.0,0.0,0.0,0.0,0.0,0.0,-2.8503,-2.9241,-2.9779,-3.0419,-3.0419,-2.9792,-2.9792,-2.9792,-2.9792,-2.9792,-2.9792,-2.9792,-2.9792,-2.9792,-2.9792,-2.9792,-2.9365,-2.8688,-2.8255,-2.7683,-2.7128,-2.7844,-2.8096,-2.8255,-2.9365,-2.9792,-2.9792,-2.9792,-2.9792,-2.9792,-2.9792,-2.9792,-2.9714,-2.9365,-2.8199,-2.6964,-2.6637,-2.5389,-2.4307,-2.4702,-2.4787,-2.5284,-2.7116,-2.7533,-2.7947,-2.9456,-2.9792,-2.9792,-2.9792,-2.9792,-2.9792,-2.9792,-2.9792,-2.9792,-2.9792,-2.9792,-2.9792,-2.9792,-2.9792,-2.9792,-2.9792,-2.9792,-2.9792,-2.9792,-2.9792,-2.988,-3.0055,-3.0261,-3.0219,-3.008,-3.2051,-3.2983,-3.2631,-3.4494,-3.5504,-3.5504,-3.5919,-3.6261,-3.647,-3.6701,-3.6768,-2.6533,-2.6314,0.0,-2.6114,-2.6015,0.0,-2.4728,0.0,0.0,0.0,0.0,0.0,0.0,0.0,0.0,0.0,0.0,0.0,0.0,0.0,0.0,0.0,0.0,0.0,0.0,0.0,-2.0895,-2.0592,0.0,0.0,0.0,0.0,-2.9466,-3.0758,-3.0696,-3.0532,-3.0279,-2.9985,-2.9792,-2.9792,-2.9792,-2.9792,-2.9792,-2.9792,-2.9792,-2.9792,-2.9792,-2.9365,-2.8688,-2.8688,-2.8279,-2.7718,-2.8438,-2.8688,-2.8767,-2.9534,-2.9792,-2.9792,-2.9792,-2.9792,-2.9792,-2.9792,-2.9792,-2.9677,-2.9282,-2.8183,-2.6964,-2.6637,-2.5484,-2.4478,-2.521,-2.5378,-2.587,-2.7671,-2.8096,-2.8426,-2.9534,-2.9792,-2.9792,-2.9792,-2.9792,-2.9792,-2.9792,-2.9792,-2.9792,-2.9792,-2.9792,-2.9792,-2.9792,-2.9792,-2.9792,-2.9792,-2.9792,-2.9792,-2.9792,-2.9792,-2.988,-3.0068,-3.0448,-3.0418,-3.0105,-3.2236,-3.3152,-3.2601,-3.4522,-3.5504,-3.5504,-3.5904,-3.6403,-3.6821,-3.7,-3.7321]},{"header":{"parameterUnit":"m.s-1","parameterCategory":1,"la1":30.6,"la2":29.2853,"lo1":-89.7004,"lo2":-87.6739,"dy":0.0162,"dx":0.0183,"nx":112,"ny":82,"refTime":"2025-07-31T00:00:00:Z","depth":0,"parameterNumber":3,"parameterNumberName":"V-component_of_WINDS"},"data":[0.0,0.0,0.0,0.0,0.0,0.0,0.0,0.0,0.0,0.0,0.0,0.0,0.0,0.0,0.0,0.0,0.0,0.0,0.0,0.0,0.0,0.0,0.0,0.0,0.0,0.0,0.0,0.0,0.0,0.0,0.0,0.0,0.0,0.0,0.0,0.0,0.0,0.0,0.0,0.0,0.0,0.0,0.0,0.0,0.0,0.0,0.0,0.0,0.0,0.0,0.0,0.0,0.0,0.0,0.0,0.0,0.0,0.0,0.0,0.0,0.0,0.0,0.0,0.0,0.0,0.0,0.0,0.0,0.0,0.0,0.0,0.0,0.0,0.0,0.0,0.0,0.0,0.0,0.0,0.0,0.0,0.0,0.0,0.0,0.0,0.0,0.0,0.0,0.0,0.0,-0.542,-0.4654,-0.6831,-0.8825,-1.0194,-1.1458,-1.288,-1.4435,0.0,0.0,0.0,0.0,0.0,0.0,0.0,0.0,0.0,0.0,0.0,0.0,0.0,0.0,0.0,0.0,0.0,0.0,0.0,0.0,0.0,0.0,0.0,0.0,0.0,0.0,0.0,0.0,0.0,0.0,0.0,0.0,0.0,0.0,0.0,0.0,0.0,0.0,0.0,0.0,0.0,0.0,0.0,0.0,0.0,0.0,0.0,0.0,0.0,0.0,0.0,0.0,0.0,0.0,0.0,0.0,0.0,0.0,0.0,0.0,0.0,0.0,0.0,0.0,0.0,0.0,0.0,0.0,0.0,0.0,0.0,0.0,0.0,0.0,0.0,0.0,0.0,0.0,0.0,0.0,0.0,0.0,0.0,0.0,0.0,0.0,0.0,0.0,0.0,0.0,0.0,0.0,0.0,0.0,0.0,0.0,0.0,0.0,0.0,0.0,0.0,0.0,0.0,0.0,-0.6979,-0.7384,-0.8773,-1.0194,-1.1458,-1.2813,-1.4378,-1.6103,0.0,0.0,0.0,0.0,0.0,0.0,0.0,0.0,0.0,0.0,0.0,0.0,0.0,0.0,0.0,0.0,0.0,0.0,0.0,0.0,0.0,0.0,0.0,0.0,0.0,0.0,0.0,0.0,0.0,0.0,0.0,0.0,0.0,0.0,0.0,0.0,0.0,0.0,0.0,0.0,0.0,0.0,0.0,0.0,0.0,0.0,0.0,0.0,0.0,0.0,0.0,0.0,0.0,0.0,0.0,0.0,0.0,0.0,0.0,0.0,0.0,0.0,0.0,0.0,0.0,0.0,0.0,0.0,0.0,0.0,0.0,0.0,0.0,0.0,0.0,0.0,0.0,0.0,0.0,0.0,0.0,0.0,0.0,0.0,0.0,0.0,0.0,0.0,0.0,0.0,0.0,0.0,0.0,0.0,0.0,0.0,0.0,0.0,0.0,0.0,0.0,0.0,0.0,-0.6728,-0.6719,-0.7885,-0.8499,-0.9964,-1.2375,-1.3968,-1.5584,-1.7327,-1.7722,0.0,0.0,0.0,0.0,0.0,0.0,0.0,0.0,0.0,0.0,0.0,0.0,0.0,0.0,0.0,0.0,0.0,0.0,0.0,0.0,0.0,0.0,0.0,0.0,0.0,0.0,0.0,0.0,0.0,0.0,0.0,0.0,0.0,0.0,0.0,0.0,0.0,0.0,0.0,0.0,0.0,0.0,0.0,0.0,0.0,0.0,0.0,0.0,0.0,0.0,0.0,0.0,0.0,0.0,0.0,0.0,0.0,0.0,0.0,0.0,0.0,0.0,0.0,0.0,0.0,0.0,0.0,0.0,0.0,0.0,0.0,0.0,0.0,0.0,0.0,0.0,0.0,0.0,0.0,0.0,0.0,0.0,0.0,0.0,0.0,0.0,0.0,0.0,0.0,0.0,0.0,0.0,0.0,0.0,0.0,0.0,0.0,0.0,0.0,0.0,0.0,0.0,-0.7112,-0.7312,-0.7977,-0.8765,-1.0214,-1.27,-1.4829,-1.6795,-1.8535,-1.8551,0.0,0.0,0.0,0.0,0.0,0.0,0.0,0.0,0.0,0.0,0.0,0.0,0.0,0.0,0.0,0.0,0.0,0.0,0.0,0.0,0.0,0.0,0.0,0.0,0.0,0.0,0.0,0.0,0.0,0.0,0.0,0.0,0.0,0.0,0.0,0.0,0.0,0.0,0.0,0.0,0.0,0.0,0.0,0.0,0.0,0.0,0.0,0.0,0.0,0.0,0.0,0.0,0.0,0.0,0.0,0.0,0.0,0.0,0.0,0.0,0.0,0.0,0.0,0.0,0.0,0.0,0.0,0.0,0.0,0.0,0.0,0.0,0.0,0.0,0.0,0.0,0.0,0.0,0.0,0.0,0.0,0.0,0.0,0.0,0.0,0.0,0.0,0.0,0.0,0.0,0.0,0.0,0.0,0.0,0.0,0.0,0.0,0.0,0.0,0.0,0.0,0.0,-0.94,-1.0391,-0.8238,-1.0891,-1.2581,-1.202,-1.5279,-1.7958,-1.9697,-1.8709,0.0,0.0,0.0,0.0,0.0,0.0,0.0,0.0,0.0,0.0,0.0,0.0,0.0,0.0,0.0,0.0,0.0,0.0,0.0,0.0,0.0,0.0,0.0,0.0,0.0,0.0,0.0,0.0,0.0,0.0,0.0,0.0,0.0,0.0,0.0,0.0,0.0,0.0,0.0,0.0,0.0,0.0,0.0,0.0,0.0,0.0,0.0,0.0,0.0,0.0,0.0,0.0,0.0,0.0,0.0,0.0,0.0,0.0,0.0,0.0,0.0,0.0,0.0,0.0,0.0,0.0,0.0,0.0,0.0,0.0,0.0,0.0,0.0,0.0,0.0,0.0,0.0,0.0,0.0,0.0,0.0,0.0,0.0,0.0,0.0,0.0,0.0,0.0,0.0,0.0,0.0,0.0,0.0,0.0,0.0,0.0,0.0,0.0,0.0,0.0,0.0,0.0,-1.06,-1.1447,0.0,-1.19,-1.2959,-1.4251,-1.8438,-2.0386,-1.8924,0.0,0.0,0.0,0.0,0.0,0.0,0.0,0.0,0.0,0.0,0.0,0.0,0.0,0.0,0.0,0.0,0.0,0.0,0.0,0.0,0.0,0.0,0.0,0.0,0.0,0.0,0.0,0.0,0.0,0.0,0.0,0.0,0.0,0.0,0.0,0.0,0.0,0.0,0.0,0.0,0.0,0.0,0.0,0.0,0.0,0.0,0.0,0.0,0.0,0.0,0.0,0.0,0.0,0.0,0.0,0.0,0.0,0.0,0.0,0.0,0.0,0.0,0.0,0.0,0.0,0.0,0.0,0.0,0.0,0.0,0.0,0.0,0.0,0.0,0.0,0.0,0.0,0.0,0.0,0.0,0.0,0.0,0.0,0.0,0.0,0.0,0.0,0.0,0.0,0.0,0.0,0.0,0.0,0.0,0.0,0.0,0.0,0.0,0.0,0.0,0.0,0.0,-1.1895,-1.273,-1.3572,0.0,-1.3454,-1.449,-1.7817,-2.1158,-2.2179,-1.9925,0.0,0.0,0.0,0.0,0.0,0.0,0.0,0.0,0.0,0.0,0.0,0.0,0.0,0.0,0.0,0.0,0.0,0.0,0.0,0.0,0.0,0.0,0.0,0.0,0.0,0.0,0.0,0.0,0.0,0.0,0.0,0.0,0.0,0.0,0.0,0.0,0.0,0.0,0.0,0.0,0.0,0.0,0.0,0.0,0.0,0.0,0.0,0.0,0.0,0.0,0.0,0.0,0.0,0.0,0.0,0.0,0.0,0.0,0.0,0.0,0.0,0.0,0.0,0.0,0.0,0.0,0.0,0.0,0.0,0.0,0.0,0.0,0.0,0.0,0.0,0.0,0.0,0.0,0.0,0.0,0.0,0.0,0.0,0.0,0.0,0.0,0.0,0.0,0.0,0.0,0.0,0.0,0.0,0.0,0.0,0.0,0.0,0.0,0.0,0.0,0.0,0.0,-1.4219,-1.6231,-1.7196,-1.5913,-1.5828,-1.7848,-2.2688,-2.3096,-2.3053,0.0,0.0,0.0,0.0,0.0,0.0,0.0,0.0,0.0,0.0,0.0,0.0,0.0,0.0,0.0,0.0,0.0,0.0,0.0,0.0,0.0,0.0,0.0,0.0,0.0,0.0,0.0,0.0,0.0,0.0,0.0,0.0,0.0,0.0,0.0,0.0,0.0,0.0,0.0,0.0,0.0,0.0,0.0,0.0,0.0,0.0,0.0,0.0,0.0,0.0,0.0,0.0,0.0,0.0,0.0,0.0,0.0,0.0,0.0,0.0,0.0,0.0,0.0,0.0,0.0,0.0,0.0,0.0,0.0,0.0,0.0,0.0,0.0,0.0,0.0,0.0,0.0,0.0,0.0,0.0,0.0,0.0,0.0,0.0,0.0,0.0,0.0,0.0,0.0,0.0,0.0,0.0,0.0,0.0,0.0,0.0,0.0,0.0,0.0,0.0,0.0,0.0,0.0,-1.6456,-1.7898,-1.8848,-1.8456,-1.8945,-1.9822,-2.1302,-2.1889,-2.1997,-2.1372,0.0,0.0,0.0,0.0,0.0,0.0,0.0,0.0,0.0,0.0,0.0,0.0,0.0,0.0,0.0,0.0,0.0,0.0,0.0,0.0,0.0,0.0,0.0,0.0,0.0,0.0,0.0,0.0,0.0,0.0,0.0,0.0,0.0,0.0,0.0,0.0,0.0,0.0,0.0,0.0,0.0,0.0,0.0,0.0,0.0,0.0,0.0,0.0,0.0,0.0,0.0,0.0,0.0,0.0,0.0,0.0,0.0,0.0,0.0,0.0,0.0,0.0,0.0,0.0,0.0,0.0,0.0,0.0,0.0,0.0,0.0,0.0,0.0,0.0,0.0,0.0,0.0,0.0,0.0,0.0,0.0,0.0,0.0,0.0,0.0,0.0,0.0,0.0,0.0,0.0,0.0,0.0,0.0,0.0,0.0,0.0,0.0,0.0,0.0,0.0,0.0,0.0,-1.7929,-1.9204,-2.0387,-2.0891,-2.1632,-2.2169,-2.2121,-2.2266,-2.1856,-2.07,0.0,0.0,0.0,0.0,0.0,0.0,0.0,0.0,0.0,0.0,0.0,0.0,0.0,0.0,0.0,0.0,0.0,0.0,0.0,0.0,0.0,0.0,0.0,0.0,0.0,0.0,0.0,0.0,0.0,0.0,0.0,0.0,0.0,0.0,0.0,0.0,0.0,0.0,0.0,0.0,0.0,0.0,0.0,0.0,0.0,0.0,0.0,0.0,0.0,0.0,0.0,0.0,0.0,0.0,0.0,0.0,0.0,0.0,0.0,0.0,0.0,0.0,0.0,0.0,0.0,0.0,0.0,0.0,0.0,0.0,0.0,0.0,0.0,0.0,0.0,0.0,0.0,0.0,0.0,0.0,0.0,0.0,0.0,0.0,0.0,0.0,0.0,0.0,0.0,0.0,0.0,0.0,0.0,0.0,0.0,0.0,0.0,0.0,0.0,0.0,0.0,0.0,-1.9158,-2.0583,-2.2054,-2.3103,-2.3959,-2.4402,-2.4341,-2.3674,-2.2501,-2.0984,0.0,0.0,0.0,0.0,0.0,0.0,0.0,0.0,0.0,0.0,0.0,0.0,0.0,0.0,0.0,0.0,0.0,0.0,0.0,0.0,0.0,0.0,0.0,0.0,0.0,0.0,0.0,0.0,0.0,0.0,0.0,0.0,0.0,0.0,0.0,0.0,0.0,0.0,0.0,0.0,0.0,0.0,0.0,0.0,0.0,0.0,0.0,0.0,0.0,0.0,0.0,0.0,0.0,0.0,0.0,0.0,0.0,0.0,0.0,0.0,-1.9902,0.0,0.0,0.0,0.0,0.0,0.0,0.0,0.0,0.0,0.0,0.0,0.0,0.0,0.0,0.0,0.0,0.0,0.0,0.0,0.0,0.0,0.0,0.0,0.0,0.0,0.0,0.0,0.0,0.0,0.0,0.0,0.0,0.0,0.0,0.0,0.0,0.0,0.0,0.0,0.0,0.0,-2.1927,-2.3196,-2.4281,-2.4984,-2.5212,-2.5154,-2.469,-2.426,-2.3666,-2.2944,-2.2234,0.0,0.0,0.0,0.0,0.0,0.0,0.0,0.0,0.0,0.0,0.0,0.0,0.0,0.0,0.0,0.0,0.0,0.0,0.0,0.0,0.0,0.0,0.0,0.0,0.0,0.0,0.0,0.0,0.0,0.0,0.0,0.0,0.0,0.0,0.0,0.0,0.0,0.0,0.0,0.0,0.0,0.0,0.0,0.0,0.0,0.0,0.0,0.0,0.0,0.0,0.0,0.0,0.0,0.0,0.0,0.0,0.0,0.0,0.0,0.0,-2.0547,0.0,0.0,0.0,0.0,0.0,0.0,0.0,0.0,0.0,0.0,0.0,0.0,0.0,0.0,0.0,0.0,0.0,0.0,0.0,0.0,0.0,0.0,0.0,0.0,0.0,0.0,0.0,0.0,0.0,0.0,0.0,0.0,0.0,0.0,0.0,0.0,0.0,0.0,0.0,0.0,-2.358,-2.4545,-2.5502,-2.6302,-2.5899,-2.5673,-2.608,-2.5651,-2.5175,-2.4966,-2.3881,0.0,0.0,0.0,0.0,0.0,0.0,0.0,0.0,0.0,0.0,0.0,0.0,0.0,0.0,0.0,0.0,0.0,0.0,0.0,0.0,0.0,0.0,0.0,0.0,0.0,0.0,0.0,0.0,0.0,0.0,0.0,0.0,0.0,0.0,0.0,0.0,0.0,0.0,0.0,0.0,0.0,0.0,0.0,0.0,0.0,0.0,0.0,0.0,0.0,0.0,0.0,0.0,0.0,-2.1894,-2.21,-2.2193,-2.3258,-2.3752,-2.3657,-2.2614,-2.223,-2.2462,0.0,0.0,0.0,0.0,0.0,0.0,0.0,0.0,0.0,0.0,0.0,0.0,0.0,0.0,0.0,0.0,0.0,0.0,0.0,0.0,0.0,0.0,0.0,0.0,0.0,-2.613,-2.6242,0.0,0.0,0.0,0.0,0.0,0.0,0.0,0.0,0.0,0.0,0.0,0.0,-2.4945,-2.5542,-2.6335,-2.7459,-2.6474,-2.6251,-2.7314,-2.6831,-2.6482,-2.6482,-2.4956,-2.3605,0.0,0.0,0.0,0.0,0.0,0.0,0.0,0.0,0.0,0.0,0.0,0.0,0.0,0.0,0.0,0.0,0.0,0.0,0.0,0.0,0.0,0.0,0.0,0.0,0.0,0.0,0.0,0.0,0.0,0.0,0.0,0.0,-1.2525,-1.1429,0.0,0.0,0.0,0.0,0.0,0.0,0.0,0.0,0.0,0.0,0.0,0.0,0.0,-2.1133,-2.1621,-2.2109,-2.2344,-2.2353,-2.2773,-2.2969,-2.2969,-2.4124,-2.4594,-2.4697,-2.5491,0.0,-2.4803,-2.516,0.0,0.0,0.0,0.0,0.0,0.0,0.0,0.0,0.0,0.0,0.0,0.0,0.0,0.0,0.0,0.0,0.0,0.0,0.0,0.0,0.0,0.0,-2.7806,-2.7747,-2.853,-2.9217,0.0,-2.6925,-2.4887,-2.4442,-2.4931,0.0,0.0,0.0,0.0,0.0,0.0,0.0,-2.6925,-2.721,-2.7649,-2.8448,-2.7783,-2.7155,-2.6697,-2.6553,-2.6527,-2.6527,-2.6289,-2.6064,-2.5852,-2.5937,0.0,0.0,0.0,0.0,0.0,0.0,0.0,0.0,0.0,0.0,0.0,0.0,0.0,0.0,0.0,0.0,0.0,0.0,0.0,0.0,0.0,0.0,0.0,0.0,0.0,0.0,0.0,0.0,0.0,-1.378,-1.2319,-1.1601,-1.2401,-1.3443,0.0,0.0,0.0,0.0,0.0,0.0,0.0,0.0,0.0,-2.0581,-2.1283,-2.1807,-2.2236,-2.2656,-2.2861,-2.2861,-2.3057,-2.3398,-2.4092,-2.5249,-2.6103,-2.6699,-2.7844,-2.8119,-2.7765,-2.6956,-2.678,-2.7007,0.0,0.0,0.0,0.0,-2.6952,-2.6959,-2.6827,-2.7262,0.0,-2.7629,0.0,0.0,0.0,0.0,0.0,0.0,0.0,0.0,0.0,0.0,-2.9028,-2.9028,-2.9456,-2.9792,-2.9792,-2.9162,-2.8286,0.0,-2.7755,-2.8045,-2.6822,0.0,0.0,0.0,0.0,-2.8197,-2.789,-2.7852,-2.7916,-2.794,-2.7372,-2.6836,-2.6546,-2.6533,-2.6533,-2.6533,-2.6533,-2.6533,-2.6533,-2.6873,-2.6939,0.0,0.0,0.0,0.0,0.0,0.0,0.0,0.0,0.0,0.0,0.0,0.0,0.0,0.0,0.0,0.0,0.0,0.0,0.0,0.0,0.0,0.0,0.0,0.0,0.0,0.0,0.0,0.0,-1.2989,-1.2287,-1.1854,-1.29,-1.4085,0.0,0.0,0.0,0.0,0.0,0.0,-1.9761,-2.0245,-2.0902,-2.1491,-2.2211,-2.2755,-2.3073,-2.3639,-2.3973,-2.3983,-2.3981,-2.4445,-2.5274,-2.6378,-2.7322,-2.8138,-2.9295,-2.9792,-2.9677,-2.8419,-2.7927,-2.7968,-2.8375,-2.8536,-2.8512,-2.8102,-2.8415,-2.9049,-2.8712,-2.9106,-2.9729,-2.9289,0.0,-2.8648,-2.8399,0.0,0.0,0.0,0.0,-3.0532,-3.0253,-3.0011,-2.9792,-2.9792,-2.9792,-2.9869,-3.0139,-3.0696,-3.0839,0.0,-3.0281,-3.0659,-2.952,0.0,0.0,0.0,0.0,-2.9745,-2.8495,-2.8084,-2.7843,-2.7427,-2.6873,-2.6533,-2.6533,-2.6533,-2.6533,-2.6533,-2.6533,-2.6533,-2.6533,-2.7056,-2.7221,-2.7079,0.0,0.0,0.0,0.0,0.0,0.0,0.0,0.0,0.0,0.0,0.0,0.0,0.0,0.0,0.0,0.0,0.0,0.0,0.0,0.0,0.0,0.0,0.0,0.0,0.0,0.0,0.0,0.0,0.0,-1.1933,-1.3763,0.0,0.0,0.0,0.0,-1.912,-1.9617,-2.0206,-2.1028,-2.1874,-2.2419,-2.2451,-2.3914,-2.465,-2.4671,-2.5797,-2.6318,-2.6318,-2.6324,-2.6399,-2.6465,-2.7545,-2.8023,-2.8179,-2.9294,-2.9792,-2.9792,-2.9677,-2.9664,-2.9664,-2.9716,-2.9704,-2.9716,-2.9651,-2.9741,-2.9754,-2.9702,-2.9792,-2.9792,-2.9754,-2.9958,-3.0375,-3.0847,-3.1332,0.0,0.0,-3.1847,-3.114,-3.1093,-3.0482,-2.9792,-2.9792,-2.9792,-3.0075,-3.097,-3.118,-3.1167,0.0,-3.1847,-3.2288,-3.1709,0.0,-3.1446,-3.0485,-2.9905,-2.9347,-2.8887,-2.8119,-2.7645,-2.7619,-2.6898,-2.6533,-2.6533,-2.6533,-2.6533,-2.6533,-2.6533,-2.6533,-2.6533,-2.6559,-2.7183,-2.8544,-2.6519,0.0,0.0,0.0,0.0,0.0,0.0,0.0,0.0,0.0,0.0,0.0,0.0,0.0,0.0,0.0,0.0,0.0,0.0,0.0,0.0,0.0,0.0,0.0,0.0,0.0,0.0,0.0,0.0,-1.3237,-1.4246,0.0,-1.6772,-1.775,-1.882,-2.0032,-2.0508,-2.1154,-2.1988,-2.2303,-2.2621,-2.292,-2.4129,-2.4787,-2.4787,-2.5975,-2.6483,-2.6483,-2.649,-2.683,-2.7515,-2.7953,-2.8497,-2.9245,-2.9639,-2.9792,-2.9792,-2.9792,-2.9792,-2.9792,-2.9792,-2.9792,-2.9792,-2.9792,-2.9792,-2.9792,-2.9792,-3.0216,-3.0797,-3.1431,-3.1723,-3.1965,-3.2744,-3.3129,-3.3249,-3.3462,-3.3241,-3.2749,-3.1536,-3.1402,-3.1476,-3.0833,-3.1193,-3.1696,-3.2033,-3.2593,-3.3031,-3.3031,-3.3241,-3.3334,-3.2738,-3.3518,-3.3729,-3.2356,-3.1475,-3.0562,-2.9438,-2.8176,-2.7264,-2.6898,-2.6659,-2.6533,-2.6533,-2.6533,-2.6533,-2.6533,-2.6533,-2.6533,-2.6533,-2.6804,-2.7119,-2.7316,-2.6823,-2.6289,0.0,0.0,0.0,0.0,0.0,0.0,0.0,0.0,0.0,0.0,0.0,0.0,0.0,0.0,0.0,0.0,0.0,0.0,0.0,0.0,0.0,0.0,0.0,0.0,0.0,0.0,-1.4429,-1.4497,-1.5328,-1.6419,-1.7991,-1.9062,-2.0236,-2.1494,-2.182,-2.233,-2.3261,-2.2921,-2.2979,-2.3627,-2.4372,-2.5199,-2.5942,-2.6625,-2.7209,-2.7637,-2.7622,-2.8004,-2.865,-2.8633,-2.9118,-2.9792,-2.9792,-2.9792,-2.9792,-2.9792,-2.9792,-2.9792,-2.9792,-2.9792,-2.9792,-2.9792,-2.9792,-2.9869,-3.0139,-3.0908,-3.1756,-3.2386,-3.2803,-3.3227,-3.3812,-3.4215,-3.4543,-3.4543,-3.4245,-3.3739,-3.2464,-3.2393,-3.2464,-3.1815,-3.2177,-3.2678,-3.3031,-3.3533,-3.4095,-3.4461,-3.4543,-3.4412,-3.4017,-3.4786,-3.4845,-3.2939,-3.2022,-3.0842,-2.8974,-2.7742,-2.6866,-2.6571,-2.6533,-2.6533,-2.6533,-2.6533,-2.6533,-2.6533,-2.682,-2.6888,-2.6533,-2.7069,-2.7252,-2.681,-2.7092,-2.6917,-2.6163,0.0,0.0,0.0,0.0,0.0,0.0,0.0,0.0,0.0,0.0,0.0,0.0,0.0,0.0,0.0,0.0,0.0,0.0,0.0,0.0,0.0,0.0,0.0,-1.5462,-1.4993,-1.503,-1.5755,-1.7058,-1.8078,-1.8561,-2.0661,-2.2428,-2.3468,-2.3337,-2.367,-2.4728,-2.369,-2.3607,-2.4681,-2.4861,-2.5942,-2.8004,-2.8096,-2.8688,-2.9792,-2.9792,-2.9792,-2.9792,-2.9792,-2.9792,-2.9792,-2.9792,-2.9792,-2.9792,-2.9792,-2.9792,-2.9792,-2.9792,-2.9792,-2.9856,-2.9856,-2.9856,-2.9998,-3.097,-3.1888,-3.2623,-3.2681,-3.3322,-3.402,-3.4069,-3.4732,-3.5504,-3.5504,-3.4839,-3.4027,-3.4027,-3.338,-3.2664,-3.2664,-3.2664,-3.2961,-3.3876,-3.4027,-3.4312,-3.5294,-3.5504,-3.5504,-3.5504,-3.5489,-3.4604,-3.2206,-3.1306,0.0,-2.7685,-2.6873,-2.6533,-2.6533,-2.6533,-2.6533,-2.6533,-2.6533,-2.6533,-2.6521,-2.7535,-2.7615,-2.6615,-2.7377,-2.765,-2.7435,-2.7448,-2.7377,-2.7377,0.0,0.0,0.0,0.0,0.0,0.0,0.0,0.0,0.0,0.0,0.0,0.0,0.0,0.0,0.0,0.0,0.0,0.0,0.0,0.0,0.0,0.0,-1.7527,-1.5931,-1.5916,-1.6251,-1.6731,-1.7447,-1.86,-2.0468,-2.1444,-2.2573,-2.3916,-2.3317,-2.314,-2.3671,-2.3805,-2.3655,-2.3168,-2.5766,-2.7105,-2.6964,-2.853,-2.9456,-2.9792,-2.9792,-2.9792,-2.9792,-2.9792,-2.9792,-2.9792,-2.9792,-2.9792,-2.9792,-2.9792,-2.9792,-2.9792,-2.9792,-3.0203,-3.0833,-3.0833,-3.1267,-3.1974,-3.289,-3.338,-3.3739,-3.4455,-3.4876,-3.5096,-3.5065,-3.5305,-3.5504,-3.5504,-3.5294,-3.4905,-3.4177,-3.4327,-3.4558,-3.3808,-3.4192,-3.4773,-3.5052,-3.5067,-3.5133,-3.5439,-3.5504,-3.5504,-3.5504,-3.4587,-3.3572,-3.2906,-3.0812,0.0,-2.8415,-2.725,-2.6533,-2.6533,-2.6533,-2.6533,-2.6533,-2.6533,-2.6782,-2.7351,-2.7643,-2.8146,-2.8984,-2.9261,-2.9547,-2.9943,-2.9943,-2.9615,0.0,0.0,0.0,0.0,0.0,0.0,0.0,0.0,0.0,0.0,0.0,0.0,0.0,0.0,0.0,0.0,0.0,0.0,0.0,0.0,0.0,0.0,-1.9011,-1.8955,-1.7681,-1.7656,-1.7872,-1.8305,-1.886,-1.9965,-2.1794,-2.2558,-2.3479,-2.4747,-2.429,-2.3902,-2.3994,-2.3902,-2.3587,-2.2958,-2.524,-2.6634,-2.6898,-2.8342,-2.9365,-2.9792,-2.9792,-2.9792,-2.9792,-2.9792,-2.9792,0.0,-2.9792,-2.9628,-2.9441,-2.9806,-2.9995,0.0,0.0,0.0,0.0,0.0,-3.2393,-3.3255,-3.3825,-3.4303,-3.4691,-3.5294,-3.5504,-3.5504,-3.5504,-3.5504,-3.5504,-3.5504,-3.5504,-3.5359,-3.4758,-3.5067,-3.5359,-3.4758,-3.5067,-3.5504,-3.5504,-3.5504,-3.5504,-3.5504,-3.5504,0.0,-3.5469,-3.4206,-3.2875,-3.1801,-3.0301,-2.9026,-2.8331,-2.7881,-2.7537,-2.7537,-2.7229,-2.6973,-2.6973,-2.6929,0.0,0.0,0.0,-2.9586,-3.0861,-3.0211,0.0,0.0,0.0,0.0,0.0,0.0,0.0,0.0,-2.8561,-2.9035,0.0,0.0,0.0,0.0,0.0,0.0,0.0,0.0,0.0,0.0,0.0,0.0,0.0,0.0,0.0,0.0,-2.0366,-2.0449,-1.983,-1.9522,-1.9489,-1.9828,-2.0651,-2.1567,-2.2584,-2.3549,-2.455,-2.5709,-2.5497,-2.5111,-2.4814,0.0,0.0,0.0,0.0,-2.5403,-2.7406,-2.7908,-2.867,-2.9691,-2.9767,-2.9779,-2.9677,-2.9677,-2.9704,-2.9603,-2.9628,-2.9277,-2.8848,-2.9843,-3.0463,-3.0855,-3.1349,-3.1536,-3.1609,-3.2607,-3.3463,-3.4192,-3.4131,0.0,0.0,-3.5504,-3.5504,-3.5504,-3.5504,-3.5504,-3.5504,-3.5504,-3.5504,-3.5504,-3.5504,-3.5504,-3.5504,-3.5504,-3.5504,-3.5504,-3.5504,-3.5504,-3.5504,-3.5504,-3.5444,-3.5359,-3.5377,-3.4115,-3.2334,-2.9989,-2.9665,-2.9176,-2.7987,-2.8492,-2.9002,-2.9002,0.0,0.0,-2.7604,-2.7434,-2.7767,-2.8784,-3.0335,-3.1575,-3.237,-3.0998,-3.0498,-3.1131,-3.1151,-3.1393,-3.1823,-3.0711,-3.0011,-2.9779,-2.9264,-2.9378,0.0,0.0,0.0,0.0,0.0,0.0,0.0,0.0,0.0,0.0,0.0,0.0,0.0,0.0,0.0,-2.0357,-2.065,-2.0736,-2.0182,-2.0077,-1.9936,-1.9764,-2.0621,-2.1587,-2.2619,-2.3137,-2.4089,-2.5497,-2.4178,-2.3414,-2.3794,-2.3274,-2.2945,-2.2867,-2.5013,-2.63,-2.6728,-2.802,-2.8849,-2.9101,0.0,0.0,-2.9105,-2.9105,-2.8797,-2.8448,-2.8413,-2.8375,-2.8333,-2.9751,-3.155,-3.3293,-3.3407,-3.3449,-3.3602,-3.4558,-3.5067,-3.5213,-3.5177,-3.5323,-3.5504,-3.5504,-3.5504,-3.5504,-3.5504,-3.5504,0.0,-3.5504,-3.5504,-3.5504,-3.5504,-3.5504,-3.5504,-3.5504,-3.5504,-3.5504,-3.5504,-3.5504,-3.5504,-3.5504,-3.5055,-3.4625,-3.4499,-3.3465,-3.219,-3.0911,-2.8711,-2.7565,-2.8616,-2.8876,-2.9002,-2.9002,-2.8876,-2.8177,-2.6868,-2.7211,-2.8195,-2.969,-3.227,-3.376,-3.3813,-3.4174,-3.4398,-3.4545,-3.4567,-3.3819,-3.2434,-3.2205,-3.1267,-2.9792,-2.9679,-3.0101,0.0,0.0,0.0,0.0,0.0,0.0,0.0,0.0,0.0,0.0,0.0,-2.1115,-2.1082,0.0,-2.2321,-2.1955,-2.2057,-2.2034,-2.1511,-2.1327,-2.1082,-2.0421,-2.1191,-2.2183,-2.3269,-2.3559,-2.3996,-2.4833,-2.4026,-2.3261,-2.2785,-2.3057,-2.2918,-2.2384,-2.4871,-2.6208,-2.6158,-2.7693,-2.8511,-2.8511,-2.8812,-2.8787,-2.8484,-2.8524,-2.8588,-2.8726,-2.875,-2.882,-2.9094,-3.0678,-3.2273,-3.3847,-3.4508,-3.4758,-3.4839,-3.5279,-3.5504,-3.5504,-3.5504,-3.5504,-3.5504,-3.5504,-3.5504,-3.5504,-3.5504,-3.5504,-3.5504,-3.5504,-3.5504,-3.5504,-3.5504,-3.5504,-3.5504,-3.5504,-3.5504,-3.5504,-3.5504,-3.5504,-3.5504,-3.5504,-3.4951,-3.4262,-3.3604,-3.3045,-3.2126,-3.0657,-2.9119,-2.8457,-2.926,-2.9893,-3.0269,-3.0269,-3.0258,-2.9916,-2.9079,-2.919,-2.9937,-3.1188,-3.3644,-3.4966,-3.4842,-3.5295,-3.5184,-3.4589,-3.3922,-3.2849,-3.1189,-3.1235,-3.0709,-2.9792,-2.9792,-3.0075,0.0,0.0,0.0,0.0,0.0,0.0,0.0,0.0,-2.2725,-2.2648,-2.2669,-2.2923,-2.3463,-2.3555,-2.3506,-2.3273,-2.3247,-2.304,-2.2505,-2.2218,-2.1847,-2.1212,-2.1832,-2.2728,-2.3726,-2.3682,-2.37,-2.4002,-2.3676,-2.3073,-2.2072,-2.2584,-2.2702,-2.2328,-2.4255,-2.5514,-2.5961,-2.7271,-2.7946,-2.7946,-2.8059,-2.8134,-2.8185,-2.8011,-2.8473,-2.9317,-2.9322,-2.9613,-3.015,-3.1458,-3.2698,-3.3799,-3.4876,-3.5385,-3.5504,-3.5504,-3.5504,-3.5504,-3.5504,-3.5504,-3.5504,-3.5504,-3.5504,-3.5504,-3.5504,-3.5504,-3.5504,-3.5504,-3.5504,-3.5504,-3.5504,-3.5504,-3.5504,-3.5504,-3.5504,-3.5504,-3.5504,-3.5504,-3.5504,-3.5504,-3.4846,-3.3991,-3.3106,-3.2721,-3.2005,-3.0348,-3.0127,-3.0127,-3.0127,-3.094,-3.1482,-3.1482,-3.1531,-3.1498,-3.1521,-3.1501,-3.1895,-3.2769,-3.4538,-3.5504,-3.5504,-3.5294,-3.4699,-3.3607,-3.243,-3.1253,-3.0077,-3.01,-3.0011,-2.9792,-2.9792,-2.9792,-2.5101,-2.5009,-2.498,-2.5073,-2.4778,-2.427,0.0,0.0,-2.3224,-2.2703,-2.2964,-2.3335,-2.3392,-2.3402,-2.3259,-2.2754,-2.2669,-2.2484,-2.1885,-2.1342,-2.1125,-2.1471,-2.2,-2.2535,-2.3113,-2.2567,-2.2519,-2.3367,-2.1934,-2.1298,-2.1996,-2.1298,-2.1669,-2.3294,-2.3644,-2.4634,-2.6402,-2.7092,-2.7369,-2.7381,-2.7871,-2.8239,-2.8454,-2.7717,-2.8023,-2.9016,-2.903,-2.9799,-3.1061,-3.1267,-3.2537,-3.4382,-3.4532,-3.4966,-3.5504,-3.5504,-3.5504,-3.5504,-3.5504,-3.5504,-3.5504,-3.5504,-3.5504,-3.5504,-3.5504,-3.5504,-3.5504,-3.5504,-3.5504,-3.5504,-3.5504,-3.5504,-3.5504,-3.5504,-3.5504,-3.5504,-3.5504,-3.5504,-3.5504,-3.5504,-3.4472,-3.3574,-3.3469,-3.2452,-3.1571,-3.1336,-3.1306,-3.1306,-3.1306,-3.1394,-3.1482,-3.1482,-3.1511,-3.1485,-3.151,-3.2392,-3.3082,-3.3439,-3.4736,-3.5504,-3.5504,-3.461,-3.3955,-3.3607,-3.2849,-3.2037,-3.1027,-3.1005,-3.062,-2.9792,-2.9792,-2.9792,-2.5161,-2.5473,0.0,0.0,-2.5195,-2.5051,-2.4139,-2.371,-2.3532,-2.3697,-2.4132,-2.4508,-2.4536,-2.4817,-2.471,0.0,-2.3644,-2.3348,-2.2398,-2.1736,-2.1332,-2.136,-2.12,-2.1281,-2.1822,-2.1448,-2.116,-2.1281,-2.0896,-2.0676,-2.0757,-2.1202,-2.2038,-2.3441,-2.4036,-2.5063,-2.6465,-2.6691,-2.6804,-2.6804,-2.703,-2.7467,-2.7999,-2.7677,-2.8344,-2.9756,-3.024,-3.0789,-3.1367,-3.181,-3.2716,-3.3948,-3.4322,-3.4906,-3.5504,-3.5504,-3.5504,-3.5504,-3.5504,-3.5504,-3.5504,-3.5504,-3.5504,-3.5504,-3.5504,-3.5504,-3.5504,-3.5504,-3.5504,-3.5504,-3.5504,-3.5504,-3.5504,-3.5504,-3.5504,-3.5504,-3.5504,-3.5504,-3.537,-3.5,-3.4175,-3.338,-3.2991,-3.2153,-3.1482,-3.1482,-3.1482,-3.1482,-3.1482,-3.1482,-3.2118,-3.3676,-3.2435,-3.2123,-3.3691,-3.3574,-3.3753,-3.4626,-3.5184,-3.5504,-3.5504,-3.4543,-3.3711,-3.3017,-3.2222,-3.1328,-3.0419,-3.0419,-3.0216,-2.9792,-2.9792,-2.9792,-2.5174,0.0,0.0,-2.5077,-2.5039,-2.5032,-2.4296,-2.3741,-2.3568,-2.4264,-2.47,-2.5049,-2.5294,-2.554,-2.5358,-2.4307,-2.3872,-2.3287,-2.2243,-2.1397,-2.0804,-2.0662,-1.9983,-1.9731,-2.0284,-2.0281,-2.0227,-2.0123,-2.0164,-2.0217,-2.0066,-2.1085,-2.2178,-2.3441,-2.4192,-2.5217,-2.6465,-2.6533,-2.6533,-2.6533,-2.6533,-2.6905,-2.7749,-2.8213,-2.8957,-2.9964,-3.1043,-3.1482,-3.1511,-3.2048,-3.2736,-3.3544,-3.4023,-3.4741,-3.5504,-3.5504,-3.5504,-3.5504,-3.5504,-3.5504,-3.5504,-3.5504,-3.5504,-3.5504,-3.5504,-3.5504,-3.5504,-3.5504,-3.5504,-3.5504,-3.5504,-3.5504,-3.5504,-3.5504,-3.5504,-3.5504,-3.5504,-3.5355,-3.5115,-3.482,-3.41,-3.335,-3.2871,-3.2243,-3.1676,-3.1497,-3.1482,-3.1482,-3.1482,-3.1482,-3.2254,-3.4208,-3.3111,-3.3124,-3.5301,-3.4622,-3.4475,-3.5459,-3.5504,-3.5504,-3.5504,-3.4259,-3.331,-3.2593,-3.1389,-3.0482,-2.9792,-3.0075,-3.0216,-3.0216,-3.0419,-3.057,0.0,0.0,-2.481,-2.464,-2.4129,-2.3682,-2.3703,-2.3358,-2.3222,-2.3949,-2.4139,-2.4367,-2.5045,-2.4807,-2.4251,-2.3634,-2.2491,-2.1444,-2.0758,-1.9535,-1.8827,-1.9199,-1.8455,-1.8083,0.0,-1.9036,-1.9666,-2.0508,-1.9775,-1.9668,-2.0498,-2.0634,-2.1527,-2.3441,-2.3514,-2.4469,-2.6452,-2.6533,-2.6533,-2.6533,-2.6533,-2.6905,-2.7736,-2.9456,-2.9793,-2.9144,-3.0764,-3.1482,-3.1482,-3.1497,-3.2332,-3.3499,-3.3514,-3.4337,-3.5504,-3.5504,-3.5504,-3.5504,-3.5504,-3.5504,-3.5504,-3.5504,-3.5504,-3.5504,-3.5504,-3.5504,-3.5504,-3.5504,-3.5504,-3.5504,-3.5504,-3.5504,-3.5504,-3.5504,-3.5504,-3.5504,-3.5504,-3.4981,-3.4696,-3.5355,-3.4397,-3.3484,-3.3469,-3.2916,-3.2273,-3.1571,-3.1482,-3.1482,-3.1482,-3.1482,-3.1543,-3.1605,-3.311,-3.4483,-3.544,-3.5439,-3.5474,-3.5504,-3.5504,-3.5504,-3.5504,-3.3685,-3.2593,-3.2593,-3.0771,-2.9869,-2.9792,-3.0696,-3.118,-3.118,-3.2105,-3.2536,-2.5228,0.0,-2.5209,-2.4733,-2.4335,-2.4009,-2.377,-2.3335,-2.3139,-2.3549,-2.4137,-2.4582,-2.4728,-2.4383,-2.3675,-2.2452,-2.0927,-1.9522,-1.8396,-1.7678,-1.7184,-1.6842,-1.735,0.0,0.0,0.0,0.0,-1.9213,-1.9265,-1.9531,-2.0107,-2.041,-2.1155,-2.2478,-2.3147,-2.4181,-2.5511,-2.6164,-2.6533,-2.6533,-2.704,-2.7762,-2.8619,-2.9775,-3.0406,-3.069,-3.1248,-3.1482,-3.1511,-3.2003,-3.2706,-3.3544,-3.3978,-3.4696,-3.5504,-3.5504,-3.5504,-3.5504,-3.5504,-3.5504,-3.5504,-3.5504,-3.5504,-3.5504,-3.5504,-3.5504,-3.5504,-3.5504,-3.5504,-3.5504,-3.5504,-3.5504,-3.5504,-3.5504,-3.5504,-3.5504,-3.5504,-3.4986,-3.4599,-3.4781,-3.3749,-3.2847,-3.2841,-3.2302,-3.1943,-3.2153,-3.175,-3.1719,-3.2302,-3.2362,-3.2796,-3.4012,-3.3871,-3.423,-3.5409,-3.5509,-3.5504,-3.5504,-3.5504,-3.5504,-3.5504,-3.3616,-3.289,-3.3518,-3.1696,-3.1057,-3.1696,-3.196,-3.2105,-3.2177,-3.2899,-3.3028,-2.5068,-2.5073,-2.4994,-2.4206,-2.3879,-2.365,-2.3399,-2.3098,-2.305,-2.3612,-2.411,-2.4395,-2.4116,-2.3434,-2.2309,-2.0304,-1.8543,-1.6877,-1.5406,-1.5158,-1.5052,-1.4815,-1.592,-1.6897,0.0,0.0,0.0,-1.899,-1.9355,-1.9697,-2.0127,-2.0785,-2.1527,-2.2478,-2.3514,-2.4552,-2.5511,-2.6176,-2.6533,-2.6533,-2.704,-2.7696,-2.8554,-2.9463,-3.0269,-3.1087,-3.1409,-3.1482,-3.1511,-3.1988,-3.2691,-3.3529,-3.3963,-3.4696,-3.5504,-3.5504,-3.5504,-3.5504,-3.5504,-3.5504,-3.5504,-3.5504,-3.5504,-3.5504,-3.5504,-3.5504,-3.5504,-3.5504,-3.5504,-3.5504,-3.5504,-3.5504,-3.5504,-3.5504,-3.5504,-3.5504,-3.5504,-3.4957,-3.4483,-3.4486,-3.3607,-3.2835,-3.2841,-3.2512,-3.2377,-3.2796,-3.2497,-3.2377,-3.2781,-3.2916,-3.3532,-3.4658,-3.4152,-3.4252,-3.5429,-3.5504,-3.5504,-3.5504,-3.5504,-3.5504,-3.5504,-3.4297,-3.3717,-3.4027,-3.2464,-3.2033,-3.2593,-3.2961,-3.3101,-3.3101,-3.3913,-3.4037,-2.4679,-2.4402,-2.4076,-2.3162,-2.279,-2.2641,-2.2698,-2.2708,-2.3035,-2.406,-2.4086,-2.376,0.0,0.0,-2.0112,-1.7268,-1.5264,-1.3537,-1.1903,-1.1927,-1.2405,0.0,0.0,0.0,0.0,0.0,0.0,-1.9912,0.0,-2.0174,-2.0615,-2.1593,-2.2478,-2.3441,-2.4492,-2.5441,-2.6383,-2.6452,-2.6521,-2.6589,-2.6589,-2.704,-2.7855,-2.8684,-2.9566,-3.0389,-3.1161,-3.1497,-3.1526,-3.1556,-3.2392,-3.3544,-3.3589,-3.4382,-3.5504,-3.5504,-3.5504,-3.5504,-3.5504,-3.5504,-3.5504,-3.5504,-3.5504,-3.5504,-3.5504,-3.5504,-3.5504,-3.5504,-3.5504,-3.5504,-3.5504,-3.5504,-3.5504,-3.5504,-3.5504,-3.5504,-3.5504,-3.4985,-3.4514,-3.4522,-3.4027,-3.3532,-3.3531,-3.3529,-3.3544,-3.3544,-3.3574,-3.3438,-3.2956,-3.3257,-3.3526,-3.3572,-3.4014,-3.4603,-3.5444,-3.5504,-3.5504,-3.5504,-3.5504,-3.5504,-3.5504,-3.5459,-3.4957,-3.4109,-3.3073,-3.265,-3.2749,-3.3671,-3.4095,-3.4095,-3.5067,-3.5504,-2.3685,-2.3164,-2.2754,-2.2134,-2.1917,-2.2013,-2.2569,-2.3003,-2.3397,-2.3783,-2.412,-2.3714,0.0,0.0,0.0,-1.3656,-1.1141,0.0,-0.8862,-0.8753,0.0,-1.1481,0.0,-1.4766,-1.6926,-1.8082,0.0,0.0,-2.1185,-2.1195,-2.1638,-2.2553,-2.322,-2.3514,-2.4492,-2.5158,-2.537,-2.6094,-2.6782,-2.7417,-2.7417,-2.8182,-2.9628,-2.9889,-3.0389,-3.1219,-3.1409,-3.175,-3.2302,-3.2796,-3.3484,-3.4277,-3.4786,-3.5205,-3.5504,-3.5504,-3.5504,-3.5504,-3.5504,-3.5504,-3.5504,-3.5504,-3.5504,-3.5504,-3.5504,-3.5504,-3.5504,-3.5504,-3.5504,-3.5504,-3.5504,-3.5504,-3.5504,-3.5504,-3.5504,-3.5504,-3.5504,-3.4986,-3.4624,-3.5175,-3.4706,-3.4085,-3.3574,-3.3903,-3.4233,-3.4233,-3.4666,-3.4786,-3.414,-3.4188,-3.4457,-3.4976,-3.5096,-3.528,-3.5489,-3.5504,-3.5504,-3.5504,-3.5504,-3.5504,-3.5504,-3.4572,-3.4423,-3.5133,-3.3464,-3.3314,-3.4773,-3.4986,-3.5133,-3.5133,-3.5359,-3.5504,-2.2998,-2.2234,-2.1691,-2.1628,-2.1674,-2.1971,-2.2923,-2.3444,-2.3713,-2.3704,-2.3686,0.0,0.0,0.0,0.0,0.0,0.0,0.0,-0.6536,-0.6758,-0.7965,0.0,-1.198,0.0,-1.6836,-1.8215,-1.975,0.0,-2.1796,-2.1977,-2.2606,-2.3599,-2.4192,-2.4192,-2.5146,-2.5664,-2.5664,-2.6245,-2.6905,-2.767,-2.767,-2.862,-3.0329,-3.0329,-3.0718,-3.1482,0.0,-3.1676,-3.2138,-3.2796,-3.3455,-3.4113,-3.4786,-3.5235,-3.5504,-3.5504,-3.5504,-3.5504,-3.5504,-3.5504,-3.5504,-3.5504,-3.5504,-3.5504,-3.5504,-3.5504,-3.5554,-3.5867,-3.607,-3.6224,-3.6445,-3.6352,-3.6161,-3.6022,-3.5733,-3.5504,-3.5504,-3.5195,-3.4951,-3.504,-3.479,-3.4352,-3.3978,-3.4487,-3.4921,-3.4921,-3.525,-3.537,-3.4981,-3.4921,-3.507,-3.5459,-3.5504,-3.5504,-3.5504,-3.5504,-3.5504,-3.5504,-3.5504,-3.5504,-3.5504,-3.4832,-3.4765,-3.5504,-3.4427,-3.4413,-3.5504,-3.5504,-3.5504,-3.5504,-3.5504,-3.5504,-2.2483,-2.1512,-2.0829,-2.1414,-2.1729,-2.2209,-2.3472,-2.393,-2.4035,-2.3746,0.0,-2.1601,-1.8508,-1.6176,-1.3158,-0.8497,0.0,-0.5334,-0.4538,-0.5342,-0.7065,-0.9833,-1.1106,-1.3226,-1.6976,-1.8214,-1.9762,-2.2017,-2.2456,-2.2966,-2.3868,-2.4637,-2.5051,-2.5051,-2.5988,-2.6533,-2.6533,-2.6589,-2.7095,-2.7855,-2.7986,-2.8876,-3.045,-3.045,-3.0837,-3.1482,0.0,0.0,-3.1839,-3.2407,-3.308,-3.3814,-3.4397,-3.4981,-3.5504,-3.5504,-3.5504,-3.5504,-3.5504,-3.5504,-3.5504,-3.5504,-3.5504,-3.5504,-3.5504,-3.5504,-3.5638,-3.6292,-3.6615,-3.6955,-3.7555,-3.7228,-3.6739,-3.6538,-3.5943,-3.5504,-3.5504,-3.5504,-3.531,-3.4715,-3.464,-3.4607,-3.4607,-3.51,-3.5504,-3.5504,-3.5504,-3.5504,-3.5504,-3.5504,-3.5504,-3.5504,-3.5504,-3.5504,-3.5504,-3.5504,-3.5504,-3.5504,-3.5504,-3.5504,-3.5504,-3.5504,-3.5504,-3.5504,-3.5504,-3.5504,-3.5504,-3.5504,-3.5504,-3.5504,-3.5504,-3.5524,-2.2108,-2.1041,-2.0317,-2.1071,-2.1587,-2.2261,-2.3621,-2.4327,0.0,0.0,-2.2897,-2.1142,-1.7726,-1.4314,-1.0643,-0.6435,0.0,0.0,0.0,0.0,-0.5247,0.0,0.0,0.0,0.0,0.0,0.0,0.0,0.0,-2.5644,-2.5795,-2.5586,-2.5535,-2.5535,-2.6133,-2.6533,-2.6533,-2.7162,-2.792,-2.8812,-2.9504,-3.0329,-3.1278,-3.1278,-3.1351,-3.1482,-3.1482,0.0,-3.3155,-3.3275,-3.4053,-3.516,-3.528,-3.54,-3.5504,-3.5504,-3.5504,-3.5504,-3.5504,-3.5504,-3.5504,-3.5504,-3.5504,-3.5504,-3.5504,-3.5504,-3.5504,-3.5638,-3.5733,-3.5948,-3.6932,-3.6447,-3.5763,-3.5668,-3.5619,-3.5504,-3.5504,-3.5504,-3.5474,-3.534,-3.5325,-3.5325,-3.5325,-3.5429,-3.5504,-3.5504,-3.5504,-3.5504,-3.5504,-3.5504,-3.5504,-3.5504,-3.5504,-3.5504,-3.5504,-3.5504,-3.5504,-3.5504,-3.5504,-3.5504,-3.5504,-3.5504,-3.5504,-3.5504,-3.5504,-3.5504,-3.5504,-3.5504,-3.5504,-3.5504,-3.5504,-3.5522,-2.1776,-2.0982,-2.0438,-2.1417,-2.1812,-2.2374,-2.3965,0.0,0.0,0.0,-2.2349,-2.0302,-1.7385,0.0,0.0,0.0,0.0,0.0,0.0,0.0,0.0,0.0,0.0,0.0,0.0,0.0,0.0,0.0,0.0,-2.6683,-2.6992,-2.6581,-2.6374,-2.6657,-2.6282,-2.6151,-2.6533,-2.7284,-2.8117,-2.9002,-2.9889,-3.0718,-3.1482,-3.1482,-3.1482,-3.1482,-3.1482,0.0,-3.3021,-3.335,-3.4083,-3.4996,-3.537,-3.5504,-3.5504,-3.5504,-3.5504,-3.5554,-3.5943,-3.6054,-3.6054,-3.6054,-3.5846,-3.5504,-3.5504,-3.5504,-3.5604,-3.5963,-3.6056,-3.6304,-3.7157,-3.677,-3.6054,-3.6054,-3.5782,-3.5629,-3.5984,-3.5799,-3.5629,-3.5999,-3.5784,-3.5504,-3.5504,-3.5504,-3.5504,-3.5504,-3.5504,-3.5504,-3.5504,-3.5504,-3.5504,-3.5504,-3.5504,-3.5504,-3.5504,-3.5504,-3.5504,-3.5504,-3.5504,-3.5504,-3.5504,-3.5504,-3.5504,-3.5504,-3.5504,-3.5504,-3.5504,-3.5504,-3.5504,-3.5504,-3.5504,-3.5755,-2.1836,-2.1404,-2.1006,-2.2179,-2.2431,-2.2797,-2.4308,-2.4299,0.0,0.0,-2.1692,-1.939,-1.6777,0.0,0.0,0.0,0.0,0.0,0.0,0.0,0.0,0.0,0.0,0.0,0.0,0.0,0.0,0.0,0.0,0.0,-2.76,-2.7363,-2.726,-2.734,-2.64,-2.6,-2.6264,-2.7419,-2.8298,-2.9002,-3.0072,-3.0896,-3.1482,-3.1482,-3.1482,-3.1482,-3.1482,0.0,0.0,-3.3275,-3.3963,-3.4756,-3.5295,-3.5504,-3.5504,-3.5504,-3.5504,-3.5619,-3.6337,-3.6615,-3.6615,-3.6615,-3.6178,-3.5689,-3.5534,-3.5504,-3.5589,-3.6199,-3.6353,-3.6508,-3.7115,-3.6814,-3.6384,-3.6384,-3.6054,-3.5918,-3.6451,-3.6148,-3.5888,-3.6516,-3.5999,-3.5504,-3.5504,-3.5504,-3.5504,-3.5504,-3.5504,-3.5504,-3.5504,-3.5504,-3.5504,-3.5504,-3.5504,-3.5504,-3.5504,-3.5504,-3.5504,-3.5504,-3.5504,-3.5504,-3.5504,-3.5504,-3.5504,-3.5504,-3.5504,-3.5504,-3.5504,-3.5504,-3.5504,-3.5504,-3.5504,-3.6052,-2.269,-2.2476,-2.2138,-2.3334,-2.3672,-2.3905,-2.4633,0.0,0.0,-2.288,-2.0941,-1.8451,-1.528,-1.1058,0.0,0.0,0.0,0.0,0.0,0.0,0.0,0.0,0.0,0.0,0.0,0.0,0.0,0.0,0.0,0.0,-2.7327,-2.7849,-2.7614,-2.629,-2.6474,-2.6297,-2.5674,-2.7835,-2.8939,-2.9002,-3.0644,-3.1409,-3.1482,-3.1482,-3.1482,-3.1482,-3.1482,0.0,0.0,-3.3469,-3.4247,-3.5415,-3.5489,-3.5504,-3.5504,-3.5504,-3.5504,-3.5619,-3.6337,-3.6615,-3.6615,-3.6615,-3.6582,-3.634,-3.5689,-3.5504,-3.5504,-3.5604,-3.5604,-3.5619,-3.5668,-3.5683,-3.5619,-3.5619,-3.6054,-3.6522,-3.6565,-3.652,-3.6538,-3.6615,-3.5999,-3.5504,-3.5504,-3.5504,-3.5504,-3.5504,-3.5504,-3.5504,-3.5504,-3.5504,-3.5504,-3.5504,-3.5504,-3.5504,-3.5504,-3.5504,-3.5504,-3.5504,-3.5504,-3.5504,-3.5504,-3.5504,-3.5504,-3.5504,-3.5504,-3.5504,-3.5504,-3.5504,-3.5504,-3.5504,-3.5504,-3.6043,-2.3418,-2.3488,-2.3376,-2.3813,-2.366,-2.359,-2.4229,0.0,-2.2789,-2.2601,-2.0447,-1.7853,-1.5232,-1.133,-0.7185,0.0,0.0,0.0,0.0,0.0,0.0,0.0,0.0,0.0,0.0,0.0,0.0,0.0,0.0,0.0,-2.9848,-2.8889,-2.7851,-2.6775,-2.6379,-2.6306,-2.6362,-2.813,-2.9254,-2.9827,-3.097,-3.1482,-3.1482,-3.1482,-3.1482,-3.1482,-3.1482,0.0,0.0,-3.3499,-3.4292,-3.5504,-3.5504,-3.5504,-3.5504,-3.5504,-3.5504,-3.5668,-3.6874,-3.7338,-3.7338,-3.7338,-3.7301,-3.7078,-3.5857,-3.5504,-3.5504,-3.5504,-3.5504,-3.5504,-3.5504,-3.5504,-3.5504,-3.5504,-3.6054,-3.6737,-3.7219,-3.6974,-3.672,-3.725,-3.6359,-3.5504,-3.5504,-3.5504,-3.5504,-3.5504,-3.5504,-3.5504,-3.5504,-3.5504,-3.5504,-3.5504,-3.5504,-3.5504,-3.5504,-3.5504,-3.5504,-3.5504,-3.5504,-3.5504,-3.5504,-3.5504,-3.5504,-3.5504,-3.5504,-3.5504,-3.5504,-3.5504,-3.5733,-3.6165,-3.5733,-3.6182,-2.3657,-2.4043,-2.4257,-2.424,-2.3808,-2.3487,0.0,-2.3092,-2.2321,-2.2086,-2.0333,-1.7983,-1.5144,-1.1548,-0.7376,0.0,0.0,0.0,0.0,0.0,0.0,0.0,0.0,0.0,0.0,0.0,0.0,0.0,0.0,0.0,0.0,-3.0401,-2.8621,-2.7269,-2.6579,-2.6352,-2.6678,-2.8239,-2.9442,-3.0329,-3.1087,-3.1482,-3.1482,-3.1482,-3.1482,-3.1482,0.0,0.0,0.0,-3.341,-3.4173,-3.522,-3.5429,-3.5504,-3.5504,-3.5504,-3.5504,-3.5683,-3.6995,-3.7573,-3.7822,-3.7822,-3.7921,-3.7863,-3.6305,-3.5668,-3.5504,-3.5504,-3.5504,-3.5554,-3.5782,-3.5846,-3.591,-3.6133,-3.6753,-3.7435,-3.8003,-3.7496,-3.7112,-3.7694,-3.6521,-3.5504,-3.5504,-3.5504,-3.5554,-3.5782,-3.5846,-3.5894,-3.6133,-3.6196,-3.6196,-3.6196,-3.6196,-3.5973,-3.5569,-3.5733,-3.5846,-3.5846,-3.6022,-3.6085,-3.5846,-3.5846,-3.5733,-3.5504,-3.5504,-3.5504,-3.5504,-3.5733,-3.6006,-3.6275,-3.5943,-3.6305,-2.3196,-2.4049,-2.4627,-2.475,-2.4436,-2.3947,0.0,-2.3206,-2.2701,-2.1212,-2.0569,-1.8947,-1.4683,-1.1093,-0.6726,-0.0336,0.0,0.0,0.0,0.0,0.0,0.0,0.0,0.0,0.0,0.0,0.0,0.0,0.0,0.0,0.0,-3.2393,-3.0066,-2.7407,-2.7083,-2.6701,-2.6131,-2.8034,-2.9442,-3.0329,-3.1087,-3.1482,-3.1482,-3.1482,-3.1482,0.0,0.0,0.0,0.0,-3.323,-3.3888,-3.4562,-3.5235,-3.5504,-3.5504,-3.5504,-3.5504,-3.5619,-3.6322,-3.7144,-3.7822,-3.7822,-3.8302,-3.8619,-3.7068,-3.6054,-3.5504,-3.5504,-3.5504,-3.5668,-3.6384,-3.6615,-3.6783,-3.7573,-3.8358,-3.8903,-3.8864,-3.8322,-3.7777,-3.7785,-3.6538,-3.5504,-3.5504,-3.5504,-3.5733,-3.6508,-3.6615,-3.6843,-3.769,-3.7764,-3.7764,-3.7764,-3.7764,-3.7175,-3.5619,-3.6165,-3.6615,-3.6615,-3.7338,-3.7397,-3.66,-3.6615,-3.6228,-3.5504,-3.5504,-3.5504,-3.5504,-3.6228,-3.6228,-3.5504,-3.6275,-3.6228,-2.3662,-2.39,-2.4034,-2.3925,-2.3417,-2.2858,-2.2555,-2.2142,-2.1628,-2.0734,-2.0199,-1.8656,-1.4628,-1.1094,-0.6412,0.0856,0.4101,0.0,0.0,0.0,0.0,0.0,0.0,0.0,0.0,0.0,0.0,0.0,0.0,0.0,0.0,-3.2961,-3.0882,-2.803,-2.7897,-2.7743,-2.7571,-2.9111,-3.0329,-3.1087,-3.1409,-3.1482,-3.1482,-3.1482,0.0,0.0,0.0,0.0,0.0,-3.3215,-3.3888,-3.4547,-3.5235,-3.5504,-3.5504,-3.5504,-3.5504,-3.5668,-3.6995,-3.7573,-3.7863,-3.8414,-3.869,-3.869,-3.7732,-3.6859,-3.6275,-3.6275,-3.6275,-3.6461,-3.7219,-3.7397,-3.7456,-3.7748,-3.8358,-3.8903,-3.8919,-3.8712,-3.84,-3.7902,-3.6971,-3.6118,-3.5563,-3.5889,-3.6369,-3.6829,-3.6703,-3.6768,-3.7197,-3.7219,-3.6971,-3.6273,-3.6826,-3.7225,-3.7071,-3.7279,-3.7227,-3.6873,-3.7446,-3.786,-3.7982,-3.7089,-3.6492,-3.6275,-3.5782,-3.5504,-3.5504,-3.5718,-3.5733,-3.5504,-3.646,-3.6398,0.0,-2.3401,-2.3503,-2.3232,-2.2573,-2.1933,-2.1697,-2.133,-2.0848,-2.0315,-2.0161,-1.9108,-1.5732,-1.2523,-0.7826,0.0,0.3034,0.0,0.0,0.0,0.0,0.0,0.0,0.0,0.0,0.0,0.0,0.0,0.0,0.0,0.0,-3.366,-3.1836,-2.9457,-2.89,-2.8683,-2.8623,-2.9757,-3.0703,-3.1482,-3.1482,-3.1482,-3.1482,-3.1482,0.0,0.0,0.0,0.0,0.0,-3.2856,-3.3514,-3.4173,-3.4846,-3.528,-3.5504,-3.5504,-3.5504,-3.5683,-3.6935,-3.7419,-3.7614,-3.8537,-3.9061,-3.9188,-3.8423,-3.7674,-3.7024,-3.7024,-3.7024,-3.7203,-3.8019,-3.8206,-3.8318,-3.8613,-3.8995,-3.9348,-3.9358,-3.9102,-3.8755,-3.8302,-3.7445,-3.6675,-3.6416,-3.6911,-3.7342,-3.7303,-3.7137,-3.7131,-3.7301,-3.7524,-3.749,-3.6868,-3.762,-3.8286,-3.8668,-3.8325,-3.7971,-3.7617,-3.8267,-3.8809,-3.9177,-3.8025,-3.7136,-3.6769,-3.5925,-3.5504,-3.5504,-3.5504,-3.5774,-3.6344,-3.6427,-3.6113,0.0,-2.2573,-2.3034,-2.2705,-2.1956,-2.1247,-2.0996,-2.0804,0.0,-1.9956,-2.04,-2.0156,-1.7759,-1.5013,-1.0594,-0.2846,-0.0781,0.0,0.0,0.0,0.0,0.0,0.0,0.0,0.0,0.0,0.0,0.0,0.0,0.0,0.0,-3.4231,-3.2638,-3.1297,-3.0046,-2.9391,-2.9464,-3.0086,-3.0777,-3.1482,-3.1482,-3.1482,-3.1482,-3.1482,0.0,0.0,0.0,0.0,0.0,-3.2243,-3.2901,-3.3559,-3.4218,-3.4906,-3.5504,-3.5504,-3.5504,-3.5619,-3.6337,-3.6805,-3.7195,-3.8302,-3.9334,-3.9943,-3.9181,-3.8414,-3.7806,-3.7863,-3.7863,-3.8035,-3.8799,-3.8978,-3.9193,-3.9901,-4.007,-4.007,-4.007,-3.948,-3.8975,-3.8891,-3.7912,-3.7293,-3.7767,-3.8214,-3.838,-3.7911,-3.7806,-3.7748,-3.7716,-3.8342,-3.8783,-3.8804,-3.9525,-4.002,-4.0087,-3.9251,-3.8727,-3.8727,-3.9595,-4.0086,-4.008,-3.9105,-3.812,-3.7093,-3.6034,-3.5504,-3.5504,-3.5504,-3.6265,-3.7622,-3.6186,-3.5504,-2.1563,0.0,-2.2388,-2.2787,-2.2157,-2.1349,0.0,-2.134,-2.1165,-2.0548,0.0,0.0,-1.9656,-1.6799,-1.3042,-0.8155,0.0,0.0,0.0,0.0,0.0,0.0,0.0,0.0,0.0,0.0,0.0,0.0,0.0,0.0,0.0,-3.2756,-3.1632,-3.0743,-3.0398,-3.0147,-3.0084,-3.0822,-3.1278,-3.1482,-3.1482,-3.1482,-3.1482,-3.1482,0.0,0.0,0.0,0.0,-3.1526,-3.2243,-3.2901,-3.3559,-3.4218,-3.4906,-3.5504,-3.5504,-3.5504,-3.5619,-3.6337,-3.6805,-3.7326,-3.9166,-3.9901,-4.007,-3.9884,-3.887,-3.7921,-3.8469,-3.8635,-3.8799,-3.961,-3.9833,-3.985,-4.007,-4.007,-4.007,-4.007,-3.9969,-3.9632,-3.9026,-3.8636,-3.8427,-3.8444,-3.8213,-3.81,-3.8394,-3.7536,-3.6946,-3.715,-3.7148,-3.7382,-3.797,-3.8731,-3.9437,-4.007,-3.9868,-3.9732,-3.9732,-4.0003,-4.0071,-4.0087,-3.9132,-3.8322,-3.7637,-3.6211,-3.5504,-3.5504,-3.5504,-3.5679,-3.6012,-3.5679,-3.5504,-2.1877,-2.2607,-2.3267,-2.3047,-2.2663,-2.2221,-2.1913,0.0,0.0,0.0,0.0,0.0,0.0,0.0,0.0,0.0,0.0,0.0,0.0,0.0,0.0,0.0,0.0,0.0,0.0,0.0,0.0,0.0,0.0,0.0,0.0,-3.2076,-3.1259,-3.0507,-3.0223,-3.0297,-3.0837,-3.1278,-3.1482,-3.1482,-3.1482,-3.1482,-3.1482,-3.1482,-3.1482,0.0,0.0,0.0,-3.1497,-3.1913,-3.2632,-3.3529,-3.3888,-3.4637,-3.5504,-3.5504,-3.5504,-3.5619,-3.6369,-3.7409,-3.8623,-3.9715,-4.007,-4.007,-4.007,-3.9506,-3.8941,-3.9332,-3.9437,-3.9542,-4.002,-4.007,-4.007,-4.007,-4.007,-4.007,-4.007,-4.007,-3.9986,-3.9564,-3.9425,-3.9309,-3.8826,-3.8476,-3.8157,-3.7719,-3.7144,-3.6814,-3.6789,-3.7235,-3.7578,-3.7778,-3.8472,-3.8924,-3.9049,-3.9268,-3.9637,-4.0087,-3.9444,-3.9154,-3.9389,-3.7939,-3.7008,-3.6784,-3.591,-3.5504,-3.5504,-3.5504,-3.5504,-3.5504,-3.5504,-3.5504,-2.2596,-2.3952,-2.4776,-2.3429,-2.3141,-2.3036,-2.2441,0.0,0.0,0.0,0.0,0.0,0.0,0.0,0.0,0.0,0.0,0.0,0.0,0.0,0.0,0.0,0.0,0.0,0.0,0.0,0.0,0.0,0.0,0.0,0.0,-3.1424,-3.0973,-3.0324,-2.9943,-3.0298,-3.1467,-3.1377,-3.1377,-3.1482,-3.1482,-3.1482,-3.1482,-3.1482,-3.1482,0.0,0.0,0.0,-3.1482,-3.1482,-3.2302,-3.3499,-3.3499,-3.4322,-3.5504,-3.5504,-3.5504,-3.5589,-3.6414,-3.8068,-3.9952,-4.007,-4.007,-4.007,-4.007,-4.007,-4.007,-4.007,-4.007,-4.007,-4.007,-4.007,-4.007,-4.007,-4.007,-4.007,-4.007,-4.007,-4.007,-4.007,-4.002,-3.9731,-3.9032,-3.8674,-3.8101,-3.6783,-3.6677,-3.6677,-3.649,-3.7587,-3.82,-3.7857,-3.8261,-3.8404,-3.7863,-3.821,-3.8828,-3.9696,-3.8513,-3.7916,-3.8089,-3.6507,-3.5643,-3.5489,-3.5504,-3.5504,-3.5504,-3.5504,-3.5504,-3.5504,-3.5504,-3.5504,-2.3359,-2.4732,-2.5655,-2.3883,-2.2814,-2.2236,-2.2384,0.0,0.0,0.0,0.0,0.0,0.0,0.0,0.0,0.0,0.0,0.0,0.0,0.0,0.0,0.0,0.0,0.0,0.0,0.0,0.0,0.0,0.0,0.0,0.0,-2.9608,-2.961,-2.9508,-3.0066,-3.0746,-3.1467,-3.0956,-3.0956,-3.1482,-3.1482,-3.1482,-3.1482,-3.1482,-3.1482,0.0,0.0,-3.1482,-3.1482,-3.1482,-3.2302,-3.3499,-3.3499,-3.4322,-3.5504,-3.5504,-3.5504,-3.5638,-3.6576,-3.7915,-3.9209,-3.9901,-4.007,-4.007,-4.007,-4.007,-4.007,-4.007,-4.007,-4.007,-4.007,-4.007,-4.007,-4.007,-4.007,-4.007,-4.007,-4.007,-4.007,-4.007,-3.9542,-3.9016,-3.8908,-3.7815,-3.6888,-3.6676,-3.607,-3.5748,-3.5661,-3.656,-3.7385,-3.7773,-3.7504,-3.7412,-3.779,-3.787,-3.7985,-3.8149,-3.7914,-3.7229,-3.6055,-3.626,-3.6151,-3.5504,-3.5504,-3.5504,-3.5504,-3.5504,-3.5504,-3.5504,-3.5504,-3.5504,-2.3081,-2.3749,-2.4134,-2.2918,-2.3218,-2.3602,-2.278,0.0,0.0,0.0,0.0,0.0,0.0,0.0,0.0,0.0,0.0,0.0,0.0,0.0,0.0,0.0,0.0,0.0,0.0,0.0,0.0,0.0,0.0,0.0,0.0,0.0,-2.9493,-2.9912,-3.0012,-3.0492,-3.1467,-3.0851,-3.0851,-3.1482,-3.1482,-3.1482,-3.1482,-3.1482,-3.1482,-3.1482,0.0,-3.1482,-3.1482,-3.1482,-3.2154,-3.3183,-3.3666,-3.452,-3.5504,-3.5504,-3.5737,-3.6245,-3.7144,-3.8003,-3.8868,-3.9767,-4.007,-4.007,-4.007,-4.007,-4.007,-4.007,-4.007,-4.007,-4.007,-4.007,-4.007,-4.007,-4.007,-4.007,-4.007,-4.007,-3.9986,-3.9518,-3.9152,-3.8619,-3.7815,-3.7068,-3.643,-3.6054,-3.5733,-3.5616,-3.6055,-3.6597,-3.7089,-3.7367,-3.7026,-3.6687,-3.6585,-3.6554,-3.6707,-3.716,-3.7144,-3.6644,-3.5576,-3.5837,-3.5846,-3.5504,-3.5504,-3.5504,-3.5504,-3.5504,-3.5504,-3.5504,-3.5504,-3.5504,-2.2962,-2.2925,-2.2734,-2.1935,0.0,-2.3887,-2.2761,0.0,0.0,0.0,0.0,0.0,0.0,0.0,0.0,0.0,0.0,0.0,0.0,0.0,0.0,0.0,0.0,0.0,0.0,0.0,0.0,0.0,0.0,0.0,0.0,0.0,-2.9593,-3.0434,-3.0171,-3.0522,-3.1467,-3.1001,-3.1001,-3.1482,-3.1482,-3.1482,-3.1482,-3.1482,-3.1482,-3.1482,-3.1482,-3.1482,-3.1497,-3.1734,-3.2229,-3.3047,-3.3937,-3.4763,-3.5504,-3.5504,-3.6119,-3.6939,-3.7584,-3.8311,-3.9059,-3.9834,-4.007,-4.007,-4.007,-4.007,-4.007,-4.007,-4.007,-4.007,-4.007,-4.007,-4.007,-4.007,-4.007,-4.007,-3.985,-3.9833,-3.9609,-3.8776,-3.8495,-3.7987,-3.6783,-3.6446,-3.6165,-3.5554,-3.5504,-3.5688,-3.6292,-3.6538,-3.6662,-3.6646,-3.6446,-3.6102,-3.5569,-3.5504,-3.5718,-3.6337,-3.6337,-3.6117,-3.5504,-3.5504,-3.5504,-3.5504,-3.5504,-3.5504,-3.5504,-3.5504,-3.5504,-3.5504,-3.5504,-3.5504,-2.3761,-2.3271,-2.2679,-2.1728,-2.0994,0.0,-2.1727,-2.1004,0.0,-2.2829,0.0,0.0,0.0,0.0,0.0,0.0,0.0,0.0,0.0,0.0,0.0,0.0,0.0,0.0,0.0,0.0,0.0,0.0,0.0,0.0,0.0,0.0,0.0,-3.0257,-3.0984,-3.1377,-3.1482,-3.1422,-3.1422,-3.1482,-3.1482,-3.1482,-3.1482,-3.1482,-3.1482,-3.1482,-3.1482,-3.1482,-3.1584,-3.2377,-3.3006,-3.3529,-3.4188,-3.4876,-3.5504,-3.5504,-3.6415,-3.7732,-3.779,-3.8767,-4.0003,-4.007,-4.007,-4.007,-4.007,-4.007,-4.007,-4.007,-4.007,-4.007,-4.007,-4.007,-4.007,-4.007,-4.007,-3.9901,-3.9139,-3.8978,-3.8745,-3.8051,-3.7279,-3.6722,-3.66,-3.6054,-3.5554,-3.5504,-3.5504,-3.5503,-3.5554,-3.5637,-3.5631,-3.5615,-3.5574,-3.5554,-3.5504,-3.5504,-3.5504,-3.5554,-3.5554,-3.5554,-3.5504,-3.5504,-3.5504,-3.5504,-3.5504,-3.5504,-3.5504,-3.5504,-3.5504,-3.5504,-3.5504,-3.5504,-2.2612,-2.1917,-2.1262,-2.0826,-2.0116,0.0,0.0,-2.0734,-2.1248,0.0,0.0,0.0,0.0,0.0,0.0,0.0,0.0,0.0,0.0,0.0,0.0,0.0,0.0,0.0,0.0,0.0,0.0,0.0,0.0,0.0,0.0,0.0,0.0,-3.0176,-3.1083,-3.1482,-3.1482,-3.1482,-3.1482,-3.1482,-3.1482,-3.1482,-3.1482,-3.1482,-3.1482,-3.1482,-3.1482,-3.1482,-3.1599,-3.2436,-3.3231,-3.4029,-3.482,-3.528,-3.5504,-3.5504,-3.5887,-3.6453,-3.687,-3.7995,-3.9265,-3.9874,-4.0068,-4.007,-4.007,-4.007,-4.007,-4.007,-4.007,-4.007,-4.007,-4.007,-4.007,-4.007,-4.007,-3.9901,-3.9086,-3.8302,-3.7614,-3.7354,-3.6921,-3.6446,-3.6006,-3.5668,-3.5504,-3.5504,-3.5504,-3.5494,-3.5477,-3.5499,-3.5494,-3.5461,-3.5514,-3.5504,-3.5504,-3.5504,-3.5504,-3.5504,-3.5504,-3.5504,-3.5504,-3.5504,-3.5504,-3.5504,-3.5504,-3.5504,-3.5504,-3.5504,-3.5504,-3.5504,-3.5504,-3.5504,-2.162,-2.093,-2.0477,0.0,0.0,0.0,-1.9808,-2.042,0.0,0.0,0.0,0.0,0.0,0.0,0.0,0.0,0.0,0.0,0.0,0.0,0.0,0.0,0.0,0.0,0.0,0.0,0.0,0.0,0.0,0.0,0.0,0.0,0.0,0.0,-3.0803,-3.1192,-3.1504,-3.124,-3.1228,-3.1482,-3.1482,-3.1482,-3.1482,-3.1482,-3.1482,-3.1482,-3.1482,-3.1482,-3.1614,-3.2766,-3.3788,-3.4676,-3.5284,-3.5504,-3.5504,-3.5504,-3.5728,-3.5984,-3.6168,-3.7504,-3.9176,-3.9873,-4.0132,-4.007,-4.007,-4.007,-4.007,-4.007,-4.0087,-4.0069,-3.9781,-3.968,-3.9527,-3.9182,-3.9249,-3.9156,-3.8342,-3.7568,-3.688,-3.6554,-3.6367,-3.6117,-3.5554,-3.5504,-3.5504,-3.5504,-3.5504,-3.5504,-3.5504,-3.5504,-3.5504,-3.5504,-3.5504,-3.5504,-3.5504,-3.5504,-3.5504,-3.5504,-3.5504,-3.5504,-3.5504,-3.5504,-3.5504,-3.5504,-3.5504,-3.5504,-3.5504,-3.5504,-3.5504,-3.5504,-3.5504,-3.5504,-2.1014,-2.0489,0.0,0.0,0.0,0.0,0.0,0.0,0.0,0.0,0.0,0.0,0.0,0.0,0.0,0.0,0.0,0.0,0.0,0.0,0.0,0.0,0.0,0.0,0.0,0.0,0.0,0.0,0.0,0.0,0.0,0.0,0.0,0.0,-3.0196,-3.0573,-3.147,-3.0623,-3.0604,-3.1467,-3.1467,-3.1467,-3.1482,-3.1482,-3.1482,-3.1482,-3.1482,-3.1482,-3.1659,-3.3427,-3.4721,-3.5504,-3.5504,-3.5504,-3.5504,-3.5504,-3.6113,-3.6831,-3.583,-3.752,-4.0076,-4.0076,-4.0062,-4.007,-4.007,-4.007,-4.007,-4.007,-4.0065,-3.9889,-3.911,-3.8755,-3.8302,-3.7269,-3.7435,-3.7573,-3.6783,-3.68,-3.6708,-3.5699,-3.5504,-3.5504,-3.5504,-3.5504,-3.5504,-3.5504,-3.5504,-3.5504,-3.5504,-3.5504,-3.5504,-3.5504,-3.5504,-3.5504,-3.5504,-3.5504,-3.5504,-3.5504,-3.5504,-3.5504,-3.5504,-3.5504,-3.5504,-3.5504,-3.5504,-3.5504,-3.5504,-3.5504,-3.5504,-3.5504,-3.5504,-3.5504,-2.0533,0.0,0.0,0.0,0.0,0.0,0.0,0.0,0.0,0.0,0.0,0.0,0.0,0.0,0.0,0.0,0.0,0.0,0.0,0.0,0.0,0.0,0.0,0.0,0.0,0.0,0.0,0.0,0.0,0.0,0.0,0.0,0.0,0.0,-2.8955,-2.9396,-2.9689,-2.9734,-3.0148,-3.0806,-3.0806,-3.1061,-3.1482,-3.1482,-3.1482,-3.1482,-3.1482,-3.1482,-3.1644,-3.3111,-3.443,-3.5504,-3.5504,-3.5504,-3.5504,-3.5504,-3.5714,-3.6004,-3.6183,-3.703,-3.8092,-3.8964,-3.9623,-4.007,-4.007,-4.007,-4.007,-4.007,-3.9675,-3.9068,-3.8294,-3.7626,-3.7243,-3.7488,-3.7377,-3.7096,-3.6675,-3.626,-3.5875,-3.5559,-3.5504,-3.5504,-3.5504,-3.5504,-3.5504,-3.5504,-3.5504,-3.5504,-3.5504,-3.5504,-3.5504,-3.5504,-3.5504,-3.5504,-3.5504,-3.5504,-3.5504,-3.5504,-3.5504,-3.5504,-3.5504,-3.5504,-3.5504,-3.5504,-3.5504,-3.5504,-3.5504,-3.5504,-3.5504,-3.5504,-3.5504,-3.5504,-2.0309,0.0,0.0,0.0,0.0,0.0,0.0,0.0,0.0,0.0,0.0,0.0,0.0,0.0,0.0,0.0,0.0,0.0,0.0,0.0,0.0,0.0,0.0,0.0,0.0,0.0,0.0,0.0,0.0,0.0,0.0,0.0,0.0,0.0,-2.8084,-2.8509,-2.8777,-2.9047,-2.9639,-3.0507,-3.0507,-3.0866,-3.1482,-3.1482,-3.1482,-3.1482,-3.1482,-3.1824,-3.2377,-3.317,-3.4292,-3.5504,-3.5504,-3.5504,-3.5569,-3.597,-3.6113,-3.6209,-3.6829,-3.76,-3.8334,-3.9117,-3.9726,-4.007,-4.007,-4.007,-4.002,-3.9714,-3.9202,-3.8537,-3.7605,-3.6753,-3.629,-3.6768,-3.6613,-3.6337,-3.6182,-3.5826,-3.5483,-3.5509,-3.5504,-3.5504,-3.5504,-3.5504,-3.5504,-3.5504,-3.5504,-3.5504,-3.5504,-3.5504,-3.5504,-3.5504,-3.5504,-3.5504,-3.5504,-3.5504,-3.5504,-3.5504,-3.5504,-3.5504,-3.5504,-3.5504,-3.5504,-3.5504,-3.5504,-3.5504,-3.5504,-3.5504,-3.5504,-3.5504,-3.5504,-3.5478,-2.0332,0.0,0.0,0.0,0.0,0.0,0.0,0.0,0.0,0.0,0.0,0.0,0.0,0.0,0.0,0.0,0.0,0.0,0.0,0.0,0.0,0.0,0.0,0.0,0.0,0.0,0.0,0.0,0.0,0.0,0.0,0.0,0.0,-2.7625,-2.7625,-2.7874,-2.8502,-2.8502,-2.9146,0.0,-3.0417,-3.0806,-3.1482,-3.1482,-3.1482,-3.1482,-3.1482,-3.2273,-3.3499,-3.3499,-3.4292,-3.5504,-3.5504,-3.5504,-3.5634,-3.6631,-3.6955,-3.7062,-3.7663,-3.8811,-3.9967,-4.0093,-4.0096,-4.0088,-4.0088,-4.0104,-3.9952,-3.9123,-3.8681,-3.8174,-3.6921,-3.6054,-3.5504,-3.5504,-3.5504,-3.5504,-3.5504,-3.5504,-3.5504,-3.5504,-3.5504,-3.5504,-3.5504,-3.5504,-3.5504,-3.5504,-3.5504,-3.5504,-3.5504,-3.5504,-3.5504,-3.5504,-3.5504,-3.5504,-3.5504,-3.5504,-3.5504,-3.5504,-3.5504,-3.5504,-3.5504,-3.5504,-3.5504,-3.5504,-3.5504,-3.5504,-3.5504,-3.5504,-3.5504,-3.5504,-3.5504,-3.551,0.0,-1.9689,0.0,0.0,0.0,0.0,0.0,0.0,0.0,0.0,0.0,0.0,0.0,0.0,0.0,0.0,0.0,0.0,0.0,0.0,0.0,0.0,0.0,0.0,0.0,0.0,0.0,0.0,0.0,0.0,0.0,0.0,0.0,-2.7625,-2.7625,-2.7685,-2.7784,-2.785,-2.8457,0.0,-2.9774,-3.0387,-3.1482,-3.1482,-3.1482,-3.1482,-3.1482,-3.2273,-3.3499,-3.3499,-3.4292,-3.5504,-3.5504,-3.5504,-3.5619,-3.6368,-3.6662,-3.6874,-3.8004,-3.8649,-3.9064,-3.9825,-4.0117,-4.0087,-4.0087,-4.0083,-3.9885,-3.8954,-3.8019,-3.7202,-3.6736,-3.6054,-3.5504,-3.5504,-3.5504,-3.5504,-3.5504,-3.5504,-3.5504,-3.5504,-3.5504,-3.5504,-3.5504,-3.5504,-3.5504,-3.5504,-3.5504,-3.5504,-3.5504,-3.5504,-3.5504,-3.5504,-3.5504,-3.5504,-3.5504,-3.5504,-3.5504,-3.5504,-3.5504,-3.5504,-3.5504,-3.5504,-3.5504,-3.5504,-3.5504,-3.5504,-3.5504,-3.5504,-3.5504,-3.5504,-3.5504,-3.5496,0.0,0.0,0.0,0.0,0.0,0.0,0.0,0.0,0.0,0.0,0.0,0.0,0.0,0.0,0.0,0.0,0.0,0.0,0.0,0.0,0.0,0.0,0.0,0.0,0.0,0.0,0.0,0.0,0.0,0.0,0.0,-2.7578,-2.7625,-2.7625,-2.7625,-2.7625,-2.7625,-2.7625,-2.8248,-2.9579,-2.9579,-3.0268,-3.1482,-3.1482,-3.1482,-3.1482,-3.1482,-3.2273,-3.3499,-3.3499,-3.4292,-3.5504,-3.5504,-3.5504,-3.5619,-3.6753,-3.7314,-3.7662,-3.8492,-3.8991,-3.9306,-3.907,-3.9007,-3.9077,-3.945,-3.9776,-3.9833,-3.8553,-3.7842,-3.7175,-3.6306,-3.5782,-3.5504,-3.5504,-3.5504,-3.5504,-3.5504,-3.5504,-3.5504,-3.5504,-3.5504,-3.5504,-3.5504,-3.5504,-3.5504,-3.5504,-3.5504,-3.5504,-3.5504,-3.5504,-3.5504,-3.5504,-3.5504,-3.5504,-3.5504,-3.5504,-3.5504,-3.5504,-3.5504,-3.5504,-3.5504,-3.5504,-3.5504,-3.5504,-3.5504,-3.5504,-3.5504,-3.5504,-3.5504,-3.5504,-3.4986,-3.4918,0.0,0.0,0.0,0.0,0.0,0.0,0.0,0.0,0.0,0.0,0.0,0.0,0.0,0.0,0.0,0.0,0.0,0.0,0.0,0.0,0.0,0.0,0.0,0.0,0.0,0.0,0.0,0.0,0.0,0.0,-2.762,-2.758,-2.7625,-2.7625,-2.7625,-2.7625,-2.7625,-2.776,-2.8434,-2.9579,-2.968,-3.0294,-3.1278,-3.1278,-3.1351,-3.1482,-3.1482,-3.2213,-3.3335,-3.344,-3.4203,-3.531,-3.5444,-3.5504,-3.5683,-3.7055,-3.7881,-3.8322,-3.8704,-3.921,-3.9467,-3.7927,-3.7374,-3.7598,-3.8756,-3.9601,-3.978,-3.8101,-3.7668,-3.7334,-3.5894,-3.5504,-3.5504,-3.5504,-3.5504,-3.5504,-3.5504,-3.5504,-3.5504,-3.5504,-3.5504,-3.5504,-3.5504,-3.5504,-3.5504,-3.5504,-3.5504,-3.5504,-3.5504,-3.5504,-3.5504,-3.5504,-3.5504,-3.5504,-3.5504,-3.5504,-3.5504,-3.5504,-3.5504,-3.5504,-3.5504,-3.5504,-3.5504,-3.5504,-3.5504,-3.5504,-3.5504,-3.5504,-3.5504,-3.5504,-3.4578,-3.4115,0.0,0.0,0.0,0.0,0.0,0.0,0.0,0.0,0.0,0.0,0.0,0.0,0.0,0.0,0.0,0.0,0.0,0.0,0.0,0.0,0.0,0.0,0.0,0.0,0.0,0.0,0.0,0.0,0.0,0.0,-2.7603,-2.7579,-2.7625,-2.7625,-2.7625,-2.7625,-2.7625,-2.8366,-2.8989,-2.9594,-2.9987,-3.029,-3.045,-3.045,-3.0837,-3.1482,-3.1482,-3.1958,-3.2691,-3.326,-3.3873,-3.4468,-3.5235,-3.5504,-3.5619,-3.6461,-3.6829,-3.7013,-3.8232,-3.8398,-3.7878,-3.6305,-3.5828,-3.6315,-3.9127,-4.0012,-3.9702,-3.768,-3.7128,-3.6857,-3.5785,-3.5504,-3.5504,-3.5504,-3.5504,-3.5504,-3.5504,-3.5504,-3.5504,-3.5504,-3.5504,-3.5504,-3.5504,-3.5504,-3.5504,-3.5504,-3.5504,-3.5504,-3.5504,-3.5504,-3.5504,-3.5504,-3.5504,-3.5504,-3.5504,-3.5504,-3.5504,-3.5504,-3.5504,-3.5504,-3.5504,-3.5504,-3.5504,-3.5504,-3.5504,-3.5504,-3.5504,-3.5504,-3.5504,-3.5519,-3.4864,-3.3631,0.0,0.0,0.0,0.0,0.0,0.0,0.0,0.0,0.0,0.0,0.0,0.0,0.0,0.0,0.0,0.0,0.0,0.0,0.0,0.0,0.0,0.0,0.0,0.0,0.0,0.0,0.0,0.0,0.0,-2.8529,-2.7638,-2.7941,-2.7944,-2.7625,-2.7625,-2.7625,-2.7625,-2.8471,-2.9327,-3.0103,-3.0031,-3.0363,-3.097,-3.0524,-3.0524,-3.0837,-3.1278,-3.2108,-3.308,-3.338,-3.4083,-3.4946,-3.537,-3.5504,-3.5619,-3.6337,-3.6677,-3.6877,-3.7304,-3.7616,-3.7576,-3.5978,-3.5505,-3.5845,-3.7581,-3.8434,-3.8521,-3.7137,-3.6805,-3.6551,-3.5688,-3.5504,-3.5504,-3.5504,-3.5504,-3.5504,-3.5504,-3.5504,-3.5504,-3.5504,-3.5504,-3.5504,-3.5504,-3.5504,-3.5504,-3.5504,-3.5504,-3.5504,-3.5504,-3.5504,-3.5504,-3.5504,-3.5504,-3.5504,-3.5504,-3.5504,-3.5504,-3.5504,-3.5504,-3.5504,-3.5504,-3.5504,-3.5504,-3.5504,-3.5504,-3.5504,-3.5504,-3.5504,-3.5504,-3.5519,-3.5034,-3.3986,0.0,0.0,0.0,0.0,0.0,0.0,0.0,0.0,0.0,0.0,0.0,0.0,0.0,0.0,0.0,0.0,0.0,0.0,0.0,0.0,0.0,0.0,0.0,0.0,0.0,0.0,0.0,0.0,0.0,-2.971,-2.859,-2.8576,-2.836,-2.7925,-2.8051,-2.8111,-2.8135,-2.8884,-2.9675,-3.0463,-2.9894,-3.0018,-3.0837,-3.0269,-3.0158,-3.056,-3.1397,-3.2228,-3.3004,-3.3559,-3.4215,-3.5001,-3.54,-3.5504,-3.5569,-3.6117,-3.6476,-3.6569,-3.6383,-3.6692,-3.7033,-3.5853,-3.5477,-3.5644,-3.6384,-3.7024,-3.7397,-3.6783,-3.6615,-3.6446,-3.5668,-3.5504,-3.5504,-3.5504,-3.5504,-3.5504,-3.5504,-3.5504,-3.5504,-3.5504,-3.5504,-3.5504,-3.5504,-3.5504,-3.5504,-3.5504,-3.5504,-3.5504,-3.5504,-3.5504,-3.5504,-3.5504,-3.5504,-3.5504,-3.5504,-3.5504,-3.5504,-3.5504,-3.5504,-3.5504,-3.5504,-3.5504,-3.5504,-3.5504,-3.5504,-3.5504,-3.5504,-3.5504,-3.5504,-3.5519,-3.5132,-3.4541,0.0,0.0,0.0,0.0,0.0,0.0,0.0,0.0,0.0,0.0,0.0,0.0,0.0,0.0,0.0,0.0,0.0,0.0,0.0,0.0,0.0,0.0,0.0,0.0,0.0,0.0,0.0,0.0,0.0,-3.0918,-3.1016,-2.9573,-2.8812,-2.8854,-2.9282,-2.9501,-2.9475,-3.0103,-3.0391,-3.0271,-2.9476,-2.9052,-2.9129,-2.9066,-2.9813,-3.1166,-3.2063,-3.2109,-3.1722,-3.363,-3.4122,-3.3706,-3.4971,-3.5504,-3.5504,-3.5554,-3.5569,-3.5569,-3.5554,-3.5569,-3.5599,-3.5519,-3.5489,-3.5638,-3.6384,-3.66,-3.6661,-3.66,-3.6615,-3.6446,-3.5668,-3.5504,-3.5504,-3.5504,-3.5504,-3.5504,-3.5504,-3.5504,-3.5504,-3.5504,-3.5504,-3.5504,-3.5504,-3.5504,-3.5504,-3.5504,-3.5504,-3.5504,-3.5504,-3.5504,-3.5504,-3.5504,-3.5504,-3.5504,-3.5504,-3.5504,-3.5504,-3.5504,-3.5504,-3.5504,-3.5504,-3.5504,-3.5504,-3.5504,-3.5504,-3.5504,-3.5504,-3.5504,-3.5504,-3.5519,-3.5078,-3.4866,0.0,0.0,0.0,0.0,0.0,0.0,0.0,0.0,0.0,0.0,0.0,0.0,0.0,0.0,0.0,0.0,0.0,0.0,0.0,0.0,0.0,0.0,0.0,0.0,0.0,0.0,0.0,0.0,0.0,0.0,-2.9,-2.9086,-2.9264,-2.9327,-2.9757,-3.0259,-3.0815,-3.1041,-3.1147,-3.1087,-3.0018,-2.9911,-3.0584,-3.0072,-3.0921,-3.2804,-3.2736,-3.2913,-3.3315,-3.4125,-3.4588,-3.4837,-3.529,-3.5504,-3.5504,-3.5504,-3.5504,-3.5504,-3.5504,-3.5504,-3.5504,-3.5504,-3.5504,-3.5554,-3.5831,-3.5894,-3.5894,-3.5894,-3.5894,-3.5831,-3.5554,-3.5504,-3.5504,-3.5504,-3.5504,-3.5504,-3.5504,-3.5504,-3.5504,-3.5504,-3.5504,-3.5504,-3.5504,-3.5504,-3.5504,-3.5504,-3.5504,-3.5504,-3.5504,-3.5504,-3.5504,-3.5504,-3.5504,-3.5504,-3.5504,-3.5504,-3.5504,-3.5504,-3.5504,-3.5504,-3.5504,-3.5504,-3.5504,-3.5504,-3.5504,-3.5504,-3.5504,-3.5504,-3.5523,-3.5488,-3.4517,-3.4525,-2.7408,0.0,0.0,0.0,0.0,0.0,0.0,0.0,0.0,0.0,0.0,0.0,0.0,0.0,0.0,0.0,0.0,0.0,0.0,0.0,0.0,0.0,0.0,0.0,0.0,0.0,0.0,0.0,0.0,0.0,-2.9025,-2.9351,-2.9814,-3.0221,-3.0509,-3.0925,-3.1524,-3.1524,-3.1387,-3.1087,-3.0334,-3.0513,-3.1407,-3.1117,-3.206,-3.3833,-3.3778,-3.3864,-3.401,-3.4562,-3.5416,-3.6186,-3.5679,-3.5668,-3.5846,-3.5619,-3.5504,-3.5504,-3.5504,-3.5504,-3.5504,-3.5504,-3.5504,-3.5504,-3.5504,-3.5504,-3.5504,-3.5504,-3.5504,-3.5504,-3.5504,-3.5504,-3.5504,-3.5504,-3.5504,-3.5504,-3.5504,-3.5504,-3.5504,-3.5504,-3.5504,-3.5504,-3.5504,-3.5504,-3.5504,-3.5504,-3.5504,-3.5504,-3.5504,-3.5504,-3.5504,-3.5504,-3.5504,-3.5504,-3.5504,-3.5504,-3.5504,-3.5504,-3.5504,-3.5504,-3.5504,-3.5504,-3.5504,-3.5504,-3.5504,-3.5504,-3.5504,-3.5504,-3.5311,-3.4971,-3.4134,-3.4182,0.0,0.0,0.0,0.0,0.0,0.0,0.0,0.0,0.0,0.0,0.0,0.0,0.0,0.0,0.0,0.0,0.0,0.0,0.0,0.0,0.0,0.0,0.0,0.0,0.0,0.0,0.0,0.0,0.0,-3.296,-3.1491,-3.0567,-3.0519,-3.141,-3.1489,-3.1482,-3.1482,-3.1482,-3.1087,-3.0329,-3.0389,-3.0704,-3.136,-3.2075,-3.313,-3.4367,-3.5181,-3.4831,-3.3788,-3.4973,-3.6407,-3.7545,-3.6091,-3.5943,-3.6492,-3.5782,-3.5504,-3.5504,-3.5504,-3.5504,-3.5504,-3.5504,-3.5504,-3.5504,-3.5504,-3.5504,-3.5504,-3.5504,-3.5504,-3.5504,-3.5504,-3.5504,-3.5504,-3.5504,-3.5504,-3.5504,-3.5504,-3.5504,-3.5504,-3.5504,-3.5504,-3.5504,-3.5504,-3.5504,-3.5504,-3.5474,-3.5489,-3.5489,-3.5474,-3.5489,-3.5504,-3.5504,-3.5504,-3.5504,-3.5504,-3.5504,-3.5504,-3.5504,-3.5504,-3.5504,-3.5504,-3.5504,-3.5504,-3.5504,-3.5504,-3.5504,-3.5504,-3.5439,-3.4986,-3.4041,-3.4041,-3.4027,-2.8906,0.0,0.0,0.0,0.0,0.0,0.0,0.0,0.0,0.0,0.0,0.0,0.0,0.0,0.0,0.0,0.0,0.0,0.0,0.0,0.0,0.0,0.0,0.0,0.0,0.0,0.0,0.0,-3.4783,-3.3088,-3.1622,-3.0798,-3.0461,-3.0578,-3.118,-3.1482,-3.1482,-3.1482,-3.1409,-3.1146,-3.1679,-3.2359,-3.3013,-3.285,-3.4302,-3.6776,-3.3905,-3.4825,-3.8156,-3.6273,-3.5778,-3.6091,-3.5679,-3.5619,-3.5782,-3.5554,-3.5504,-3.5504,-3.5504,-3.5504,-3.5504,-3.5504,-3.5504,-3.5504,-3.5504,-3.5504,-3.5504,-3.5504,-3.5504,-3.5504,-3.5504,-3.5504,-3.5504,-3.5504,-3.5504,-3.5504,-3.5504,-3.5504,-3.5504,-3.5504,-3.5504,-3.5504,-3.5504,-3.5943,-3.6105,-3.5582,-3.5936,-3.609,-3.5582,-3.5507,-3.5504,-3.5504,-3.5504,-3.5504,-3.5504,-3.5504,-3.5504,-3.5504,-3.5504,-3.5504,-3.5504,-3.5504,-3.5504,-3.5504,-3.5504,-3.5504,-3.5504,-3.4589,-3.4496,-3.5098,-3.5098,-3.4318,0.0,0.0,0.0,0.0,0.0,0.0,0.0,-3.2879,0.0,0.0,0.0,0.0,0.0,0.0,0.0,0.0,0.0,0.0,0.0,0.0,0.0,0.0,0.0,0.0,0.0,0.0,0.0,-3.6837,-3.5069,-3.3405,-3.2112,-3.1328,-3.0839,-3.0723,-3.1228,-3.1482,-3.1482,-3.1482,-3.1482,-3.1539,-3.2548,-3.3427,-3.4132,-3.4729,-3.5951,-3.7518,-3.5812,-3.6606,-3.8991,-3.7225,-3.66,-3.6692,-3.5857,-3.5668,-3.5958,-3.5619,-3.5504,-3.5504,-3.5504,-3.5504,-3.5504,-3.5504,-3.5504,-3.5504,-3.5504,-3.5504,-3.5504,-3.5504,-3.5504,-3.5504,-3.5504,-3.5504,-3.5504,-3.5504,-3.5504,-3.5504,-3.5504,-3.5504,-3.5504,-3.5504,-3.5504,-3.5504,-3.5504,-3.5831,-3.6165,-3.6102,-3.6102,-3.6011,-3.5563,-3.5503,-3.5504,-3.5504,-3.5504,-3.5504,-3.5504,-3.5504,-3.5504,-3.5504,-3.5504,-3.5504,-3.5504,-3.5504,-3.5504,-3.5504,-3.5504,-3.5279,-3.4839,-3.4537,-3.4549,-3.4845,-3.4845,-3.4025,0.0,0.0,0.0,0.0,0.0,0.0,-3.1482,-3.261,0.0,0.0,0.0,0.0,0.0,0.0,0.0,0.0,0.0,0.0,0.0,0.0,0.0,0.0,0.0,0.0,0.0,-3.6599,-3.6865,-3.8413,-3.5879,-3.374,-3.2569,-3.189,-3.1482,-3.1482,-3.1482,-3.1482,-3.1482,-3.1541,-3.1586,-3.1644,-3.3095,-3.4148,-3.4872,-3.6861,-3.7531,-3.7363,-3.8908,-3.8894,-3.7694,-3.762,-3.7831,-3.8078,-3.6207,-3.5894,-3.6384,-3.5718,-3.5504,-3.5504,-3.5504,-3.5504,-3.5504,-3.5504,-3.5504,-3.5504,-3.5504,-3.5504,-3.5504,-3.5504,-3.5504,-3.5504,-3.5504,-3.5504,-3.5504,-3.5504,-3.5504,-3.5504,-3.5504,-3.5504,-3.5504,-3.5504,-3.5504,-3.5504,-3.5504,-3.5569,-3.5914,-3.6721,-3.6114,-3.5589,-3.5479,-3.5524,-3.5504,-3.5504,-3.5504,-3.5504,-3.5504,-3.5504,-3.5504,-3.5504,-3.5504,-3.5504,-3.5504,-3.5504,-3.5504,-3.5504,-3.5504,-3.5067,-3.4177,-3.5067,-3.4986,-3.4027,-3.4027,-3.3518,0.0,0.0,0.0,0.0,0.0,0.0,-3.1482,-3.261,0.0,0.0,0.0,0.0,0.0,0.0,0.0,0.0,0.0,0.0,0.0,0.0,0.0,0.0,0.0,0.0,0.0,-3.722,-3.7082,-3.7405,-3.5666,-3.3752,-3.1823,-3.1567,-3.1482,-3.1482,-3.1482,-3.1482,-3.1482,-3.2063,-3.2317,-3.2332,-3.3521,-3.457,-3.5424,-3.5871,-3.6922,-3.8253,-3.695,-3.6669,-3.7078,-3.6297,-3.6013,-3.6064,-3.5649,-3.5619,-3.5668,-3.5554,-3.5504,-3.5504,-3.5504,-3.5504,-3.5504,-3.5504,-3.5504,-3.5504,-3.5504,-3.5504,-3.5504,-3.5504,-3.5504,-3.5504,-3.5504,-3.5504,-3.5504,-3.5504,-3.5504,-3.5504,-3.5504,-3.5504,-3.5504,-3.5504,-3.5504,-3.5504,-3.5504,-3.6006,-3.6245,-3.5875,-3.6106,-3.6183,-3.5583,-3.5477,-3.5504,-3.5504,-3.5504,-3.5504,-3.5504,-3.5504,-3.5504,-3.5504,-3.5504,-3.5504,-3.5504,-3.5504,-3.5504,-3.5504,-3.5504,-3.5424,-3.5213,-3.5424,-3.4986,-3.4027,-3.4027,-3.3518,0.0,0.0,0.0,-3.127,0.0,0.0,0.0,0.0,0.0,0.0,0.0,0.0,0.0,0.0,0.0,0.0,0.0,0.0,0.0,0.0,0.0,0.0,0.0,0.0,0.0,-3.8153,-3.7491,-3.6467,-3.5665,-3.4392,-3.2584,-3.2511,-3.2482,-3.2481,-3.2481,-3.2497,-3.2512,-3.2586,-3.275,-3.3006,-3.3846,-3.4675,-3.5652,-3.6348,-3.7102,-3.7762,-3.7266,-3.6762,-3.6227,-3.6226,-3.5965,-3.5504,-3.5504,-3.5504,-3.5504,-3.5504,-3.5504,-3.5504,-3.5504,-3.5504,-3.5504,-3.5504,-3.5504,-3.5504,-3.5504,-3.5504,-3.5504,-3.5504,-3.5504,-3.5504,-3.5504,-3.5504,-3.5504,-3.5504,-3.5504,-3.5504,-3.5504,-3.5504,-3.5504,-3.5504,-3.5504,-3.5504,-3.5504,-3.5782,-3.5915,-3.5576,-3.5791,-3.5915,-3.5561,-3.5533,-3.5504,-3.5504,-3.5504,-3.5504,-3.5504,-3.5504,-3.5504,-3.5504,-3.5504,-3.5504,-3.5504,-3.5504,-3.5504,-3.5504,-3.5504,-3.5279,-3.4758,-3.4758,-3.4461,-3.4027,-3.4027,-3.3241,0.0,0.0,0.0,0.0,0.0,-3.2242,0.0,0.0,0.0,0.0,0.0,0.0,0.0,0.0,0.0,0.0,0.0,0.0,0.0,0.0,0.0,0.0,0.0,0.0,0.0,-3.8936,-3.7887,-3.6238,-3.5824,-3.514,-3.3789,-3.3562,-3.3576,-3.3609,-3.358,-3.3538,-3.3636,-3.3302,-3.3347,-3.3679,-3.4197,-3.4881,-3.5584,-3.6789,-3.7148,-3.6774,-3.762,-3.7049,-3.56,-3.6507,-3.646,-3.5733,-3.5733,-3.5619,-3.5504,-3.5504,-3.5504,-3.5504,-3.5504,-3.5504,-3.5504,-3.5504,-3.5504,-3.5504,-3.5504,-3.5504,-3.5504,-3.5504,-3.5504,-3.5504,-3.5668,-3.5733,-3.5733,-3.5733,-3.5733,-3.5668,-3.5504,-3.5504,-3.5504,-3.5504,-3.5504,-3.5504,-3.5504,-3.5504,-3.5504,-3.5504,-3.5504,-3.5504,-3.5504,-3.5504,-3.5504,-3.5504,-3.5504,-3.5504,-3.5504,-3.5504,-3.5504,-3.5504,-3.5504,-3.5504,-3.5504,-3.5279,-3.5213,-3.5213,-3.5067,-3.4543,-3.3739,-3.3739,-3.3782,-3.3908,-3.3659,-3.2818,0.0,0.0,0.0,0.0,-3.2012,0.0,0.0,0.0,0.0,0.0,0.0,0.0,0.0,0.0,0.0,0.0,0.0,0.0,0.0,0.0,0.0,0.0,0.0,0.0,0.0,0.0,-3.837,-3.7539,-3.6381,-3.5345,-3.4623,-3.3858,-3.3672,-3.408,-3.3731,-3.3689,-3.4105,-3.422,-3.4337,-3.4367,-3.5045,-3.5374,-3.5499,-3.5703,-3.57,-3.5676,-3.5804,-3.5713,-3.5539,-3.6322,-3.6569,-3.6508,-3.6508,-3.6054,-3.5504,-3.5504,-3.5504,-3.5504,-3.5504,-3.5504,-3.5504,-3.5504,-3.5504,-3.5504,-3.5504,-3.5504,-3.5504,-3.5504,-3.5504,-3.5668,-3.6337,-3.6508,-3.6508,-3.6508,-3.6508,-3.6275,-3.5604,-3.5504,-3.5504,-3.5504,-3.5504,-3.5504,-3.5504,-3.5504,-3.5504,-3.5504,-3.5504,-3.5504,-3.5504,-3.5504,-3.5504,-3.5504,-3.5504,-3.5504,-3.5504,-3.5504,-3.5504,-3.5504,-3.5504,-3.5504,-3.5504,-3.461,-3.4177,-3.4177,-3.331,-3.289,-3.2749,-3.2749,-3.303,-3.3621,-3.2464,-3.2105,0.0,0.0,0.0,0.0,0.0,0.0,-3.2881,0.0,-3.3777,0.0,0.0,0.0,0.0,0.0,0.0,0.0,0.0,0.0,0.0,0.0,0.0,0.0,0.0,0.0,0.0,0.0,0.0,0.0,0.0,-3.6589,-3.5854,-3.5489,-3.5198,-3.4951,-3.4782,-3.4737,-3.4958,-3.506,-3.507,-3.507,-3.537,-3.5504,-3.5504,-3.5504,-3.5525,-3.5523,-3.5522,-3.5856,-3.6401,-3.7046,-3.7279,-3.7279,-3.7279,-3.6798,-3.6117,-3.5683,-3.5504,-3.5504,-3.5504,-3.5504,-3.5504,-3.5504,-3.5504,-3.5504,-3.5504,-3.5782,-3.6165,-3.6165,-3.6477,-3.689,-3.7219,-3.7279,-3.716,-3.6722,-3.6615,-3.6384,-3.5668,-3.5504,-3.5504,-3.5504,-3.5504,-3.5504,-3.5504,-3.5504,-3.5504,-3.5504,-3.5504,-3.5504,-3.5504,-3.5504,-3.5504,-3.5504,-3.5504,-3.5504,-3.5504,-3.5504,-3.5504,-3.5504,-3.5504,-3.5504,-3.5504,-3.5118,-3.4351,-3.3189,-3.2807,-3.2434,-3.2096,-3.2096,-3.1844,-3.1404,-3.1386,-3.1277,-3.2422,0.0,0.0,0.0,0.0,0.0,0.0,0.0,0.0,0.0,0.0,0.0,0.0,0.0,0.0,0.0,0.0,0.0,0.0,0.0,0.0,0.0,0.0,0.0,0.0,0.0,0.0,0.0,0.0,0.0,-3.6967,-3.6692,-3.6275,-3.5504,-3.5504,-3.5504,-3.5504,-3.5504,-3.5504,-3.5504,-3.5504,-3.5504,-3.5504,-3.5504,-3.5473,-3.5489,-3.5518,-3.5885,-3.6635,-3.7243,-3.7456,-3.7456,-3.7456,-3.7084,-3.6492,-3.5782,-3.5504,-3.5504,-3.5504,-3.5504,-3.5504,-3.5504,-3.5504,-3.5569,-3.5718,-3.6165,-3.6676,-3.6843,-3.7338,-3.7879,-3.8035,-3.8092,-3.7905,-3.7144,-3.6904,-3.6692,-3.5733,-3.5504,-3.5504,-3.5504,-3.5504,-3.5504,-3.5504,-3.5504,-3.5504,-3.5504,-3.5504,-3.5504,-3.5504,-3.5504,-3.5504,-3.5504,-3.5504,-3.5504,-3.5504,-3.5504,-3.5579,-3.5759,-3.5609,-3.5594,-3.5774,-3.5078,-3.4149,-3.2875,-3.2198,-3.1603,-3.114,-3.114,-3.084,-3.0121,-3.0572,-3.0419,0.0,0.0,0.0,-3.2398,0.0,0.0,0.0,0.0,-3.3794,0.0,0.0,0.0,0.0,0.0,0.0,0.0,0.0,0.0,0.0,0.0,0.0,0.0,0.0,0.0,0.0,0.0,0.0,0.0,0.0,0.0,-3.7768,-3.7046,-3.6275,-3.5504,-3.5504,-3.5504,-3.5504,-3.5504,-3.5504,-3.5504,-3.5504,-3.5504,-3.5504,-3.5504,-3.5489,-3.5474,-3.5489,-3.5504,-3.5604,-3.6337,-3.6676,-3.6676,-3.6676,-3.66,-3.6492,-3.5782,-3.5504,-3.5504,-3.5504,-3.5504,-3.5504,-3.5504,-3.5504,-3.5604,-3.6337,-3.6615,-3.6783,-3.7515,-3.7764,-3.7978,-3.869,-3.8854,-3.869,-3.7921,-3.7748,-3.7354,-3.5861,-3.5504,-3.5504,-3.5504,-3.5504,-3.5504,-3.5504,-3.5504,-3.5504,-3.5504,-3.5504,-3.5504,-3.5504,-3.5504,-3.5504,-3.5504,-3.5504,-3.5504,-3.5504,-3.5504,-3.5774,-3.6417,-3.5863,-3.5789,-3.6432,-3.4027,-3.2973,-3.3564,-3.114,-2.9869,-2.9869,-2.9869,-3.0184,-3.0855,-3.0159,-2.9869,0.0,0.0,-3.1657,-3.2357,0.0,0.0,0.0,0.0,0.0,0.0,0.0,0.0,0.0,0.0,0.0,0.0,0.0,0.0,0.0,0.0,0.0,0.0,0.0,0.0,0.0,0.0,0.0,0.0,0.0,0.0,0.0,-3.6646,-3.5631,-3.5489,-3.4839,-3.4839,-3.5504,-3.5504,-3.5504,-3.5504,-3.5504,-3.5504,-3.5504,-3.5504,-3.5504,-3.5504,-3.5504,-3.5782,-3.6228,-3.6492,-3.6904,-3.7338,-3.6783,-3.6615,-3.6492,-3.5782,-3.5504,-3.5504,-3.5504,-3.5504,-3.5504,-3.5504,-3.5504,-3.5569,-3.5782,-3.6585,-3.7456,-3.769,-3.8541,-3.9279,-3.8962,-3.8908,-3.8564,-3.7322,-3.704,-3.6753,-3.5733,-3.5504,-3.5504,-3.5504,-3.5504,-3.5504,-3.5504,-3.5504,-3.5504,-3.5504,-3.5504,-3.5504,-3.5504,-3.5504,-3.5504,-3.5504,-3.5504,-3.5504,-3.5504,-3.5504,-3.5609,-3.5818,-3.6385,-3.6496,-3.5848,-3.4977,-3.3417,-3.1101,-3.025,-2.9792,-2.9792,-3.0542,-3.0833,-3.0738,-3.0796,-3.0989,-3.1482,-3.136,0.0,-3.1679,-3.1279,0.0,-3.3114,0.0,0.0,0.0,0.0,0.0,0.0,0.0,0.0,0.0,0.0,0.0,0.0,0.0,0.0,0.0,0.0,0.0,0.0,0.0,-3.7121,-3.8933,0.0,0.0,0.0,0.0,-3.4961,-3.4461,-3.4543,-3.4662,-3.4832,-3.5264,-3.5504,-3.5504,-3.5504,-3.5504,-3.5504,-3.5504,-3.5504,-3.5504,-3.5504,-3.5782,-3.6228,-3.6228,-3.6523,-3.6951,-3.6399,-3.6228,-3.6165,-3.5668,-3.5504,-3.5504,-3.5504,-3.5504,-3.5504,-3.5504,-3.5504,-3.5524,-3.5522,-3.6399,-3.7456,-3.769,-3.8502,-3.9172,-3.8635,-3.8525,-3.8173,-3.6888,-3.6615,-3.6384,-3.5668,-3.5504,-3.5504,-3.5504,-3.5504,-3.5504,-3.5504,-3.5504,-3.5504,-3.5504,-3.5504,-3.5504,-3.5504,-3.5504,-3.5504,-3.5504,-3.5504,-3.5504,-3.5504,-3.5504,-3.5609,-3.5833,-3.661,-3.6737,-3.5878,-3.5179,-3.3442,-3.0535,-3.001,-2.9792,-2.9792,-3.0529,-3.0817,-3.0896,-3.1047,-3.1455]}]]